[[{"header":{"parameterUnit":"m.s-1","parameterCategory":1,"la1":31.0,"la2":29.5877,"lo1":-88.7671,"lo2":-86.6584,"dy":0.0162,"dx":0.0185,"nx":115,"ny":88,"refTime":"2024-12-01T18:00:00:Z","depth":0,"parameterNumber":2,"parameterNumberName":"U-component_of_WINDS"},"data":[0.0,0.0,0.0,0.0,0.0,0.0,0.0,0.0,0.0,0.0,0.0,0.0,0.0,0.0,0.0,0.0,0.0,0.0,0.0,0.0,0.0,0.0,0.0,0.0,0.0,0.0,0.0,0.0,0.0,0.0,0.0,0.0,0.0,0.0,0.0,0.0,0.0,0.0,0.0,0.0,0.0,0.0,0.0,0.0,0.0,0.0,0.0,0.0,0.0,0.0,0.0,0.0,0.0,0.0,0.0,0.0,0.0,0.0,0.0,0.0,0.0,0.0,0.0,0.0,0.0,0.0,0.0,0.0,0.0,0.0,0.0,0.0,0.0,0.0,0.0,0.0,0.0,0.0,0.0,0.0,0.0,0.0,0.0,0.0,0.0,0.0,0.0,0.0,0.0,0.0,0.0,0.0,0.0,0.0,0.0,0.0,0.0,0.0,0.0,0.0,0.0,0.0,0.0,0.0,0.0,0.0,0.0,0.0,0.0,0.0,0.0,0.0,0.0,0.0,0.0,0.0,0.0,0.0,0.0,0.0,0.0,0.0,0.0,0.0,0.0,0.0,0.0,0.0,0.0,0.0,0.0,0.0,0.0,0.0,0.0,0.0,0.0,0.0,0.0,0.0,0.0,0.0,0.0,0.0,0.0,0.0,0.0,0.0,0.0,0.0,0.0,0.0,0.0,0.0,0.0,0.0,0.0,0.0,0.0,0.0,0.0,0.0,0.0,0.0,0.0,0.0,0.0,0.0,0.0,0.0,0.0,0.0,0.0,0.0,0.0,0.0,0.0,0.0,0.0,0.0,0.0,0.0,0.0,0.0,0.0,0.0,0.0,0.0,0.0,0.0,0.0,0.0,0.0,0.0,0.0,0.0,0.0,0.0,0.0,0.0,0.0,0.0,0.0,0.0,0.0,0.0,0.0,0.0,0.0,0.0,0.0,0.0,0.0,0.0,0.0,0.0,0.0,0.0,0.0,0.0,0.0,0.0,0.0,0.0,0.0,0.0,0.0,0.0,0.0,0.0,0.0,0.0,0.0,0.0,0.0,0.0,0.0,0.0,0.0,0.0,0.0,0.0,0.0,0.0,0.0,0.0,0.0,0.0,0.0,0.0,0.0,0.0,0.0,0.0,0.0,0.0,0.0,0.0,0.0,0.0,0.0,0.0,0.0,0.0,0.0,0.0,0.0,0.0,0.0,0.0,0.0,0.0,0.0,0.0,0.0,0.0,0.0,0.0,0.0,0.0,0.0,0.0,0.0,0.0,0.0,0.0,0.0,0.0,0.0,0.0,0.0,0.0,0.0,0.0,0.0,0.0,0.0,0.0,0.0,0.0,0.0,0.0,0.0,0.0,0.0,0.0,0.0,0.0,0.0,0.0,0.0,0.0,0.0,0.0,0.0,0.0,0.0,0.0,0.0,0.0,0.0,0.0,0.0,0.0,0.0,0.0,0.0,0.0,0.0,0.0,0.0,0.0,0.0,0.0,0.0,0.0,0.0,0.0,0.0,0.0,0.0,0.0,0.0,0.0,0.0,0.0,0.0,0.0,0.0,0.0,0.0,0.0,0.0,0.0,0.0,0.0,0.0,0.0,0.0,0.0,0.0,0.0,0.0,0.0,0.0,0.0,0.0,0.0,0.0,0.0,0.0,0.0,0.0,0.0,0.0,0.0,0.0,0.0,0.0,0.0,0.0,0.0,0.0,0.0,0.0,0.0,0.0,0.0,0.0,0.0,0.0,0.0,0.0,0.0,0.0,0.0,0.0,0.0,0.0,0.0,0.0,0.0,0.0,0.0,0.0,0.0,0.0,0.0,0.0,0.0,0.0,0.0,0.0,0.0,0.0,0.0,0.0,0.0,0.0,0.0,0.0,0.0,0.0,0.0,0.0,0.0,0.0,0.0,0.0,0.0,0.0,0.0,0.0,0.0,0.0,0.0,0.0,0.0,0.0,0.0,0.0,0.0,0.0,0.0,0.0,0.0,0.0,0.0,0.0,0.0,0.0,0.0,0.0,0.0,0.0,0.0,0.0,0.0,0.0,0.0,0.0,0.0,0.0,0.0,0.0,0.0,0.0,0.0,0.0,0.0,0.0,0.0,0.0,0.0,0.0,0.0,0.0,0.0,0.0,0.0,0.0,0.0,0.0,0.0,0.0,0.0,0.0,0.0,0.0,0.0,0.0,0.0,0.0,0.0,0.0,0.0,0.0,0.0,0.0,0.0,0.0,0.0,0.0,0.0,0.0,0.0,0.0,0.0,0.0,0.0,0.0,0.0,0.0,0.0,0.0,0.0,0.0,0.0,0.0,0.0,0.0,0.0,0.0,0.0,0.0,0.0,0.0,0.0,0.0,0.0,0.0,0.0,0.0,0.0,0.0,0.0,0.0,0.0,0.0,0.0,0.0,0.0,0.0,0.0,0.0,0.0,0.0,0.0,0.0,0.0,0.0,0.0,0.0,0.0,0.0,0.0,0.0,0.0,0.0,0.0,0.0,0.0,0.0,0.0,0.0,0.0,0.0,0.0,0.0,0.0,0.0,0.0,0.0,0.0,0.0,0.0,0.0,0.0,0.0,0.0,0.0,0.0,0.0,0.0,0.0,0.0,0.0,0.0,0.0,0.0,0.0,0.0,0.0,0.0,0.0,0.0,0.0,0.0,0.0,0.0,0.0,0.0,0.0,0.0,0.0,0.0,0.0,0.0,0.0,0.0,0.0,0.0,0.0,0.0,0.0,0.0,0.0,0.0,0.0,0.0,0.0,0.0,0.0,0.0,0.0,0.0,0.0,0.0,0.0,0.0,0.0,0.0,0.0,0.0,0.0,0.0,0.0,0.0,0.0,0.0,0.0,0.0,0.0,0.0,0.0,0.0,0.0,0.0,0.0,0.0,0.0,0.0,0.0,0.0,0.0,0.0,0.0,0.0,0.0,0.0,0.0,0.0,0.0,0.0,0.0,0.0,0.0,0.0,0.0,0.0,0.0,0.0,0.0,0.0,0.0,0.0,0.0,0.0,0.0,0.0,0.0,0.0,0.0,0.0,0.0,0.0,0.0,0.0,0.0,0.0,0.0,0.0,0.0,0.0,0.0,0.0,0.0,0.0,0.0,0.0,0.0,0.0,0.0,0.0,0.0,0.0,0.0,0.0,0.0,0.0,0.0,0.0,0.0,0.0,0.0,0.0,0.0,0.0,0.0,0.0,0.0,0.0,0.0,0.0,0.0,0.0,0.0,0.0,0.0,0.0,0.0,0.0,0.0,0.0,0.0,0.0,0.0,0.0,0.0,0.0,0.0,0.0,0.0,0.0,0.0,0.0,0.0,0.0,0.0,0.0,0.0,0.0,0.0,0.0,0.0,0.0,0.0,0.0,0.0,0.0,0.0,0.0,0.0,0.0,0.0,0.0,0.0,0.0,0.0,0.0,0.0,0.0,0.0,0.0,0.0,0.0,0.0,0.0,0.0,0.0,0.0,0.0,0.0,0.0,0.0,0.0,0.0,0.0,0.0,0.0,0.0,0.0,0.0,0.0,0.0,0.0,0.0,0.0,0.0,0.0,0.0,0.0,0.0,0.0,0.0,0.0,0.0,0.0,0.0,0.0,0.0,0.0,0.0,0.0,0.0,0.0,0.0,0.0,0.0,0.0,0.0,0.0,0.0,0.0,0.0,0.0,0.0,0.0,0.0,0.0,0.0,0.0,0.0,0.0,0.0,0.0,0.0,0.0,0.0,0.0,0.0,0.0,0.0,0.0,0.0,0.0,0.0,0.0,0.0,0.0,0.0,0.0,0.0,0.0,0.0,0.0,0.0,0.0,0.0,0.0,0.0,0.0,0.0,0.0,0.0,0.0,0.0,0.0,0.0,0.0,0.0,0.0,0.0,0.0,0.0,0.0,0.0,0.0,0.0,0.0,0.0,0.0,0.0,0.0,0.0,0.0,0.0,0.0,0.0,0.0,0.0,0.0,0.0,0.0,0.0,0.0,0.0,0.0,0.0,0.0,0.0,0.0,0.0,0.0,0.0,0.0,0.0,0.0,0.0,0.0,0.0,0.0,0.0,0.0,0.0,0.0,0.0,0.0,0.0,0.0,0.0,0.0,0.0,0.0,0.0,0.0,0.0,0.0,0.0,0.0,0.0,0.0,0.0,0.0,0.0,0.0,0.0,0.0,0.0,0.0,0.0,0.0,0.0,0.0,0.0,0.0,0.0,0.0,0.0,0.0,0.0,0.0,0.0,0.0,0.0,0.0,0.0,0.0,0.0,0.0,0.0,0.0,0.0,0.0,0.0,0.0,1.5138,0.0,0.0,0.0,0.0,0.0,0.0,0.0,0.0,0.0,0.0,0.0,0.0,0.0,0.0,0.0,0.0,0.0,0.0,0.0,0.0,0.0,0.0,0.0,0.0,0.0,0.0,0.0,0.0,0.0,0.0,0.0,0.0,0.0,0.0,0.0,0.0,0.0,0.0,0.0,0.0,0.0,0.0,0.0,0.0,0.0,0.0,0.0,0.0,0.0,0.0,0.0,0.0,0.0,0.0,0.0,0.0,0.0,0.0,0.0,0.0,0.0,0.0,0.0,0.0,0.0,0.0,0.0,0.0,0.0,0.0,0.0,0.0,0.0,0.0,0.0,0.0,0.0,0.0,0.0,0.0,0.0,0.0,0.0,0.0,0.0,0.0,0.0,0.0,0.0,0.0,0.0,0.0,0.0,0.0,0.0,0.0,0.0,0.0,0.0,0.0,0.0,0.0,0.0,0.0,0.0,0.0,0.0,0.0,0.0,0.0,1.5384,1.5345,1.5336,1.5306,1.5222,0.0,0.0,0.0,0.0,0.0,0.0,0.0,0.0,0.0,0.0,0.0,0.0,0.0,0.0,0.0,0.0,0.0,0.0,0.0,0.0,0.0,0.0,0.0,0.0,0.0,0.0,0.0,0.0,0.0,0.0,0.0,0.0,0.0,0.0,0.0,0.0,0.0,0.0,0.0,0.0,0.0,0.0,0.0,0.0,0.0,0.0,0.0,0.0,0.0,0.0,0.0,0.0,0.0,0.0,0.0,0.0,0.0,0.0,0.0,0.0,0.0,0.0,0.0,0.0,0.0,0.0,0.0,0.0,0.0,0.0,0.0,0.0,0.0,0.0,0.0,0.0,0.0,0.0,0.0,0.0,0.0,0.0,0.0,0.0,0.0,0.0,0.0,0.0,0.0,0.0,0.0,0.0,0.0,0.0,0.0,0.0,0.0,0.0,0.0,0.0,0.0,0.0,0.0,0.0,0.0,0.0,0.0,0.0,0.0,0.0,0.0,0.0,1.6152,1.6119,1.6086,0.0,0.0,0.0,0.0,0.0,0.0,0.0,0.0,0.0,0.0,0.0,0.0,0.0,0.0,0.0,0.0,0.0,0.0,0.0,0.0,0.0,0.0,0.0,0.0,0.0,0.0,0.0,0.0,0.0,0.0,0.0,0.0,0.0,0.0,0.0,0.0,0.0,0.0,0.0,0.0,0.0,0.0,0.0,0.0,0.0,0.0,0.0,0.0,0.0,0.0,0.0,0.0,0.0,0.0,0.0,0.0,0.0,0.0,0.0,0.0,0.0,0.0,0.0,0.0,0.0,0.0,0.0,0.0,0.0,0.0,0.0,0.0,0.0,0.0,0.0,0.0,0.0,0.0,0.0,0.0,0.0,0.0,0.0,0.0,0.0,0.0,0.0,0.0,0.0,0.0,0.0,0.0,0.0,0.0,0.0,0.0,0.0,0.0,0.0,0.0,0.0,0.0,0.0,0.0,0.0,0.0,0.0,0.0,0.0,0.0,1.6478,1.8681,1.8724,0.0,1.8365,0.0,0.0,0.0,0.0,0.0,0.0,0.0,0.0,0.0,0.0,0.0,0.0,0.0,0.0,0.0,0.0,0.0,0.0,0.0,0.0,0.0,0.0,0.0,0.0,0.0,0.0,0.0,0.0,0.0,0.0,0.0,0.0,0.0,0.0,0.0,0.0,0.0,0.0,0.0,0.0,0.0,0.0,0.0,0.0,0.0,0.0,0.0,0.0,0.0,0.0,0.0,0.0,0.0,0.0,0.0,0.0,0.0,0.0,0.0,0.0,0.0,0.0,0.0,0.0,0.0,0.0,0.0,0.0,0.0,0.0,0.0,0.0,0.0,0.0,0.0,0.0,0.0,0.0,0.0,0.0,0.0,0.0,0.0,0.0,0.0,0.0,0.0,0.0,0.0,0.0,0.0,0.0,0.0,0.0,0.0,0.0,0.0,0.0,0.0,0.0,0.0,0.0,0.0,0.0,0.0,0.0,0.0,0.0,0.0,0.0,1.8049,1.9012,1.9039,1.8929,0.0,0.0,0.0,0.0,0.0,0.0,0.0,0.0,0.0,0.0,0.0,0.0,0.0,0.0,0.0,0.0,0.0,0.0,0.0,0.0,0.0,0.0,0.0,0.0,0.0,0.0,0.0,0.0,0.0,0.0,0.0,0.0,0.0,0.0,0.0,0.0,0.0,0.0,0.0,0.0,0.0,0.0,0.0,0.0,0.0,0.0,0.0,0.0,0.0,0.0,0.0,0.0,0.0,0.0,0.0,0.0,0.0,0.0,0.0,0.0,0.0,0.0,0.0,0.0,0.0,0.0,0.0,0.0,0.0,0.0,0.0,0.0,0.0,0.0,0.0,0.0,0.0,0.0,0.0,0.0,0.0,0.0,0.0,0.0,0.0,0.0,0.0,0.0,0.0,0.0,0.0,0.0,0.0,0.0,0.0,0.0,0.0,0.0,0.0,0.0,0.0,0.0,0.0,0.0,0.0,0.0,0.0,0.0,0.0,0.0,1.8874,1.944,2.0042,2.0062,1.9616,1.8706,0.0,0.0,0.0,0.0,0.0,0.0,0.0,0.0,0.0,0.0,0.0,0.0,0.0,0.0,0.0,0.0,0.0,0.0,0.0,0.0,0.0,0.0,0.0,0.0,0.0,0.0,0.0,0.0,0.0,0.0,0.0,0.0,0.0,0.0,0.0,0.0,0.0,0.0,0.0,0.0,0.0,0.0,0.0,0.0,0.0,0.0,0.0,0.0,0.0,0.0,0.0,0.0,0.0,0.0,0.0,0.0,0.0,0.0,0.0,0.0,0.0,0.0,0.0,0.0,0.0,0.0,0.0,0.0,0.0,0.0,0.0,0.0,0.0,0.0,0.0,0.0,0.0,0.0,0.0,0.0,0.0,0.0,0.0,0.0,0.0,0.0,0.0,0.0,0.0,0.0,0.0,0.0,0.0,0.0,0.0,0.0,0.0,0.0,0.0,0.0,0.0,0.0,0.0,0.0,0.0,0.0,0.0,0.0,2.2341,2.0359,2.0334,2.2628,2.2665,2.1349,0.0,0.0,0.0,0.0,0.0,0.0,0.0,0.0,0.0,0.0,0.0,0.0,0.0,0.0,0.0,0.0,0.0,0.0,0.0,0.0,0.0,0.0,0.0,0.0,0.0,0.0,0.0,0.0,0.0,0.0,0.0,0.0,0.0,0.0,0.0,0.0,0.0,0.0,0.0,0.0,0.0,0.0,0.0,0.0,0.0,0.0,0.0,0.0,0.0,0.0,0.0,0.0,0.0,0.0,0.0,0.0,0.0,0.0,0.0,0.0,0.0,0.0,0.0,0.0,0.0,0.0,0.0,0.0,0.0,0.0,0.0,0.0,0.0,0.0,0.0,0.0,0.0,0.0,0.0,0.0,0.0,0.0,0.0,0.0,0.0,0.0,0.0,0.0,0.0,0.0,0.0,0.0,0.0,0.0,0.0,0.0,0.0,0.0,0.0,0.0,0.0,0.0,0.0,0.0,0.0,0.0,0.0,0.0,0.0,1.8022,1.8749,2.1126,2.5022,2.2046,2.048,0.0,0.0,0.0,0.0,0.0,0.0,0.0,0.0,0.0,0.0,0.0,0.0,0.0,0.0,0.0,0.0,0.0,0.0,0.0,0.0,0.0,0.0,0.0,0.0,0.0,0.0,0.0,0.0,0.0,0.0,0.0,0.0,0.0,0.0,0.0,0.0,0.0,0.0,0.0,0.0,0.0,0.0,0.0,0.0,0.0,0.0,0.0,0.0,0.0,0.0,0.0,0.0,0.0,0.0,0.0,0.0,0.0,0.0,0.0,0.0,0.0,0.0,0.0,0.0,0.0,0.0,0.0,0.0,0.0,0.0,0.0,0.0,0.0,0.0,0.0,0.0,0.0,0.0,0.0,0.0,0.0,0.0,0.0,0.0,0.0,0.0,0.0,0.0,0.0,0.0,0.0,0.0,0.0,0.0,0.0,0.0,0.0,0.0,0.0,0.0,0.0,0.0,0.0,0.0,0.0,0.0,0.0,0.0,0.0,1.7852,0.0,2.2874,2.5192,2.1961,2.0022,0.0,0.0,0.0,0.0,0.0,0.0,0.0,0.0,0.0,0.0,0.0,0.0,0.0,0.0,0.0,0.0,0.0,0.0,0.0,0.0,0.0,0.0,0.0,0.0,0.0,0.0,0.0,0.0,0.0,0.0,0.0,0.0,0.0,0.0,0.0,0.0,0.0,0.0,0.0,0.0,0.0,0.0,0.0,0.0,0.0,0.0,0.0,0.0,0.0,0.0,0.0,0.0,0.0,0.0,0.0,0.0,0.0,0.0,0.0,0.0,0.0,0.0,0.0,0.0,0.0,0.0,0.0,0.0,0.0,0.0,0.0,0.0,0.0,0.0,0.0,0.0,0.0,0.0,0.0,0.0,0.0,0.0,0.0,0.0,0.0,0.0,0.0,0.0,0.0,0.0,0.0,0.0,0.0,0.0,0.0,0.0,0.0,0.0,0.0,0.0,0.0,0.0,0.0,0.0,0.0,0.0,0.0,0.0,1.7932,2.289,2.5305,2.5362,2.3191,2.2669,2.0164,0.0,0.0,0.0,0.0,0.0,0.0,0.0,0.0,0.0,0.0,0.0,0.0,0.0,0.0,0.0,0.0,0.0,0.0,0.0,0.0,0.0,0.0,0.0,0.0,0.0,0.0,0.0,0.0,0.0,0.0,0.0,0.0,0.0,0.0,0.0,0.0,0.0,0.0,0.0,0.0,0.0,0.0,0.0,0.0,0.0,0.0,0.0,0.0,0.0,0.0,0.0,0.0,0.0,0.0,0.0,0.0,0.0,0.0,0.0,0.0,0.0,0.0,0.0,0.0,0.0,0.0,0.0,0.0,0.0,0.0,0.0,0.0,0.0,0.0,0.0,0.0,0.0,0.0,0.0,0.0,0.0,0.0,0.0,0.0,0.0,0.0,0.0,0.0,0.0,0.0,0.0,0.0,0.0,0.0,0.0,0.0,0.0,0.0,0.0,0.0,0.0,0.0,0.0,0.0,0.0,0.0,0.0,0.0,0.0,2.1366,2.3198,2.4624,2.538,2.2418,2.0549,0.0,0.0,0.0,0.0,0.0,0.0,0.0,0.0,0.0,0.0,0.0,0.0,0.0,0.0,0.0,0.0,0.0,0.0,0.0,0.0,0.0,0.0,0.0,0.0,0.0,0.0,0.0,0.0,0.0,0.0,0.0,0.0,0.0,0.0,0.0,0.0,0.0,0.0,0.0,0.0,0.0,0.0,0.0,0.0,0.0,0.0,0.0,0.0,0.0,0.0,0.0,0.0,0.0,0.0,0.0,0.0,0.0,0.0,0.0,0.0,0.0,0.0,0.0,0.0,0.0,0.0,0.0,0.0,0.0,0.0,0.0,0.0,0.0,0.0,0.0,0.0,0.0,0.0,0.0,0.0,0.0,0.0,0.0,0.0,0.0,0.0,0.0,0.0,0.0,0.0,0.0,0.0,0.0,0.0,0.0,0.0,0.0,0.0,0.0,0.0,0.0,0.0,0.0,0.0,0.0,0.0,0.0,0.0,0.0,2.3864,2.5101,2.6025,2.6574,2.3175,2.1304,2.1224,0.0,0.0,0.0,0.0,0.0,0.0,0.0,0.0,0.0,0.0,0.0,0.0,0.0,0.0,0.0,0.0,0.0,0.0,0.0,0.0,0.0,0.0,0.0,0.0,0.0,0.0,0.0,0.0,0.0,0.0,0.0,0.0,0.0,0.0,0.0,0.0,0.0,0.0,0.0,0.0,0.0,0.0,0.0,0.0,0.0,0.0,0.0,0.0,0.0,0.0,0.0,0.0,0.0,0.0,0.0,0.0,0.0,0.0,0.0,0.0,0.0,0.0,0.0,0.0,0.0,0.0,0.0,0.0,0.0,0.0,0.0,0.0,0.0,0.0,0.0,0.0,0.0,0.0,0.0,0.0,0.0,0.0,0.0,0.0,0.0,0.0,0.0,0.0,0.0,0.0,0.0,0.0,0.0,0.0,0.0,0.0,0.0,0.0,0.0,0.0,0.0,0.0,0.0,0.0,0.0,0.0,0.0,0.0,2.9404,3.0208,2.9353,2.6795,2.4898,2.2582,0.0,0.0,0.0,0.0,0.0,0.0,0.0,0.0,0.0,0.0,0.0,0.0,0.0,0.0,0.0,0.0,0.0,0.0,0.0,0.0,0.0,0.0,0.0,0.0,0.0,0.0,0.0,0.0,0.0,0.0,0.0,0.0,0.0,0.0,0.0,0.0,0.0,0.0,0.0,0.0,0.0,0.0,0.0,0.0,0.0,0.0,0.0,0.0,0.0,0.0,0.0,0.0,0.0,0.0,0.0,0.0,0.0,0.0,0.0,0.0,0.0,0.0,0.0,0.0,0.0,0.0,0.0,0.0,0.0,0.0,0.0,0.0,0.0,0.0,0.0,0.0,0.0,0.0,0.0,0.0,0.0,0.0,0.0,0.0,0.0,0.0,0.0,0.0,0.0,0.0,0.0,0.0,0.0,0.0,0.0,0.0,0.0,0.0,0.0,0.0,0.0,0.0,0.0,0.0,0.0,0.0,0.0,0.0,0.0,3.112,3.1904,3.1565,3.0052,2.7652,2.5091,0.0,0.0,0.0,0.0,0.0,0.0,0.0,0.0,0.0,0.0,0.0,0.0,0.0,0.0,0.0,0.0,0.0,0.0,0.0,0.0,0.0,0.0,0.0,0.0,0.0,0.0,0.0,0.0,0.0,0.0,0.0,0.0,0.0,0.0,0.0,0.0,0.0,0.0,0.0,0.0,0.0,0.0,0.0,0.0,0.0,0.0,0.0,0.0,0.0,0.0,0.0,0.0,0.0,0.0,0.0,0.0,0.0,0.0,0.0,0.0,0.0,0.0,0.0,0.0,0.0,0.0,0.0,0.0,0.0,0.0,0.0,0.0,0.0,0.0,0.0,0.0,0.0,0.0,0.0,0.0,0.0,0.0,0.0,0.0,0.0,0.0,0.0,0.0,0.0,0.0,0.0,0.0,0.0,0.0,0.0,0.0,0.0,0.0,0.0,0.0,0.0,0.0,0.0,0.0,0.0,0.0,0.0,0.0,3.0327,3.2847,3.4174,3.4174,3.2778,2.9886,2.6892,0.0,0.0,0.0,0.0,0.0,0.0,0.0,0.0,0.0,0.0,0.0,0.0,0.0,0.0,0.0,0.0,0.0,0.0,0.0,0.0,0.0,0.0,0.0,0.0,0.0,0.0,0.0,0.0,0.0,0.0,0.0,0.0,0.0,0.0,0.0,0.0,0.0,0.0,0.0,0.0,0.0,0.0,0.0,0.0,0.0,0.0,0.0,0.0,0.0,0.0,0.0,0.0,0.0,0.0,0.0,0.0,0.0,0.0,0.0,0.0,0.0,0.0,0.0,0.0,0.0,0.0,0.0,0.0,0.0,0.0,0.0,0.0,0.0,0.0,0.0,0.0,0.0,0.0,0.0,0.0,0.0,0.0,0.0,0.0,0.0,0.0,0.0,0.0,0.0,0.0,0.0,0.0,0.0,0.0,0.0,0.0,0.0,0.0,0.0,0.0,0.0,0.0,0.0,0.0,0.0,0.0,0.0,0.0,3.2067,3.4505,3.6487,3.6635,3.4849,3.1693,2.8258,0.0,0.0,0.0,0.0,0.0,0.0,0.0,0.0,0.0,0.0,0.0,0.0,0.0,0.0,0.0,0.0,0.0,0.0,0.0,0.0,0.0,0.0,0.0,0.0,0.0,0.0,0.0,0.0,0.0,0.0,0.0,0.0,0.0,0.0,0.0,0.0,0.0,0.0,0.0,0.0,0.0,0.0,0.0,0.0,0.0,0.0,0.0,0.0,0.0,0.0,0.0,0.0,0.0,0.0,0.0,0.0,0.0,0.0,0.0,0.0,0.0,0.0,0.0,0.0,0.0,0.0,0.0,0.0,0.0,0.0,0.0,0.0,0.0,0.0,0.0,0.0,0.0,0.0,0.0,0.0,0.0,0.0,0.0,0.0,0.0,0.0,0.0,0.0,0.0,0.0,0.0,0.0,0.0,0.0,0.0,0.0,0.0,0.0,0.0,0.0,0.0,0.0,0.0,0.0,0.0,0.0,0.0,0.0,3.3724,3.62,3.708,3.692,3.5738,3.2895,2.9727,0.0,0.0,0.0,0.0,0.0,0.0,0.0,0.0,0.0,0.0,0.0,0.0,0.0,0.0,0.0,0.0,0.0,0.0,0.0,0.0,0.0,0.0,0.0,0.0,0.0,0.0,0.0,0.0,0.0,0.0,0.0,0.0,0.0,0.0,0.0,0.0,0.0,0.0,0.0,0.0,0.0,0.0,0.0,0.0,0.0,0.0,0.0,0.0,1.7285,0.0,0.0,0.0,0.0,0.0,0.0,0.0,0.0,0.0,0.0,0.0,0.0,0.0,0.0,0.0,0.0,0.0,0.0,0.0,0.0,0.0,0.0,0.0,0.0,0.0,0.0,0.0,0.0,0.0,0.0,0.0,0.0,0.0,0.0,0.0,0.0,0.0,0.0,0.0,0.0,0.0,0.0,0.0,0.0,0.0,0.0,0.0,0.0,0.0,0.0,0.0,0.0,0.0,0.0,0.0,0.0,0.0,0.0,0.0,3.4822,3.7305,3.8099,3.7883,3.6549,3.4064,3.0803,0.0,0.0,0.0,0.0,0.0,0.0,0.0,0.0,0.0,0.0,0.0,0.0,0.0,0.0,0.0,0.0,0.0,0.0,0.0,0.0,0.0,0.0,0.0,0.0,0.0,0.0,0.0,0.0,0.0,0.0,0.0,0.0,0.0,0.0,0.0,0.0,0.0,0.0,0.0,0.0,0.0,0.0,0.0,0.0,0.0,0.0,0.0,0.0,0.0,0.0,0.0,0.0,0.0,0.0,0.0,0.0,0.0,0.0,0.0,0.0,0.0,0.0,0.0,0.0,0.0,0.0,0.0,0.0,0.0,0.0,0.0,0.0,0.0,0.0,0.0,0.0,0.0,0.0,0.0,0.0,0.0,0.0,0.0,0.0,0.0,0.0,0.0,0.0,0.0,0.0,0.0,0.0,0.0,0.0,0.0,0.0,0.0,0.0,0.0,0.0,0.0,0.0,0.0,0.0,0.0,0.0,0.0,3.28,3.5556,3.8108,3.9105,3.8829,3.723,3.4996,3.1616,2.7098,0.0,0.0,0.0,0.0,0.0,0.0,0.0,0.0,0.0,0.0,0.0,0.0,0.0,0.0,0.0,0.0,0.0,0.0,0.0,0.0,0.0,0.0,0.0,0.0,0.0,0.0,0.0,0.0,0.0,0.0,0.0,0.0,0.0,0.0,0.0,0.0,0.0,0.0,1.5173,1.7404,0.0,0.0,0.0,0.0,0.0,0.0,0.0,0.0,1.8848,0.0,0.0,0.0,0.0,0.0,0.0,0.0,0.0,0.0,0.0,0.0,0.0,0.0,0.0,0.0,0.0,0.0,0.0,0.0,0.0,0.0,0.0,0.0,0.0,0.0,0.0,0.0,0.0,0.0,0.0,0.0,0.0,0.0,0.0,0.0,0.0,0.0,0.0,0.0,0.0,0.0,0.0,0.0,0.0,0.0,0.0,0.0,0.0,0.0,0.0,0.0,0.0,0.0,0.0,0.0,0.0,3.2377,3.3623,3.5814,3.9008,3.9429,3.8848,3.7209,3.4996,3.2033,2.8318,0.0,0.0,0.0,0.0,0.0,0.0,0.0,0.0,0.0,0.0,0.0,0.0,0.0,0.0,0.0,0.0,0.0,0.0,0.0,0.0,0.0,0.0,0.0,0.0,0.0,0.0,0.0,0.0,0.0,0.0,0.0,0.0,0.0,0.0,0.0,0.0,0.0,0.0,0.0,2.2549,2.4068,0.0,0.0,0.0,0.0,0.0,0.0,0.0,0.0,1.872,0.0,0.0,0.0,0.0,0.0,0.0,0.0,0.0,0.0,0.0,0.0,0.0,0.0,0.0,0.0,0.0,0.0,0.0,0.0,0.0,0.0,0.0,0.0,0.0,0.0,0.0,0.0,0.0,0.0,0.0,0.0,0.0,0.0,0.0,0.0,0.0,0.0,0.0,0.0,0.0,0.0,0.0,0.0,0.0,0.0,0.0,0.0,0.0,0.0,0.0,0.0,0.0,0.0,0.0,0.0,3.284,3.4683,3.6922,3.9781,3.9715,3.8848,3.7209,3.4049,3.0883,0.0,0.0,0.0,0.0,0.0,0.0,0.0,0.0,0.0,0.0,0.0,0.0,0.0,0.0,0.0,0.0,0.0,0.0,0.0,0.0,0.0,0.0,0.0,0.0,0.0,0.0,0.0,0.0,0.0,0.0,0.0,0.0,0.0,0.0,0.0,0.0,0.0,0.0,0.0,0.0,2.3945,2.5078,2.609,0.0,0.0,0.0,0.0,0.0,0.0,2.1186,2.0038,0.0,0.0,0.0,0.0,0.0,0.0,0.0,0.0,0.0,0.0,0.0,0.0,0.0,0.0,0.0,0.0,0.0,0.0,0.0,0.0,0.0,0.0,0.0,0.0,0.0,0.0,0.0,0.0,0.0,0.0,0.0,0.0,0.0,0.0,0.0,0.0,0.0,0.0,0.0,0.0,0.0,0.0,0.0,0.0,0.0,0.0,0.0,0.0,0.0,0.0,0.0,0.0,0.0,0.0,0.0,3.2968,3.5326,3.7747,4.0255,3.9903,3.8807,3.7103,3.3506,3.0106,0.0,0.0,0.0,0.0,0.0,0.0,0.0,0.0,0.0,0.0,0.0,0.0,0.0,0.0,0.0,0.0,0.0,0.0,0.0,0.0,0.0,0.0,0.0,0.0,0.0,0.0,0.0,0.0,0.0,0.0,0.0,0.0,0.0,0.0,0.0,0.0,0.0,0.0,0.0,0.0,0.0,2.6294,2.8076,2.6348,0.0,0.0,0.0,0.0,2.435,2.3868,0.0,0.0,0.0,0.0,0.0,0.0,0.0,0.0,0.0,0.0,0.0,0.0,0.0,0.0,0.0,0.0,0.0,0.0,0.0,0.0,0.0,0.0,0.0,0.0,0.0,0.0,0.0,0.0,0.0,0.0,0.0,0.0,0.0,0.0,0.0,0.0,0.0,0.0,0.0,0.0,0.0,0.0,0.0,0.0,0.0,0.0,0.0,0.0,0.0,0.0,0.0,0.0,0.0,0.0,0.0,0.0,3.2938,3.4768,3.7094,3.9967,3.9797,3.8691,3.6814,3.4626,3.1409,0.0,0.0,0.0,0.0,0.0,0.0,0.0,0.0,0.0,0.0,0.0,0.0,0.0,0.0,0.0,0.0,0.0,0.0,0.0,0.0,0.0,0.0,0.0,0.0,0.0,0.0,0.0,0.0,0.0,0.0,0.0,0.0,0.0,0.0,0.0,0.0,0.0,0.0,0.0,0.0,0.0,3.0408,2.9315,2.8195,2.7699,0.0,0.0,2.7763,2.9378,2.95,0.0,0.0,0.0,0.0,0.0,0.0,0.0,0.0,0.0,0.0,0.0,0.0,0.0,0.0,0.0,0.0,0.0,0.0,0.0,0.0,0.0,0.0,0.0,0.0,0.0,0.0,0.0,0.0,0.0,0.0,0.0,0.0,0.0,0.0,0.0,0.0,0.0,0.0,0.0,0.0,0.0,0.0,0.0,0.0,0.0,0.0,0.0,0.0,0.0,0.0,0.0,0.0,0.0,0.0,0.0,2.8447,3.2948,3.5417,3.7736,3.9986,3.9599,3.8471,3.6739,3.3802,3.041,0.0,0.0,0.0,0.0,0.0,0.0,0.0,0.0,0.0,0.0,0.0,0.0,0.0,0.0,0.0,0.0,0.0,0.0,0.0,0.0,0.0,0.0,0.0,0.0,0.0,0.0,0.0,0.0,0.0,0.0,0.0,0.0,0.0,0.0,0.0,0.0,0.0,0.0,0.0,0.0,0.0,0.0,3.1398,3.1053,0.0,0.0,0.0,3.1009,3.1789,0.0,0.0,0.0,0.0,0.0,0.0,0.0,0.0,0.0,0.0,0.0,0.0,0.0,0.0,0.0,0.0,0.0,0.0,0.0,0.0,0.0,0.0,0.0,0.0,0.0,0.0,0.0,0.0,0.0,0.0,0.0,0.0,0.0,0.0,0.0,0.0,0.0,0.0,0.0,0.0,0.0,0.0,0.0,0.0,0.0,0.0,0.0,0.0,0.0,0.0,0.0,0.0,0.0,0.0,0.0,0.0,0.0,3.2953,3.5965,3.8301,3.9905,3.9389,3.8308,3.6604,3.3385,0.0,0.0,0.0,0.0,0.0,0.0,0.0,0.0,0.0,0.0,0.0,0.0,0.0,0.0,0.0,0.0,0.0,0.0,0.0,0.0,0.0,0.0,0.0,0.0,0.0,0.0,0.0,1.1151,0.0,0.0,0.0,0.0,0.0,0.0,0.0,0.0,0.0,0.0,0.0,0.0,0.0,0.0,3.1283,3.3526,3.4021,3.4337,0.0,0.0,3.4507,3.4564,3.4391,3.2499,0.0,0.0,0.0,0.0,0.0,0.0,0.0,0.0,0.0,0.0,0.0,0.0,0.0,0.0,0.0,0.0,0.0,0.0,0.0,0.0,0.0,0.0,0.0,0.0,0.0,0.0,0.0,0.0,0.0,0.0,0.0,0.0,0.0,0.0,0.0,0.0,0.0,0.0,0.0,0.0,0.0,0.0,0.0,0.0,0.0,0.0,0.0,0.0,0.0,0.0,0.0,0.0,0.0,0.0,2.8786,3.2919,3.5965,3.8188,3.9566,3.9289,3.821,3.636,3.4559,3.0936,0.0,0.0,0.0,0.0,0.0,0.0,0.0,0.0,0.0,0.0,0.0,0.0,0.0,0.0,0.0,0.0,0.0,0.0,0.0,0.0,0.0,0.0,0.0,0.0,0.0,0.0,0.0,0.0,0.0,0.0,0.0,0.0,0.0,0.0,0.0,0.0,0.0,0.0,0.0,0.0,0.0,3.4351,3.5388,3.6746,3.8214,0.0,3.9354,3.8873,3.8854,4.0104,3.8604,3.1256,0.0,0.0,0.0,0.0,0.0,0.0,0.0,0.0,0.0,0.0,0.0,0.0,0.0,0.0,0.0,0.0,0.0,0.0,0.0,0.0,0.0,0.0,0.0,0.0,0.0,0.0,0.0,0.0,0.0,0.0,0.0,0.0,0.0,0.0,0.0,0.0,0.0,0.0,0.0,0.0,0.0,0.0,0.0,0.0,0.0,0.0,0.0,0.0,0.0,0.0,0.0,0.0,0.0,2.823,3.2881,3.5776,3.7995,3.95,3.9127,3.8011,3.6321,3.4669,3.1579,0.0,0.0,0.0,0.0,0.0,0.0,0.0,0.0,0.0,0.0,0.0,0.0,0.0,0.0,0.0,0.0,0.0,0.0,0.0,0.0,0.0,0.0,0.0,0.0,0.0,0.0,0.0,0.0,1.6162,1.6303,1.4895,0.0,0.0,0.0,0.0,0.0,0.0,0.0,0.0,0.0,0.0,3.5834,3.77,3.9333,0.0,0.0,4.1489,4.1643,4.1662,4.0412,3.7911,3.3455,3.0287,0.0,0.0,0.0,0.0,0.0,0.0,0.0,0.0,0.0,0.0,0.0,0.0,0.0,0.0,0.0,0.0,0.0,0.0,0.0,0.0,0.0,0.0,0.0,0.0,0.0,0.0,0.0,0.0,0.0,0.0,0.0,0.0,0.0,0.0,0.0,0.0,0.0,0.0,0.0,0.0,0.0,0.0,0.0,0.0,0.0,0.0,0.0,0.0,0.0,0.0,0.0,0.0,2.7854,3.2843,3.5681,3.7901,3.9542,3.9008,3.8046,3.6688,3.5055,3.2284,0.0,0.0,0.0,0.0,0.0,0.0,0.0,0.0,0.0,0.0,0.0,0.0,0.0,0.0,0.0,0.0,0.0,0.0,0.0,0.0,0.0,0.0,0.0,0.0,0.0,0.0,0.0,0.0,1.6824,1.6341,1.4639,0.0,0.0,0.0,0.0,0.0,0.0,0.0,0.0,0.0,0.0,3.7646,3.9826,4.1325,4.2266,4.2527,4.2412,4.2393,4.2665,4.0684,3.8104,3.5085,0.0,0.0,0.0,0.0,0.0,0.0,0.0,0.0,0.0,0.0,0.0,0.0,0.0,0.0,0.0,0.0,0.0,0.0,0.0,0.0,0.0,0.0,0.0,0.0,0.0,0.0,0.0,1.3812,0.0,0.0,1.2349,0.0,0.0,0.0,0.0,0.0,0.0,0.0,0.0,0.0,0.0,0.0,0.0,0.0,0.0,0.0,0.0,0.0,0.0,0.0,0.0,0.0,0.0,2.7873,3.2824,3.5661,3.7901,3.9519,3.9027,3.8303,3.747,3.5844,3.3065,2.903,0.0,0.0,0.0,0.0,0.0,0.0,0.0,0.0,0.0,0.0,0.0,0.0,0.0,0.0,0.0,0.0,0.0,0.0,0.0,0.0,0.0,0.0,0.0,0.0,0.0,0.0,1.6418,1.5779,1.4678,0.0,0.0,0.0,0.0,0.0,0.0,0.0,0.0,0.0,3.2664,3.6797,4.0013,4.1596,4.2547,4.3333,4.4105,4.22,4.0931,4.1835,4.1758,4.0315,0.0,0.0,0.0,0.0,0.0,0.0,0.0,0.0,0.0,0.0,0.0,0.0,0.0,0.0,0.0,0.0,0.0,0.0,0.0,0.0,0.0,0.0,0.0,0.0,0.0,0.0,0.0,1.8536,1.6851,0.0,0.0,0.0,0.0,0.0,0.0,0.0,0.0,0.0,0.0,0.0,2.5755,2.7551,0.0,0.0,0.0,0.0,0.0,0.0,0.0,0.0,0.0,0.0,0.0,0.0,2.7835,3.2771,3.5661,3.7901,3.9519,3.9008,3.8322,3.7526,3.5881,3.2609,2.7565,0.0,0.0,0.0,0.0,0.0,0.0,0.0,0.0,0.0,0.0,0.0,0.0,0.0,0.0,0.0,0.0,0.0,0.0,0.0,0.0,0.0,0.0,0.0,0.0,0.0,1.6187,0.0,0.0,0.0,0.0,0.0,0.0,0.0,0.0,0.0,0.0,0.0,3.1592,3.5151,3.8331,4.0888,4.2456,4.3393,4.4198,0.0,0.0,0.0,0.0,0.0,0.0,0.0,0.0,0.0,0.0,0.0,0.0,0.0,0.0,3.7402,2.9544,2.75,2.7441,2.8867,0.0,0.0,0.0,0.0,0.0,0.0,0.0,0.0,0.0,0.0,0.0,0.0,0.0,0.0,2.1596,2.0359,1.9665,0.0,0.0,0.0,0.0,0.0,0.0,0.0,0.0,2.7828,2.9794,3.0264,3.1738,3.12,0.0,2.9107,2.6127,0.0,0.0,0.0,0.0,0.0,0.0,0.0,0.0,2.886,3.3236,3.6099,3.8197,3.95,3.9007,3.845,3.79,3.6028,3.3012,2.8828,2.6609,2.4449,0.0,0.0,0.0,0.0,0.0,0.0,0.0,0.0,0.0,0.0,0.0,0.0,0.0,0.0,0.0,0.0,0.0,0.0,0.0,0.0,0.0,0.0,0.0,1.7151,0.0,0.0,0.0,0.0,0.0,0.0,0.0,0.0,0.0,2.8433,3.1795,3.5341,3.8585,4.0751,4.2381,4.3393,0.0,0.0,0.0,0.0,0.0,0.0,0.0,4.1755,4.2537,4.1331,4.03,4.0569,4.2722,4.3972,4.2558,0.0,0.0,3.5661,3.3647,3.3574,3.5,3.5742,3.6289,3.6875,3.8125,3.9062,0.0,0.0,0.0,0.0,0.0,0.0,0.0,0.0,2.3919,2.3927,0.0,2.2848,0.0,0.0,0.0,0.0,2.1609,2.6165,0.0,0.0,3.2582,3.4108,3.3888,3.396,3.3538,3.2901,3.4529,3.2901,2.8079,2.2938,0.0,0.0,0.0,0.0,0.0,0.0,3.0852,3.4169,3.6879,3.87,3.9526,3.8995,3.8689,3.8579,3.6303,3.4257,3.2588,2.96,2.7173,2.5494,2.1641,0.0,0.0,0.0,0.0,0.0,0.0,0.0,0.0,0.0,0.0,0.0,0.0,0.0,0.0,0.0,0.0,0.0,0.0,0.0,0.0,1.85,0.0,0.0,0.0,0.0,0.0,0.0,0.0,0.0,0.0,0.0,3.2402,3.5804,3.9572,4.271,0.0,0.0,0.0,0.0,4.4701,4.5586,4.4316,4.3874,4.547,4.5605,4.5257,4.4556,0.0,0.0,4.3778,4.5393,4.6259,4.3835,4.4972,4.5935,4.5765,4.3485,4.2324,4.3144,4.2207,4.1992,4.3418,4.416,4.5058,3.2614,0.0,0.0,0.0,0.0,2.8407,2.9609,3.1865,3.1084,2.9904,2.8493,2.8001,0.0,0.0,0.0,0.0,0.0,0.0,3.0667,3.1932,3.4,3.5496,3.6455,3.7028,3.6882,3.6115,3.6083,3.5114,3.3226,3.0752,2.679,2.1564,0.0,0.0,0.0,0.0,3.2237,3.4749,3.7105,3.8625,3.9219,3.8902,3.8432,3.7826,3.6597,3.5147,3.3513,3.2015,2.9953,2.721,2.4894,0.0,0.0,0.0,0.0,0.0,0.0,0.0,0.0,0.0,0.0,0.0,0.0,0.0,0.0,0.0,0.0,0.0,0.0,0.0,1.7529,1.8472,1.9058,0.0,0.0,0.0,0.0,0.0,0.0,0.0,0.0,0.0,3.9562,4.0372,4.1357,0.0,0.0,4.4587,4.5143,4.574,4.6451,4.7278,4.6971,0.0,4.7298,4.6374,4.593,4.6854,4.7952,4.8625,4.8529,4.9125,4.9375,4.8567,4.8952,4.9315,4.9131,4.6935,4.5423,4.6016,4.5976,4.6113,4.7148,4.7637,4.7851,3.8318,3.4477,3.2655,3.2643,3.3754,3.3301,3.4378,3.6407,3.5601,3.4807,3.3982,3.3047,3.1151,2.8616,2.7672,0.0,0.0,0.0,3.3904,3.5713,3.6676,3.776,3.8909,3.9423,3.941,3.8889,3.8108,3.7382,3.6685,3.581,3.2619,2.7434,0.0,0.0,2.8898,3.2066,3.448,3.6186,3.7913,3.8995,3.9296,3.8925,3.8469,3.7973,3.7202,3.6138,3.4816,3.3698,3.2033,2.9789,2.7556,2.4953,0.0,0.0,0.0,0.0,0.0,0.0,0.0,0.0,0.0,0.0,0.0,1.54,1.2397,0.0,0.0,0.0,1.785,1.9761,2.1101,2.229,0.0,0.0,0.0,0.0,0.0,0.0,0.0,3.6197,3.8991,4.156,4.4227,4.4434,4.4487,4.5009,4.5491,4.5991,4.6509,0.0,4.7682,4.849,4.8625,4.874,4.9067,4.8279,4.7971,4.8952,4.9548,5.0048,5.0567,5.0683,5.0683,5.0683,5.0683,5.0683,5.0683,4.9183,4.8153,4.873,4.8965,4.9219,4.9785,4.9883,4.9902,4.2972,4.1335,3.8227,3.7253,3.7775,3.7775,3.8214,3.882,3.8118,3.8596,3.9698,3.7558,3.6205,3.5436,3.3309,0.0,3.5692,3.6361,3.7868,3.997,3.9995,4.0406,4.1095,4.1103,4.1115,4.106,4.0359,3.9606,3.8903,3.8644,3.742,3.522,3.4107,3.3834,3.4376,3.6022,3.7276,3.8028,3.9071,3.9577,3.9534,3.8995,3.867,3.8579,3.7808,3.7,3.6174,3.4633,3.3386,3.2456,2.9625,2.7244,2.55,0.0,0.0,0.0,0.0,0.0,0.0,0.0,0.0,0.0,0.0,0.0,0.0,0.0,0.0,0.0,2.3745,0.0,2.6734,2.825,0.0,0.0,0.0,3.0059,3.1167,3.4079,3.7268,4.0527,0.0,0.0,4.6894,4.7798,4.8298,4.8298,4.8259,4.8221,4.8202,4.8279,4.8586,4.9394,4.951,4.9779,5.0394,5.0452,5.0394,5.051,5.0683,5.0664,5.0683,5.0683,5.0683,5.0683,5.0683,5.0683,5.0683,5.0664,5.0945,5.0937,5.1055,5.1152,5.123,5.125,5.123,4.3722,4.3296,4.2519,4.1447,4.0244,4.027,4.0341,4.0504,4.0312,4.0105,3.9863,3.929,3.8611,3.7886,3.7923,3.8283,3.8835,3.9595,4.0257,4.0822,4.0811,4.0909,4.1126,4.1095,4.1113,4.1095,4.0918,4.0726,4.0556,4.0736,4.0664,4.0278,3.9616,3.7938,3.5374,3.7502,3.8535,3.8235,3.9129,3.9368,3.8903,3.8762,3.8414,3.779,3.7,3.6174,3.532,3.4357,3.314,3.1755,3.0367,2.8615,2.6381,2.1784,0.0,0.0,0.0,0.0,0.0,0.0,0.0,0.0,0.0,2.1637,1.6581,0.0,2.41,0.0,2.7198,2.9002,2.8554,2.9476,0.0,0.0,3.3269,3.4616,3.8604,3.9804,4.1341,4.4066,4.6026,4.7622,4.8663,4.9548,5.0087,5.0067,4.949,4.9087,4.9106,4.9663,5.0144,5.0317,5.0356,5.0452,5.0644,5.0683,5.0683,5.0683,5.0683,5.0683,5.0683,5.0683,5.0683,5.0683,5.0683,5.0683,5.0683,5.0721,5.0817,5.1048,5.1147,5.1211,5.125,5.1328,5.1387,4.473,4.4178,4.5043,4.4393,4.2832,4.2805,4.2864,4.2848,4.2739,4.2472,4.2011,4.1275,4.0507,3.9827,4.023,4.0634,4.0983,4.1438,4.1824,4.2158,4.2184,4.2187,4.2187,4.2187,4.2187,4.215,4.1779,4.1644,4.1658,4.1612,4.1781,4.207,4.1934,4.0847,3.8984,3.9503,3.9762,3.9631,3.9452,3.9147,3.8738,3.8707,3.8322,3.7544,3.7055,3.6083,3.4541,3.4037,3.304,3.1498,3.065,2.9434,2.7698,2.4154,2.2057,0.0,0.0,0.0,0.0,0.0,0.0,0.0,0.0,0.0,0.0,0.0,2.7304,2.8088,3.1225,3.3323,3.3615,3.4759,3.6402,3.8637,3.8762,3.9991,4.3143,4.3835,4.4913,4.7048,4.8105,4.9009,4.9856,5.0394,5.0683,5.0683,5.0279,4.9952,5.001,5.0414,5.0683,5.0683,5.0683,5.0683,5.0683,5.0683,5.0683,5.0683,5.0683,5.0683,5.0683,5.0683,5.0683,5.0683,5.0683,5.0683,5.0683,5.0683,5.076,5.095,5.1078,5.1176,5.1269,5.1328,5.1387,4.5597,4.4624,4.6314,4.6321,4.5191,4.5258,4.5253,4.5108,4.4912,4.4871,4.4782,4.3351,4.2323,4.1589,4.1589,4.1882,4.2451,4.2445,4.2831,4.3461,4.3479,4.3479,4.3479,4.3479,4.3479,4.3461,4.28,4.2451,4.2433,4.2032,4.1997,4.2341,4.2524,4.2862,4.3265,4.1678,4.1037,4.1375,3.9949,3.9087,3.8854,3.8762,3.8267,3.7386,3.7239,3.6064,3.377,3.3643,3.2958,3.1485,3.0827,3.0167,2.93,2.7025,2.5522,0.0,2.3512,0.0,0.0,0.0,0.0,0.0,0.0,0.0,0.0,2.9702,3.1096,3.2385,3.5647,3.8246,3.965,4.131,4.2621,4.3496,4.4201,4.5002,4.5969,4.6778,4.7836,4.9375,4.9567,4.9856,5.0548,5.0683,5.0683,5.0683,5.0664,5.0606,5.0664,5.0664,5.0683,5.0683,5.0683,5.0683,5.0683,5.0683,5.0683,5.0683,5.0683,5.0683,5.0683,5.0683,5.0683,5.0683,5.0683,5.0683,5.0683,5.0721,5.076,5.0914,5.1029,5.117,5.1308,5.1387,5.1387,4.551,4.532,4.6171,4.6344,4.6209,4.6739,4.6458,4.5716,4.5661,4.5681,4.5645,4.5368,4.4762,4.4048,4.403,4.3754,4.3277,4.3293,4.3348,4.3479,4.3479,4.3479,4.3479,4.3479,4.3479,4.3479,4.3351,4.3277,4.3259,4.3162,4.3296,4.3631,4.3321,4.3678,4.4587,0.0,0.0,0.0,4.051,3.9737,3.9643,3.9038,3.801,3.6578,3.5844,0.0,3.2963,3.2831,3.2383,3.1492,3.1881,0.0,0.0,0.0,0.0,0.0,0.0,0.0,0.0,0.0,0.0,0.0,3.2637,3.1768,3.1197,3.5499,3.7926,3.7025,4.0496,4.2725,4.2426,4.3893,4.5238,4.6088,4.6309,4.6995,4.847,4.8817,4.9337,5.0298,5.0452,5.051,5.0644,5.0683,5.0683,5.0683,5.0683,5.0683,5.0683,5.0683,5.0683,5.0683,5.0683,5.0683,5.0683,5.0683,5.0683,5.0683,5.0683,5.0683,5.0683,5.0683,5.0683,5.0683,5.0683,5.0683,5.0683,5.076,5.0875,5.1029,5.1142,5.1203,5.123,5.1328,5.1387,4.5511,4.5614,4.6478,4.691,0.0,4.7569,4.7557,4.7076,4.6669,4.6283,4.5882,4.5902,4.5681,4.5296,4.5296,4.5057,4.469,4.4667,4.4465,4.4081,4.4081,4.3897,4.3479,4.3479,4.3479,4.3479,4.3479,4.3479,4.3479,4.3479,4.366,4.4016,4.396,4.4334,4.5051,4.4263,4.3282,4.2103,4.1027,4.0492,4.0469,3.9698,3.8726,3.7514,3.667,0.0,0.0,0.0,0.0,0.0,0.0,0.0,0.0,0.0,0.0,3.1977,3.1336,3.1464,3.2788,3.3646,3.5063,3.7185,3.8505,3.8488,3.6824,3.9832,4.1944,4.242,4.4386,4.5569,4.5592,4.632,4.7182,4.801,4.8142,4.8641,4.9798,5.0048,5.0221,5.0587,5.0683,5.0683,5.0683,5.0683,5.0683,5.0683,5.0683,5.0683,5.0683,5.0683,5.0683,5.0683,5.0683,5.0683,5.0683,5.0683,5.0683,5.0683,5.0683,5.0683,5.0683,5.0683,5.0683,5.0683,5.0683,5.0683,5.0702,5.0818,5.0932,5.1064,5.1155,5.1223,5.1289,5.1348,5.1387,4.5833,4.5933,4.7062,4.7572,4.7614,4.8075,4.8324,4.8269,4.7606,0.0,0.0,4.6341,4.625,4.6104,4.6122,4.603,4.5883,4.5915,4.5563,4.4941,4.4904,4.4573,4.3952,4.3918,4.3862,4.3734,4.3699,4.3626,4.3479,4.3479,4.3679,4.403,4.4391,4.4786,4.5053,4.4691,4.38,4.2491,4.1716,4.1311,4.1313,4.0524,3.9717,3.8927,3.7991,3.6468,3.4339,3.4109,3.342,3.2152,3.2318,3.2785,3.3424,3.365,3.4606,3.6408,3.7291,3.8004,3.865,4.0096,4.0877,4.0622,4.3321,4.4345,4.2794,4.3478,4.4833,4.6943,4.7257,4.7625,4.826,4.8491,4.8856,4.9567,4.9644,4.9913,5.0587,5.0683,5.0664,5.0683,5.0683,5.0683,5.0683,5.0683,5.0683,5.0683,5.0683,5.0683,5.0683,5.0683,5.0683,5.0683,5.0683,5.0683,5.0683,5.0683,5.0683,5.0683,5.0683,5.0683,5.0683,5.0683,5.0683,5.0683,5.0683,5.0702,5.0741,5.0837,5.0966,5.1108,5.1192,5.127,5.1367,5.1387,5.1387,4.7088,4.7212,4.7897,4.8172,4.8172,4.8267,4.8324,4.8306,4.8176,4.8066,4.7974,4.7956,4.759,4.6948,4.6948,4.6562,4.5902,4.5901,4.5846,4.5754,4.5713,4.5653,4.5579,4.5551,4.5185,4.4557,4.4524,4.4176,4.3552,4.3497,4.3679,4.3999,4.4391,4.4786,4.5017,4.4428,4.3966,4.3716,4.266,4.213,4.2121,4.1368,4.0561,3.9717,3.8303,3.7019,3.5991,3.5269,3.4729,3.4547,3.586,3.6698,3.6846,3.7682,3.8527,3.9052,3.9464,4.0156,4.1204,4.2181,4.3643,4.5645,4.6896,4.7165,4.632,4.6933,4.7548,4.7951,4.8586,4.9086,4.926,4.9856,5.0279,5.0452,5.051,5.0587,5.0683,5.0683,5.0683,5.0683,5.0683,5.0683,5.0683,5.0683,5.0683,5.0702,5.0721,5.0683,5.0683,5.0683,5.0683,5.0683,5.0683,5.0683,5.0683,5.0683,5.0683,5.0683,5.0683,5.0683,5.0683,5.0683,5.0683,5.0683,5.0683,5.0721,5.0818,5.0972,5.1067,5.1172,5.1277,5.1377,5.1387,5.1387,5.1387,4.7044,4.7428,4.7715,4.7995,4.8324,4.8324,4.8324,4.8324,4.8324,4.8324,4.8324,4.8324,4.8104,4.7774,4.7774,4.7572,4.7205,4.7205,4.6965,4.6561,4.6544,4.6342,4.592,4.5901,4.5736,4.5389,4.5333,4.4947,4.4232,4.4158,4.4103,4.4042,4.4591,4.4842,4.4804,4.4512,4.4118,4.3734,4.3206,4.2949,4.2928,4.2176,4.1589,4.1203,4.0047,3.9093,3.8267,3.7874,3.7461,3.6999,3.7729,3.836,3.8793,3.9289,3.9984,4.089,4.1973,4.2942,4.3799,4.5086,4.651,4.8106,4.8606,4.8875,4.8952,4.8856,4.899,4.9452,4.9894,5.0087,5.0125,5.0471,5.0683,5.0683,5.0683,5.0683,5.0683,5.0683,5.0683,5.0683,5.0683,5.0683,5.0683,5.0683,5.0721,5.0779,5.0818,5.0779,5.0721,5.0683,5.0683,5.0683,5.0683,5.0683,5.0683,5.0683,5.0683,5.0683,5.0683,5.0683,5.0683,5.0683,5.0683,5.0683,5.0683,5.076,5.0895,5.0993,5.1106,5.1182,5.1309,5.1382,5.1387,5.1387,5.1387,4.7132,4.7614,4.7632,4.7897,4.8324,4.8324,4.8324,4.8324,4.8324,4.8324,4.8324,4.8324,4.8324,4.8324,4.8324,4.8306,4.8324,4.8324,4.7956,4.7421,4.7366,4.7035,4.6501,4.6446,4.6373,4.6209,4.6176,4.5773,4.5057,4.4966,4.489,4.4736,4.5262,4.5304,4.4848,4.472,4.4244,4.3534,4.3479,4.3479,4.3461,4.2892,4.258,4.2525,4.1791,4.1075,4.0469,4.0257,3.986,3.9294,3.9401,3.9899,4.065,4.1048,4.1808,4.3152,4.4567,4.5707,4.6454,4.7644,4.8759,4.9625,4.9702,4.9971,5.0529,5.0087,4.9952,5.0567,5.0625,5.0664,5.0644,5.0664,5.0683,5.0683,5.0683,5.0683,5.0683,5.0683,5.0702,5.0721,5.0741,5.0741,5.0779,5.0798,5.0834,5.0937,5.0945,5.0895,5.0798,5.0779,5.0779,5.076,5.0741,5.0683,5.0683,5.0683,5.0683,5.0683,5.0683,5.0683,5.0683,5.0683,5.0702,5.0721,5.0741,5.0818,5.0933,5.1064,5.1153,5.1236,5.1323,5.1387,5.1387,5.1387,5.1387,4.8172,4.821,4.8172,4.8249,4.8306,4.8324,4.8324,4.8324,4.8324,4.8324,4.8324,4.8324,4.8324,4.8324,4.8324,4.8324,4.8324,4.8324,4.8269,4.8157,4.8176,4.8139,4.8011,4.8047,4.7697,4.7071,4.6983,4.6581,4.581,4.5791,4.6071,4.6641,4.6793,4.6417,4.5722,4.5036,4.4336,4.3516,4.3479,4.3479,4.3479,4.3406,4.3387,4.3369,4.2616,4.2176,4.2066,4.1387,4.0965,4.0928,4.1614,4.2335,4.3158,4.4475,4.5601,4.6418,4.728,4.8145,4.8933,4.9201,4.9663,5.0452,5.0529,5.0567,5.0683,5.0606,5.0587,5.0683,5.0683,5.0683,5.0683,5.0683,5.0683,5.0683,5.0683,5.0683,5.0683,5.0683,5.0741,5.0856,5.0875,5.0933,5.1009,5.1029,5.1063,5.106,5.1047,5.1059,5.1022,5.1008,5.1028,5.101,5.0875,5.0721,5.0721,5.0683,5.0702,5.0702,5.0702,5.0721,5.0721,5.0721,5.0721,5.0856,5.0874,5.0932,5.1087,5.12,5.1228,5.1308,5.1367,5.1387,5.1387,5.1387,5.1387,4.8324,4.8324,4.8324,4.8324,4.8324,4.8324,4.8324,4.8324,4.8324,4.8324,4.8324,4.8324,4.8324,4.8324,4.8324,4.8324,4.8324,4.8324,4.8324,4.8324,4.8324,4.8324,4.8324,4.8324,4.8102,4.7807,4.7809,4.7407,4.6709,4.6587,4.6719,4.6997,4.7197,4.7032,4.6513,4.5997,4.5436,4.4929,4.4911,4.4929,4.4782,4.3975,4.3479,4.3516,4.3644,4.3718,4.3736,4.3821,4.3944,4.3977,4.4469,4.4927,4.5258,4.6092,4.6807,4.7371,4.8311,4.926,5.0106,5.0183,5.0337,5.0683,5.0683,5.0683,5.0683,5.0683,5.0683,5.0683,5.0683,5.0683,5.0683,5.0683,5.0683,5.0683,5.0683,5.0683,5.0683,5.076,5.0837,5.0895,5.0971,5.1029,5.1097,5.1136,5.1153,5.1109,5.1133,5.1152,5.1094,5.1089,5.1081,5.1101,5.1004,5.0906,5.0854,5.0818,5.0779,5.0721,5.076,5.0818,5.0818,5.0914,5.0972,5.101,5.0999,5.1035,5.1164,5.1201,5.123,5.1348,5.1387,5.1387,5.1387,5.1387,5.1387,4.8508,4.8324,4.8324,4.8324,4.8324,4.8324,4.8324,4.8324,4.8324,4.8324,4.8324,4.8324,4.8324,4.8324,4.8324,4.8324,4.8324,4.8324,4.8324,4.8324,4.8324,4.8324,4.8324,4.8324,4.8324,4.8324,4.8306,4.7994,4.7481,4.7508,4.7504,4.7575,4.7767,4.7637,4.7169,4.6783,4.636,4.592,4.5902,4.592,4.5736,4.4745,4.414,4.4213,4.4727,4.5039,4.5039,4.5696,4.6043,4.6078,4.645,4.6747,4.6992,4.7384,4.7846,4.8436,4.9258,5.001,5.0644,5.0683,5.0683,5.0683,5.0683,5.0683,5.0683,5.0683,5.0683,5.0683,5.0683,5.0683,5.0683,5.0683,5.0683,5.0683,5.0683,5.0702,5.0741,5.0837,5.0933,5.0991,5.1067,5.115,5.1198,5.1238,5.123,5.1203,5.123,5.123,5.1191,5.1191,5.1191,5.1171,5.1181,5.1095,5.1006,5.0972,5.0914,5.0895,5.0914,5.0952,5.0947,5.1054,5.1106,5.1082,5.1125,5.1178,5.1267,5.128,5.125,5.1348,5.1387,5.1387,5.1387,5.1387,5.1387,4.9058,4.8398,4.8324,4.8361,4.8324,4.8324,4.8324,4.8324,4.8324,4.8324,4.8324,4.8324,4.8324,4.8324,4.8324,4.8324,4.8324,4.8324,4.8324,4.8324,4.8324,4.8324,4.8324,4.8324,4.8324,4.8324,4.8324,4.8269,4.8216,4.8579,4.8827,4.8777,4.8728,4.8434,4.7739,4.7313,4.6705,4.6154,4.6099,4.5973,4.5957,4.5865,4.5792,4.581,4.5828,4.5847,4.592,4.6287,4.6544,4.6525,4.6968,4.7446,4.8158,4.8605,4.9315,5.0297,5.0548,5.0625,5.0664,5.0683,5.0683,5.0683,5.0683,5.0683,5.0683,5.0683,5.0683,5.0683,5.076,5.0779,5.0683,5.0683,5.0683,5.0683,5.0702,5.076,5.0895,5.0914,5.101,5.1145,5.1196,5.1249,5.1357,5.1386,5.1367,5.1367,5.1387,5.1367,5.1367,5.1367,5.1363,5.1355,5.1356,5.1319,5.114,5.107,5.1078,5.1054,5.1024,5.1061,5.1089,5.1081,5.1125,5.1172,5.1199,5.1247,5.1355,5.1387,5.1367,5.1387,5.1387,5.1387,5.1387,5.1387,5.1484,5.0178,4.9848,4.9334,4.9134,4.9081,4.8526,4.8324,4.8324,4.8324,4.8324,4.8324,4.8324,4.8324,4.8324,4.8324,4.8324,4.8324,4.8324,4.8324,4.8324,4.8324,4.8324,4.8324,4.8324,4.8324,4.8324,4.8324,4.8324,4.8326,4.8692,4.8903,4.89,4.89,4.8724,4.844,4.8066,4.7697,4.7457,4.7421,4.7423,4.7407,4.7443,4.7443,4.7407,4.6929,4.6801,4.7061,4.7684,4.8143,4.8421,4.8795,4.9149,4.9451,4.9834,5.0218,5.0644,5.0683,5.0683,5.0683,5.0683,5.0683,5.0683,5.0683,5.0683,5.0683,5.0683,5.0683,5.0779,5.1222,5.126,5.0798,5.0683,5.0683,5.0702,5.0779,5.0875,5.0914,5.101,5.1126,5.12,5.127,5.1342,5.1387,5.1387,5.1387,5.1387,5.1387,5.1387,5.1387,5.1387,5.1445,5.1387,5.1398,5.1371,5.133,5.1213,5.1154,5.1135,5.1108,5.1132,5.1167,5.1232,5.1296,5.1289,5.1289,5.1308,5.1387,5.1387,5.1406,5.1523,5.1523,5.1601,5.1387,5.1758,5.1953,5.082,5.0729,5.0215,5.0,4.9857,4.9062,4.8712,4.8675,4.8416,4.8324,4.8324,4.8324,4.8324,4.8324,4.8324,4.8324,4.8324,4.8324,4.8324,4.8324,4.8324,4.8324,4.8324,4.8324,4.8324,4.8324,4.8324,4.8324,4.8344,4.8568,4.8697,4.8678,4.8699,4.8717,4.8641,4.8434,4.8324,4.8324,4.8324,4.8306,4.8324,4.8324,4.8324,4.8271,4.7905,4.779,4.8096,4.8853,4.9396,4.9702,5.0077,5.0298,5.0337,5.0567,5.0683,5.0683,5.0683,5.0683,5.0683,5.0683,5.0683,5.0683,5.0683,5.0683,5.0702,5.0933,5.1068,5.1241,5.1838,5.205,5.1684,5.1529,5.1298,5.0952,5.1068,5.1183,5.1068,5.1395,5.1481,5.1321,5.1336,5.1387,5.1387,5.1387,5.1387,5.1387,5.1387,5.1387,5.1387,5.166,5.166,5.1484,5.1719,5.166,5.1504,5.1328,5.1289,5.125,5.1211,5.125,5.1269,5.1348,5.1387,5.1387,5.1387,5.1387,5.1406,5.1406,5.1543,5.1738,5.1973,5.2148,5.2187,5.2383,5.2676,5.0894,5.093,5.0802,5.079,5.0687,4.9949,4.9597,4.9469,4.8785,4.8526,4.8489,4.8398,4.8398,4.8324,4.8324,4.8324,4.8324,4.8324,4.8324,4.8324,4.8324,4.8324,4.8324,4.8324,4.8324,4.8324,4.8324,4.8324,4.8306,4.8344,4.8363,4.8324,4.8382,4.8365,4.8324,4.8343,4.8324,4.8324,4.8324,4.8324,4.8324,4.8324,4.8306,4.8402,4.8618,4.8818,4.8907,4.9633,5.0032,5.0127,5.0466,5.0683,5.0644,5.0683,5.0683,5.0683,5.0683,5.0683,5.0683,5.0683,5.0702,5.0818,5.076,5.0856,5.1106,5.1548,5.1914,5.2029,5.2666,5.3128,5.3049,5.3087,5.2587,5.1318,5.1741,5.1913,5.1665,5.203,5.2255,5.1738,5.1601,5.1445,5.1445,5.1543,5.1582,5.1582,5.166,5.1758,5.1875,5.2344,5.2285,5.1875,5.2129,5.2441,5.1933,5.1426,5.1406,5.1406,5.1367,5.1348,5.1348,5.1387,5.1387,5.1387,5.1387,5.1406,5.1816,5.1875,5.2168,5.2383,5.2578,5.2851,5.3047,5.3262,5.3613,5.2472,5.238,5.1848,5.1646,5.1536,5.0787,5.0425,5.0413,5.0098,4.9709,4.9285,4.9173,4.8859,4.8398,4.8324,4.8324,4.8324,4.8324,4.8324,4.8324,4.8324,4.8324,4.8324,4.8324,4.8324,4.8324,4.8324,4.8324,4.8324,4.8324,4.8324,4.8324,4.8324,4.8324,4.8324,4.8324,4.8324,4.8324,4.8324,4.8324,4.8324,4.8306,4.8421,4.8728,4.9108,4.9445,4.9719,4.9977,5.0236,5.0482,5.0641,5.0683,5.0683,5.0683,5.0683,5.0683,5.0683,5.0683,5.0683,5.0721,5.0991,5.1376,5.151,5.1856,5.2318,5.2626,5.2799,5.2876,5.355,5.3917,5.3453,5.3855,5.3703,5.2723,5.293,5.3112,5.2981,5.3258,5.3387,5.3183,5.2676,5.2324,5.2285,5.2305,5.2285,5.2363,5.2715,5.3066,5.3183,5.3262,5.3242,5.2578,5.3027,5.293,5.1992,5.1621,5.1816,5.1582,5.1406,5.1387,5.1387,5.1387,5.1387,5.1445,5.1445,5.166,5.2051,5.2441,5.2773,5.3183,5.3535,5.375,5.3926,5.4219,5.4551,5.3206,5.317,5.2674,5.243,5.237,5.1582,5.1224,5.1198,5.0901,5.0512,5.005,4.9726,4.9301,4.8783,4.8453,4.8324,4.8324,4.8324,4.8324,4.8324,4.8324,4.8324,4.8324,4.8324,4.8324,4.8324,4.8324,4.8324,4.8324,4.8324,4.8324,4.8324,4.8324,4.8324,4.8324,4.8324,4.8324,4.8326,4.8457,4.8527,4.8549,4.8676,4.8881,4.9139,4.9504,4.9846,5.0087,5.0228,5.045,5.0662,5.0683,5.0683,5.0683,5.0683,5.0683,5.0683,5.0683,5.0683,5.0702,5.101,5.1337,5.1818,5.2203,5.2567,5.3144,5.3413,5.3664,5.378,5.4454,5.4743,5.4434,5.4741,5.4895,5.457,5.4291,5.4233,5.4303,5.4128,5.3984,5.3789,5.3496,5.3262,5.3203,5.3183,5.3164,5.3281,5.3633,5.3984,5.3984,5.3945,5.3496,5.3242,5.3418,5.2851,5.1777,5.1777,5.2207,5.1836,5.1387,5.1387,5.1387,5.1387,5.1387,5.1582,5.1641,5.207,5.248,5.3027,5.3437,5.3926,5.4512,5.4785,5.5019,5.5195,5.5469,5.3206,5.3206,5.3206,5.3151,5.3036,5.237,5.2053,5.1962,5.1365,5.1018,5.0767,5.0233,4.9798,4.952,4.8985,4.8728,4.8508,4.8655,4.86,4.8508,4.8471,4.8434,4.8343,4.8324,4.8324,4.8324,4.8324,4.8324,4.8324,4.8324,4.8324,4.8324,4.8324,4.8324,4.8324,4.8324,4.8324,4.8365,4.8642,4.8846,4.8878,4.9234,4.9475,4.9532,4.9872,5.0092,5.0225,5.0459,5.0663,5.0683,5.0683,5.0683,5.0683,5.0683,5.0683,5.0702,5.0721,5.0818,5.0952,5.1587,5.2087,5.2338,5.2914,5.3336,5.3622,5.4201,5.453,5.4587,5.5164,5.5645,5.5684,5.5799,5.5936,5.6207,5.5586,5.5264,5.5293,5.4707,5.4531,5.4336,5.416,5.4062,5.4082,5.4062,5.4062,5.4121,5.4238,5.4473,5.4473,5.4492,5.3789,5.373,5.3965,5.3105,5.2148,5.2519,5.2754,5.1758,5.1387,5.1387,5.1387,5.1387,5.1387,5.1601,5.1973,5.2441,5.3027,5.3613,5.4355,5.5058,5.5527,5.5879,5.5996,5.6015,5.6035,5.3206,5.3206,5.3206,5.3206,5.3206,5.2962,5.2889,5.2871,5.2645,5.215,5.1734,5.1454,5.0963,5.049,5.0251,5.016,5.005,5.0068,4.9759,4.9283,4.9285,4.884,4.8416,4.8324,4.8324,4.8324,4.8324,4.8324,4.8324,4.8324,4.8324,4.8324,4.8324,4.8324,4.8324,4.8324,4.8324,4.8346,4.8707,4.8889,4.8987,4.9326,4.9645,4.993,5.0068,5.0272,5.0504,5.0624,5.0683,5.0683,5.0683,5.0683,5.0683,5.0721,5.076,5.0837,5.1279,5.1568,5.1741,5.2396,5.3087,5.374,5.3953,5.4395,5.5009,5.5241,5.5376,5.5415,5.5626,5.5742,5.5876,5.6051,5.6263,5.6463,5.6258,5.6133,5.6152,5.6094,5.5918,5.5879,5.5312,5.5019,5.4961,5.4961,5.4941,5.5039,5.5371,5.5723,5.5566,5.541,5.4922,5.4609,5.4473,5.3535,5.2969,5.332,5.3047,5.1816,5.1387,5.1387,5.1387,5.1387,5.1387,5.1465,5.2129,5.2656,5.3574,5.4375,5.5234,5.5898,5.6191,5.6328,5.6387,5.6426,5.6406,5.3206,5.3206,5.3206,5.3206,5.3206,5.3206,5.3206,5.3206,5.3206,5.2968,5.2527,5.209,5.1747,5.1298,5.0949,5.0802,5.082,5.082,5.053,5.0202,5.0096,4.9432,4.8601,4.8324,4.8324,4.8324,4.8343,4.8324,4.8324,4.8324,4.8324,4.8324,4.8324,4.8324,4.8324,4.8324,4.8324,4.8402,4.8837,4.9149,4.9184,4.97,5.0068,5.0317,5.0358,5.0483,5.0683,5.0683,5.0683,5.0683,5.0683,5.0683,5.0721,5.1029,5.1183,5.1241,5.1991,5.2453,5.2607,5.3261,5.3933,5.4451,5.478,5.5203,5.5549,5.5684,5.5684,5.5684,5.5742,5.5857,5.6032,5.6225,5.6424,5.6562,5.6616,5.6621,5.6621,5.6562,5.6601,5.6465,5.6191,5.584,5.584,5.582,5.582,5.5898,5.6172,5.6387,5.6445,5.6289,5.5879,5.5234,5.4609,5.3691,5.293,5.3066,5.2871,5.1738,5.1387,5.1387,5.1387,5.1426,5.1601,5.1777,5.2344,5.3027,5.4004,5.4863,5.5488,5.6055,5.6426,5.6621,5.6621,5.6621,5.6621,5.3206,5.3206,5.3206,5.3206,5.3206,5.3206,5.3206,5.3206,5.3206,5.3188,5.2981,5.2443,5.2205,5.2068,5.1591,5.1132,5.1151,5.1316,5.1114,5.0952,5.0698,5.0,4.9001,4.8873,4.8857,4.882,4.86,4.871,4.8802,4.8673,4.8489,4.8508,4.8434,4.8324,4.8324,4.8324,4.8324,4.8421,4.9057,4.9389,4.9561,5.0135,5.064,5.0873,5.0893,5.1028,5.1068,5.101,5.0972,5.101,5.0875,5.0894,5.0971,5.1606,5.1991,5.2183,5.2838,5.3338,5.3472,5.4108,5.4628,5.4816,5.5338,5.5684,5.5684,5.5684,5.5684,5.5684,5.5818,5.598,5.6205,5.6462,5.6563,5.6621,5.6621,5.6621,5.6621,5.6621,5.6621,5.6601,5.6582,5.6601,5.6621,5.6621,5.6562,5.625,5.6504,5.6543,5.6543,5.6328,5.5742,5.498,5.4375,5.3808,5.3144,5.2637,5.2246,5.1641,5.1465,5.1387,5.1387,5.1504,5.1836,5.2148,5.2402,5.3203,5.4394,5.5137,5.5644,5.6172,5.6543,5.6621,5.6621,5.6621,5.6621,5.3206,5.3206,5.3206,5.3206,5.3206,5.3206,5.3206,5.3206,5.3206,5.3206,5.317,5.2981,5.2907,5.2913,5.2656,5.2692,5.2546,5.2509,5.2394,5.1669,5.1041,5.073,5.025,5.0263,5.0233,5.0181,5.0215,5.0233,5.0105,4.9554,4.9315,4.926,4.8803,4.8343,4.8416,4.8508,4.8324,4.8439,4.9132,4.9607,4.9824,5.0444,5.1125,5.1568,5.1645,5.2029,5.2375,5.2011,5.2011,5.2319,5.2068,5.1741,5.1818,5.2472,5.2895,5.3106,5.3723,5.4223,5.4377,5.4895,5.5415,5.5395,5.553,5.5684,5.5684,5.5684,5.5684,5.5722,5.5821,5.6068,5.6328,5.6484,5.6582,5.6621,5.6621,5.6621,5.6621,5.6621,5.6621,5.6621,5.6621,5.6621,5.6621,5.6621,5.6621,5.6621,5.6621,5.6621,5.6504,5.6348,5.5723,5.5,5.4512,5.3906,5.2851,5.2344,5.1973,5.1621,5.1484,5.1387,5.1387,5.1465,5.1738,5.2012,5.2266,5.3281,5.4473,5.4941,5.5371,5.6015,5.6621,5.6621,5.6621,5.6621,5.6621,5.3206,5.3206,5.3206,5.3206,5.3206,5.3206,5.3206,5.3206,5.3206,5.3206,5.3206,5.3206,5.3206,5.3206,5.3206,5.3188,5.3206,5.3206,5.2981,5.2535,5.2126,5.1956,5.1919,5.182,5.1665,5.1018,5.0802,5.082,5.0655,5.0435,5.016,5.0181,4.9632,4.9636,4.9469,4.9432,4.9524,4.9677,5.0263,5.0656,5.0787,5.1446,5.1991,5.2414,5.251,5.2779,5.3049,5.2761,5.28,5.305,5.3146,5.2895,5.2721,5.3318,5.3741,5.3933,5.4587,5.5011,5.5203,5.5415,5.5665,5.5684,5.5684,5.5684,5.5684,5.5684,5.5684,5.5742,5.5923,5.6172,5.6445,5.6523,5.6601,5.6621,5.6621,5.6621,5.6621,5.6621,5.6621,5.6621,5.6621,5.6621,5.6621,5.6621,5.6621,5.6621,5.6621,5.6621,5.6621,5.6406,5.5879,5.5273,5.4765,5.3984,5.2695,5.2051,5.1777,5.1562,5.1426,5.1387,5.1387,5.1484,5.1582,5.1894,5.2266,5.3203,5.4238,5.4668,5.5293,5.6113,5.6621,5.6621,5.6621,5.6621,5.6621,5.3206,5.3206,5.3206,5.3206,5.3206,5.3206,5.3206,5.3206,5.3206,5.3206,5.3206,5.3206,5.3206,5.3206,5.3206,5.3206,5.3206,5.3206,5.3072,5.3036,5.2981,5.2926,5.2944,5.2834,5.2425,5.1274,5.1344,5.1334,5.1316,5.1059,5.0986,5.0971,5.0738,5.052,5.0669,5.078,5.0591,5.0634,5.1152,5.1673,5.1866,5.2518,5.2944,5.3376,5.3414,5.3549,5.3703,5.3569,5.3492,5.3608,5.43,5.4203,5.401,5.4184,5.4684,5.4703,5.528,5.5511,5.553,5.5645,5.5684,5.5684,5.5684,5.5684,5.5684,5.5703,5.5722,5.5838,5.6038,5.6328,5.6582,5.6601,5.6601,5.6621,5.6621,5.6621,5.6621,5.6621,5.6621,5.6621,5.6621,5.6621,5.6621,5.6621,5.6621,5.6621,5.6621,5.6621,5.6621,5.6465,5.5957,5.5293,5.4726,5.3613,5.2305,5.1836,5.1582,5.1504,5.1387,5.1426,5.1426,5.1445,5.1562,5.1914,5.2441,5.332,5.4062,5.4629,5.5351,5.625,5.6621,5.6621,5.6621,5.6621,5.6621,5.3206,5.3206,5.3206,5.3206,5.3206,5.3206,5.3206,5.3206,5.3206,5.3206,5.3206,5.3206,5.3206,5.3206,5.3206,5.3206,5.3206,5.3206,5.3206,5.3206,5.3206,5.3206,5.3206,5.3206,5.2962,5.2926,5.2692,5.2601,5.2472,5.2179,5.183,5.1665,5.1246,5.0993,5.1026,5.0849,5.1046,5.1179,5.1574,5.1875,5.2314,5.2812,5.3468,5.4163,5.428,5.4549,5.4876,5.4628,5.457,5.5203,5.5415,5.5357,5.5184,5.5299,5.5376,5.5434,5.5549,5.5684,5.5684,5.5684,5.5684,5.5684,5.5684,5.5684,5.5684,5.5703,5.5761,5.5936,5.6173,5.6426,5.6582,5.6621,5.6621,5.6621,5.6621,5.6621,5.6621,5.6621,5.6621,5.6621,5.6621,5.6621,5.6621,5.6621,5.6621,5.6621,5.6621,5.6621,5.6621,5.6445,5.6133,5.5371,5.457,5.3223,5.1816,5.1621,5.1445,5.1445,5.1426,5.1523,5.1484,5.1426,5.1582,5.2246,5.2637,5.3164,5.3867,5.4629,5.543,5.6348,5.6523,5.6601,5.6621,5.6621,5.6621,5.3206,5.3206,5.3206,5.3206,5.3206,5.3206,5.3206,5.3206,5.3206,5.3206,5.3206,5.3206,5.3206,5.3206,5.3206,5.3206,5.3206,5.3206,5.3206,5.3206,5.3206,5.3206,5.3206,5.3206,5.3206,5.3188,5.3188,5.3206,5.3188,5.2839,5.2582,5.2546,5.2197,5.205,5.205,5.2113,5.1993,5.2066,5.2357,5.2752,5.3259,5.3811,5.4572,5.4891,5.5088,5.5338,5.5472,5.5395,5.5282,5.5588,5.5684,5.5684,5.5684,5.5684,5.5684,5.5684,5.5684,5.5684,5.5684,5.5684,5.5684,5.5684,5.5684,5.5684,5.5684,5.5703,5.584,5.6073,5.6209,5.6455,5.6582,5.6621,5.6621,5.6621,5.6621,5.6621,5.6621,5.6621,5.6621,5.6621,5.6621,5.6621,5.6621,5.6621,5.6621,5.6621,5.6621,5.6621,5.6621,5.6465,5.625,5.4941,5.4023,5.291,5.1797,5.168,5.1601,5.1582,5.1621,5.1719,5.1953,5.207,5.2461,5.3027,5.3301,5.3437,5.4199,5.5137,5.5801,5.6367,5.6504,5.6621,5.6621,5.6621,5.6621,5.3206,5.3206,5.3206,5.3206,5.3206,5.3206,5.3206,5.3206,5.3206,5.3206,5.3206,5.3206,5.3206,5.3206,5.3206,5.3206,5.3206,5.3206,5.3206,5.3206,5.3206,5.3206,5.3206,5.3206,5.3206,5.3206,5.3206,5.3206,5.3206,5.3133,5.3188,5.3096,5.317,5.3206,5.3054,5.2926,5.3206,5.3298,5.3487,5.3921,5.456,5.5237,5.5684,5.5684,5.5684,5.5665,5.5684,5.5626,5.5588,5.5684,5.5684,5.5684,5.5684,5.5684,5.5684,5.5684,5.5684,5.5684,5.5684,5.5684,5.5684,5.5684,5.5684,5.5684,5.5722,5.5821,5.5997,5.6329,5.6411,5.6647,5.6875,5.6719,5.664,5.6621,5.6621,5.6621,5.6621,5.6621,5.6621,5.6621,5.6621,5.6621,5.6621,5.6621,5.6621,5.6621,5.6621,5.6621,5.6621,5.6621,5.6094,5.4492,5.334,5.2461,5.1855,5.1875,5.1894,5.1992,5.209,5.2207,5.2598,5.2949,5.3437,5.3887,5.3906,5.4141,5.4902,5.5508,5.6074,5.6465,5.6562,5.6621,5.6621,5.6621,5.6621,5.3206,5.3206,5.3206,5.3206,5.3206,5.3206,5.3206,5.3206,5.3206,5.3206,5.3206,5.3206,5.3206,5.3206,5.3206,5.3206,5.3206,5.3206,5.3206,5.3206,5.3206,5.3206,5.3206,5.3206,5.3206,5.3206,5.3206,5.3206,5.3206,5.3206,5.3206,5.3206,5.3206,5.3206,5.3206,5.3206,5.3206,5.3225,5.328,5.3697,5.4471,5.5262,5.5599,5.5684,5.5684,5.5684,5.5684,5.5684,5.5684,5.5684,5.5684,5.5684,5.5684,5.5684,5.5684,5.5684,5.5684,5.5684,5.5684,5.5684,5.5684,5.5703,5.5761,5.5703,5.6011,5.6286,5.6638,5.7177,5.6913,5.6953,5.7305,5.6992,5.6738,5.6621,5.6621,5.6621,5.6621,5.6621,5.6621,5.6621,5.6621,5.6621,5.6621,5.6621,5.6621,5.6621,5.6621,5.6621,5.6523,5.6445,5.5937,5.4375,5.334,5.248,5.2109,5.2109,5.2383,5.25,5.2656,5.2851,5.3418,5.3926,5.4355,5.4687,5.4707,5.4824,5.539,5.5918,5.6348,5.6523,5.6601,5.6621,5.6621,5.6621,5.6621,5.3206,5.3206,5.3206,5.3206,5.3206,5.3206,5.3206,5.3206,5.3206,5.3206,5.3206,5.3206,5.3206,5.3206,5.3206,5.3206,5.3206,5.3206,5.3206,5.3206,5.3206,5.3206,5.3206,5.3206,5.3206,5.3206,5.3206,5.3206,5.3206,5.3206,5.3206,5.3206,5.3206,5.3206,5.3206,5.3206,5.3206,5.328,5.3456,5.3866,5.4495,5.5034,5.547,5.5703,5.5684,5.5684,5.5684,5.5684,5.5684,5.5684,5.5684,5.5684,5.5684,5.5684,5.5684,5.5684,5.5684,5.5684,5.5684,5.5684,5.5722,5.5895,5.6165,5.6684,5.7052,5.7405,5.7644,5.807,5.7647,5.7617,5.7695,5.709,5.6777,5.6621,5.6621,5.6621,5.6621,5.6621,5.6621,5.6621,5.6621,5.6621,5.6621,5.6621,5.6621,5.6621,5.6621,5.6621,5.6348,5.6015,5.5312,5.4258,5.3457,5.2773,5.2558,5.248,5.3008,5.3223,5.3437,5.375,5.4394,5.4902,5.5234,5.5605,5.5801,5.5937,5.6035,5.6191,5.6504,5.6582,5.6601,5.6621,5.6621,5.6621,5.6621,5.3206,5.3206,5.3206,5.3206,5.3206,5.3206,5.3206,5.3206,5.3206,5.3206,5.3206,5.3206,5.3206,5.3206,5.3206,5.3206,5.3206,5.3206,5.3206,5.3206,5.3206,5.3206,5.3206,5.3206,5.3206,5.3206,5.3206,5.3206,5.3206,5.3206,5.3206,5.3206,5.3206,5.3206,5.3206,5.3206,5.3206,5.3243,5.3597,5.4016,5.4514,5.4895,5.5306,5.5577,5.5684,5.5684,5.5684,5.5684,5.5684,5.5684,5.5684,5.5684,5.5684,5.5684,5.5684,5.5684,5.5684,5.5684,5.5684,5.5703,5.5799,5.6203,5.6777,5.7547,5.8053,5.8561,5.8908,5.8953,5.8533,5.8281,5.8066,5.75,5.6973,5.6758,5.6621,5.6621,5.6621,5.6621,5.6621,5.6621,5.6621,5.6621,5.6621,5.6621,5.6621,5.6621,5.6621,5.6621,5.6269,5.584,5.5,5.4141,5.3789,5.3183,5.2871,5.2949,5.3476,5.4004,5.4219,5.4648,5.5293,5.5644,5.5879,5.6289,5.6582,5.6523,5.6328,5.6465,5.6621,5.6621,5.6621,5.6621,5.6621,5.6621,5.6621,5.3206,5.3206,5.3206,5.3206,5.3206,5.3206,5.3206,5.3206,5.3206,5.3206,5.3206,5.3206,5.3206,5.3206,5.3206,5.3206,5.3206,5.3206,5.3206,5.3206,5.3206,5.3206,5.3206,5.3206,5.3206,5.3206,5.3206,5.3206,5.3206,5.3206,5.3206,5.3206,5.3206,5.3206,5.3206,5.3206,5.3206,5.328,5.3579,5.3977,5.4449,5.4867,5.5237,5.5599,5.5684,5.5684,5.5684,5.5684,5.5684,5.5684,5.5684,5.5684,5.5684,5.5684,5.5684,5.5684,5.5876,5.5895,5.5915,5.5972,5.6244,5.6876,5.7643,5.8312,5.8742,5.8704,5.9084,5.9718,5.9351,5.9121,5.8848,5.832,5.7402,5.7031,5.6797,5.6621,5.6621,5.6621,5.6621,5.6621,5.6621,5.6621,5.6621,5.6621,5.6621,5.6621,5.6621,5.6601,5.625,5.5781,5.4922,5.4238,5.4062,5.3652,5.3183,5.3476,5.4199,5.4785,5.5156,5.5625,5.6172,5.6406,5.6328,5.6445,5.6621,5.6621,5.6621,5.6621,5.6621,5.6621,5.6621,5.6621,5.6621,5.6621,5.6621,5.3206,5.3206,5.3206,5.3206,5.3206,5.3206,5.3206,5.3206,5.3206,5.3206,5.3206,5.3206,5.3206,5.3206,5.3206,5.3206,5.3206,5.3206,5.3206,5.3206,5.3206,5.3206,5.3206,5.3206,5.3206,5.3206,5.3206,5.3206,5.3206,5.323,5.3206,5.3206,5.3243,5.3206,5.3206,5.3243,5.3243,5.3243,5.3442,5.3773,5.4397,5.464,5.5034,5.564,5.5684,5.5684,5.5684,5.5684,5.5684,5.5703,5.5703,5.5761,5.5818,5.5818,5.5857,5.5934,5.6222,5.6453,5.6533,5.6609,5.711,5.8284,5.8896,5.9215,5.9588,5.9954,6.0268,6.0468,6.0195,5.9883,5.9765,5.875,5.7695,5.7363,5.7031,5.6719,5.6621,5.6621,5.6621,5.6621,5.6621,5.6621,5.6621,5.6621,5.6621,5.6621,5.6621,5.6543,5.623,5.5879,5.5117,5.4551,5.4394,5.4473,5.4062,5.4473,5.5,5.5488,5.5996,5.6269,5.6543,5.6562,5.6523,5.6601,5.6621,5.6621,5.6621,5.6621,5.6621,5.6621,5.6621,5.6621,5.6621,5.6621,5.6621,5.3206,5.3206,5.3206,5.3206,5.3206,5.3206,5.3206,5.3206,5.3206,5.3206,5.3206,5.3206,5.3206,5.3206,5.3206,5.3206,5.3206,5.3206,5.3206,5.3206,5.3206,5.3206,5.3206,5.3206,5.3206,5.3206,5.3206,5.3206,5.3206,5.3336,5.3381,5.3455,5.3492,5.3561,5.339,5.3353,5.3414,5.3395,5.3431,5.3721,5.4414,5.4671,5.496,5.5599,5.5684,5.5684,5.5684,5.5684,5.5684,5.5818,5.5953,5.6107,5.6203,5.6319,5.6453,5.6684,5.6953,5.7357,5.7437,5.7783,5.8267,5.913,5.9723,6.0165,6.0646,6.0916,6.0924,6.1103,6.0781,6.0547,6.0449,5.9199,5.8183,5.7773,5.6973,5.6621,5.6621,5.6621,5.6621,5.6621,5.6621,5.6621,5.6621,5.6621,5.6621,5.6621,5.6621,5.6582,5.6426,5.6055,5.5586,5.5098,5.4805,5.4961,5.5137,5.541,5.5664,5.5918,5.6348,5.6426,5.6601,5.6621,5.6621,5.6621,5.6621,5.6621,5.6621,5.6621,5.6621,5.6621,5.6621,5.6621,5.6621,5.6621,5.6621,5.3206,5.3206,5.3206,5.3206,5.3206,5.3206,5.3206,5.3206,5.3206,5.3206,5.3206,5.3206,5.3206,5.3206,5.3206,5.3206,5.3206,5.3206,5.3206,5.3206,5.3206,5.3206,5.3206,5.3206,5.3206,5.3206,5.3206,5.3206,5.3206,5.3505,5.3701,5.3961,5.4214,5.4282,5.3847,5.381,5.381,5.3783,5.3807,5.4115,5.4484,5.4848,5.5237,5.5577,5.5684,5.5684,5.5953,5.5974,5.6051,5.6261,5.672,5.6931,5.7008,5.7588,5.7857,5.7973,5.8127,5.828,5.8357,5.9034,5.9457,5.9707,6.0223,6.0627,6.08,6.0939,6.1054,6.1215,6.123,6.1015,6.0469,5.9707,5.8926,5.8086,5.7305,5.6621,5.6621,5.6621,5.6621,5.6621,5.6621,5.6621,5.6621,5.6621,5.6621,5.6621,5.6621,5.6562,5.6504,5.6308,5.5918,5.5605,5.5293,5.5371,5.5605,5.6035,5.6348,5.6543,5.6621,5.6621,5.6621,5.6621,5.6621,5.6621,5.6621,5.6621,5.6621,5.6621,5.6621,5.6621,5.6621,5.6621,5.6621,5.6621,5.6621,5.3206,5.3206,5.3206,5.3206,5.3206,5.3206,5.3206,5.3206,5.3206,5.3206,5.3206,5.3206,5.3206,5.3206,5.3206,5.3206,5.3206,5.3206,5.3206,5.3206,5.3206,5.3206,5.3206,5.3206,5.3206,5.3206,5.3206,5.3206,5.3206,5.3663,5.3777,5.4019,5.509,5.5131,5.4541,5.4258,5.4254,5.4243,5.4279,5.4446,5.4876,5.5061,5.5306,5.5684,5.5722,5.5992,5.6453,5.6494,5.6763,5.7148,5.7723,5.7816,5.7873,5.8396,5.8396,5.8531,5.8704,5.9396,5.9762,6.0285,6.0319,6.0435,6.0531,6.08,6.0819,6.0819,6.0993,6.1205,6.1363,6.125,6.1133,6.0449,5.9648,5.8711,5.7851,5.6914,5.6621,5.6621,5.6621,5.6621,5.6621,5.6621,5.6621,5.6621,5.6621,5.6621,5.6621,5.6621,5.6562,5.6562,5.6348,5.6074,5.584,5.5859,5.6015,5.625,5.6445,5.6562,5.6621,5.6621,5.6621,5.6621,5.6621,5.6621,5.6621,5.6621,5.6621,5.6621,5.6621,5.6621,5.6621,5.6621,5.6621,5.6621,5.6621,5.3206,5.3206,5.3206,5.3206,5.3206,5.3206,5.3206,5.3206,5.3206,5.3206,5.3206,5.3206,5.3206,5.3206,5.3206,5.3206,5.3206,5.3206,5.3206,5.3206,5.3206,5.3206,5.3206,5.3206,5.3206,5.3206,5.3206,5.3206,5.323,5.3777,5.4424,5.5314,5.6272,5.6526,5.6079,5.5868,5.5514,5.5407,5.529,5.514,5.521,5.5256,5.5466,5.5737,5.6011,5.6415,5.6917,5.7341,5.7706,5.8245,5.855,5.8681,5.8758,5.8969,5.9088,5.9377,5.9627,6.0262,6.0569,6.0704,6.0685,6.0723,6.08,6.08,6.08,6.08,6.0993,6.119,6.1291,6.1459,6.1484,6.084,6.0058,5.9101,5.8242,5.7305,5.6621,5.6621,5.6621,5.6621,5.6621,5.6621,5.6621,5.6621,5.6621,5.6621,5.6621,5.6621,5.6621,5.6621,5.6621,5.6387,5.623,5.623,5.6211,5.623,5.6406,5.6582,5.6621,5.6621,5.6621,5.6621,5.6621,5.6621,5.6621,5.6621,5.6621,5.6621,5.6621,5.6621,5.6621,5.6621,5.6621,5.6601,5.6601,5.3206,5.3206,5.3206,5.3206,5.3206,5.3206,5.3206,5.3206,5.3206,5.3206,5.3206,5.3206,5.3206,5.3206,5.3206,5.3206,5.3206,5.3206,5.3206,5.3206,5.3206,5.3206,5.3206,5.3206,5.3206,5.3206,5.3206,5.3206,5.3314,5.3979,5.5169,5.6592,5.745,5.777,5.7735,5.7739,5.7197,5.6717,5.6424,5.6217,5.6058,5.5777,5.6003,5.628,5.6588,5.6992,5.7492,5.7973,5.8357,5.88,5.9162,5.9431,5.9796,6.0358,6.0627,6.0742,6.0685,6.0723,6.0762,6.0781,6.08,6.08,6.08,6.08,6.08,6.08,6.0973,6.1171,6.1317,6.1498,6.1543,6.0879,6.0215,5.9355,5.8535,5.7656,5.6816,5.6621,5.6621,5.6621,5.6621,5.6621,5.6621,5.6621,5.6621,5.6621,5.6621,5.6621,5.6621,5.6621,5.6621,5.6601,5.6504,5.6543,5.6504,5.6387,5.6426,5.6601,5.6621,5.6621,5.6621,5.6621,5.6621,5.6621,5.6621,5.6621,5.6621,5.6621,5.6621,5.6621,5.6621,5.6621,5.6621,5.6601,5.6575,5.3206,5.3206,5.3206,5.3206,5.3206,5.3206,5.3206,5.3206,5.3206,5.3206,5.3206,5.3206,5.3206,5.3206,5.3206,5.3206,5.3206,5.3206,5.3206,5.3206,5.3206,5.3206,5.3206,5.3206,5.3206,5.3206,5.3206,5.3206,5.3418,5.4086,5.5389,5.686,5.7953,5.8527,5.9085,5.9588,5.8777,5.8104,5.778,5.7424,5.7071,5.6794,5.6992,5.7261,5.7165,5.7665,5.8473,5.8899,5.9338,6.0012,6.0223,6.0416,6.0492,6.0685,6.0781,6.0781,6.0781,6.0781,6.08,6.08,6.08,6.08,6.08,6.08,6.08,6.0839,6.0954,6.1173,6.1314,6.1459,6.1621,6.1211,6.0351,5.9394,5.8672,5.8027,5.7187,5.6621,5.6621,5.6621,5.6621,5.6621,5.6621,5.6621,5.6621,5.6621,5.6621,5.6621,5.6621,5.6621,5.6621,5.6621,5.6621,5.6621,5.6621,5.6523,5.6562,5.6621,5.6621,5.6621,5.6621,5.6621,5.6621,5.6621,5.6621,5.6621,5.6621,5.6621,5.6621,5.6621,5.6621,5.6621,5.6601,5.6601,5.6543,5.3206,5.3206,5.3206,5.3206,5.3206,5.3206,5.3206,5.3206,5.3206,5.3206,5.3206,5.3206,5.3206,5.3206,5.3206,5.3206,5.3206,5.3206,5.3206,5.3206,5.3206,5.3206,5.3206,5.3206,5.3206,5.3206,5.3206,5.3206,5.3477,5.446,5.5798,5.6986,5.8088,5.8892,5.9527,6.0046,6.0142,5.9469,5.8969,5.8623,5.8223,5.7838,5.8011,5.8184,5.7915,5.8665,5.9377,5.9707,6.03,6.0723,6.0781,6.0781,6.0781,6.0781,6.08,6.08,6.08,6.08,6.08,6.08,6.08,6.08,6.08,6.08,6.08,6.0819,6.1012,6.1203,6.1287,6.1387,6.1562,6.1523,6.0449,5.9375,5.8867,5.8359,5.7578,5.6758,5.6621,5.6621,5.6621,5.6621,5.6621,5.6621,5.6621,5.6621,5.6621,5.6621,5.6621,5.6621,5.6621,5.6621,5.6621,5.6621,5.6621,5.6621,5.6621,5.6621,5.6621,5.6621,5.6621,5.6621,5.6621,5.6621,5.6621,5.6621,5.6621,5.6621,5.6621,5.6621,5.6621,5.6621,5.6621,5.6601,5.6543,5.3206,5.3206,5.3206,5.3206,5.3206,5.3206,5.3206,5.3206,5.3206,5.3206,5.3206,5.3206,5.3206,5.3206,5.3206,5.3206,5.3206,5.3206,5.3206,5.3206,5.3206,5.3206,5.3206,5.3206,5.3206,5.3206,5.3206,5.329,5.3687,5.4568,5.5703,5.6973,5.8242,5.9065,5.9546,6.0104,6.0296,6.0377,5.9835,5.9392,5.8858,5.8531,5.8454,5.8684,5.9031,5.955,5.98,6.0242,6.08,6.08,6.08,6.08,6.08,6.08,6.08,6.08,6.08,6.08,6.08,6.08,6.08,6.08,6.08,6.08,6.08,6.08,6.0973,6.1203,6.1314,6.1439,6.1601,6.1601,6.0859,5.9902,5.9219,5.8476,5.7598,5.6914,5.6621,5.6621,5.6621,5.6621,5.6621,5.6621,5.6621,5.6621,5.6621,5.6621,5.6621,5.6621,5.6621,5.6621,5.6621,5.6621,5.6621,5.6621,5.6621,5.6621,5.6621,5.6621,5.6621,5.6621,5.6621,5.6621,5.6621,5.6621,5.6621,5.6621,5.6621,5.6621,5.6621,5.6621,5.6621,5.6621,5.6543,5.3206,5.3206,5.3206,5.3206,5.3206,5.3206,5.3206,5.3206,5.3206,5.3206,5.3206,5.3206,5.3206,5.3206,5.3206,5.3206,5.3206,5.3206,5.3206,5.3206,5.3206,5.3206,5.3206,5.3206,5.3206,5.3206,5.3248,5.3378,5.3775,5.4537,5.5389,5.6448,5.7572,5.8242,5.9354,5.9835,6.0142,6.0704,6.0531,6.0262,5.9992,5.9569,5.9435,5.9685,6.0069,5.9992,6.0223,6.0589,6.08,6.08,6.08,6.08,6.08,6.08,6.08,6.08,6.08,6.08,6.08,6.08,6.08,6.08,6.08,6.08,6.08,6.08,6.0908,6.1174,6.1355,6.1498,6.1582,6.1523,6.1289,6.039,5.9492,5.8555,5.7598,5.709,5.666,5.6621,5.6621,5.6621,5.6621,5.6621,5.6621,5.6621,5.6621,5.6621,5.6621,5.6621,5.6621,5.6621,5.6621,5.6621,5.6621,5.6621,5.6621,5.6621,5.6621,5.6621,5.6621,5.6621,5.6621,5.6621,5.6621,5.6621,5.6621,5.6621,5.6621,5.6621,5.6621,5.6621,5.6621,5.6621,5.6523,5.2362,5.2692,5.3059,5.3206,5.3206,5.3206,5.3206,5.3206,5.3206,5.3206,5.3206,5.3206,5.3206,5.3206,5.3206,5.3206,5.3206,5.3206,5.3206,5.3206,5.3206,5.3206,5.3206,5.3206,5.3206,5.3206,5.3248,5.34,5.3777,5.4322,5.5066,5.5865,5.6552,5.7591,5.8877,5.93,5.9892,6.0742,6.0742,6.08,6.08,6.0396,6.0223,6.0492,6.0492,6.0435,6.0512,6.08,6.08,6.08,6.08,6.08,6.08,6.08,6.08,6.08,6.08,6.08,6.08,6.08,6.08,6.08,6.08,6.08,6.08,6.08,6.0935,6.119,6.131,6.1426,6.1601,6.1621,6.1191,6.0449,5.9531,5.8594,5.7617,5.6836,5.6621,5.6621,5.6621,5.6621,5.6621,5.6621,5.6621,5.6621,5.6621,5.6621,5.6621,5.6621,5.6621,5.6621,5.6621,5.6621,5.6621,5.6621,5.6621,5.6621,5.6621,5.6621,5.6621,5.6621,5.6621,5.6621,5.6621,5.6621,5.6621,5.6621,5.6621,5.6621,5.6621,5.6621,5.6621,5.6621,5.6562,5.1316,5.2068,5.2876,5.3206,5.3206,5.3206,5.3206,5.3206,5.3206,5.3206,5.3206,5.3206,5.3206,5.3206,5.3206,5.3206,5.3206,5.3206,5.3206,5.3206,5.3206,5.3206,5.3206,5.3206,5.3206,5.3206,5.3206,5.34,5.3663,5.4202,5.4743,5.5236,5.6165,5.7266,5.8113,5.8915,5.9661,6.0315,6.0589,6.0762,6.08,6.08,6.0762,6.0762,6.08,6.08,6.08,6.08,6.08,6.08,6.08,6.08,6.08,6.08,6.08,6.08,6.08,6.08,6.08,6.08,6.08,6.08,6.08,6.08,6.08,6.0858,6.0993,6.1115,6.1229,6.1406,6.1582,6.1601,6.1133,6.039,5.9473,5.8457,5.748,5.666,5.6621,5.6621,5.6621,5.6621,5.6621,5.6621,5.6621,5.6621,5.6621,5.6621,5.6621,5.6621,5.6621,5.6621,5.6621,5.6621,5.6621,5.6621,5.6621,5.6621,5.6621,5.6621,5.6621,5.6621,5.6621,5.6621,5.6621,5.6621,5.6621,5.6621,5.6621,5.6621,5.6621,5.6621,5.6621,5.6621,5.6621,5.1261,5.205,5.2876,5.3206,5.3206,5.3206,5.3206,5.3206,5.3188,5.3206,5.3127,5.3188,5.3206,5.3206,5.3206,5.3206,5.3206,5.3206,5.3206,5.3206,5.3206,5.3206,5.3206,5.3206,5.3206,5.3206,5.3206,5.3272,5.3524,5.4118,5.4527,5.4737,5.5465,5.6436,5.7343,5.8204,5.9081,5.9892,6.0569,6.08,6.08,6.08,6.08,6.08,6.08,6.08,6.08,6.08,6.08,6.08,6.08,6.08,6.08,6.08,6.08,6.08,6.08,6.08,6.08,6.08,6.08,6.08,6.08,6.08,6.08,6.08,6.092,6.1084,6.1223,6.1402,6.1582,6.168,6.1328,6.0195,5.916,5.8027,5.6953,5.6699,5.6621,5.6621,5.6621,5.6621,5.6621,5.6621,5.6621,5.6621,5.6621,5.6621,5.6621,5.6621,5.6621,5.6621,5.6621,5.6621,5.6621,5.6621,5.6621,5.6621,5.6621,5.6621,5.6621,5.6621,5.6621,5.6621,5.6621,5.6621,5.6621,5.6621,5.6621,5.6621,5.6621,5.6621,5.6621,5.6621,5.6621]},{"header":{"parameterUnit":"m.s-1","parameterCategory":1,"la1":31.0,"la2":29.5877,"lo1":-88.7671,"lo2":-86.6584,"dy":0.0162,"dx":0.0185,"nx":115,"ny":88,"refTime":"2024-12-01T18:00:00:Z","depth":0,"parameterNumber":3,"parameterNumberName":"V-component_of_WINDS"},"data":[0.0,0.0,0.0,0.0,0.0,0.0,0.0,0.0,0.0,0.0,0.0,0.0,0.0,0.0,0.0,0.0,0.0,0.0,0.0,0.0,0.0,0.0,0.0,0.0,0.0,0.0,0.0,0.0,0.0,0.0,0.0,0.0,0.0,0.0,0.0,0.0,0.0,0.0,0.0,0.0,0.0,0.0,0.0,0.0,0.0,0.0,0.0,0.0,0.0,0.0,0.0,0.0,0.0,0.0,0.0,0.0,0.0,0.0,0.0,0.0,0.0,0.0,0.0,0.0,0.0,0.0,0.0,0.0,0.0,0.0,0.0,0.0,0.0,0.0,0.0,0.0,0.0,0.0,0.0,0.0,0.0,0.0,0.0,0.0,0.0,0.0,0.0,0.0,0.0,0.0,0.0,0.0,0.0,0.0,0.0,0.0,0.0,0.0,0.0,0.0,0.0,0.0,0.0,0.0,0.0,0.0,0.0,0.0,0.0,0.0,0.0,0.0,0.0,0.0,0.0,0.0,0.0,0.0,0.0,0.0,0.0,0.0,0.0,0.0,0.0,0.0,0.0,0.0,0.0,0.0,0.0,0.0,0.0,0.0,0.0,0.0,0.0,0.0,0.0,0.0,0.0,0.0,0.0,0.0,0.0,0.0,0.0,0.0,0.0,0.0,0.0,0.0,0.0,0.0,0.0,0.0,0.0,0.0,0.0,0.0,0.0,0.0,0.0,0.0,0.0,0.0,0.0,0.0,0.0,0.0,0.0,0.0,0.0,0.0,0.0,0.0,0.0,0.0,0.0,0.0,0.0,0.0,0.0,0.0,0.0,0.0,0.0,0.0,0.0,0.0,0.0,0.0,0.0,0.0,0.0,0.0,0.0,0.0,0.0,0.0,0.0,0.0,0.0,0.0,0.0,0.0,0.0,0.0,0.0,0.0,0.0,0.0,0.0,0.0,0.0,0.0,0.0,0.0,0.0,0.0,0.0,0.0,0.0,0.0,0.0,0.0,0.0,0.0,0.0,0.0,0.0,0.0,0.0,0.0,0.0,0.0,0.0,0.0,0.0,0.0,0.0,0.0,0.0,0.0,0.0,0.0,0.0,0.0,0.0,0.0,0.0,0.0,0.0,0.0,0.0,0.0,0.0,0.0,0.0,0.0,0.0,0.0,0.0,0.0,0.0,0.0,0.0,0.0,0.0,0.0,0.0,0.0,0.0,0.0,0.0,0.0,0.0,0.0,0.0,0.0,0.0,0.0,0.0,0.0,0.0,0.0,0.0,0.0,0.0,0.0,0.0,0.0,0.0,0.0,0.0,0.0,0.0,0.0,0.0,0.0,0.0,0.0,0.0,0.0,0.0,0.0,0.0,0.0,0.0,0.0,0.0,0.0,0.0,0.0,0.0,0.0,0.0,0.0,0.0,0.0,0.0,0.0,0.0,0.0,0.0,0.0,0.0,0.0,0.0,0.0,0.0,0.0,0.0,0.0,0.0,0.0,0.0,0.0,0.0,0.0,0.0,0.0,0.0,0.0,0.0,0.0,0.0,0.0,0.0,0.0,0.0,0.0,0.0,0.0,0.0,0.0,0.0,0.0,0.0,0.0,0.0,0.0,0.0,0.0,0.0,0.0,0.0,0.0,0.0,0.0,0.0,0.0,0.0,0.0,0.0,0.0,0.0,0.0,0.0,0.0,0.0,0.0,0.0,0.0,0.0,0.0,0.0,0.0,0.0,0.0,0.0,0.0,0.0,0.0,0.0,0.0,0.0,0.0,0.0,0.0,0.0,0.0,0.0,0.0,0.0,0.0,0.0,0.0,0.0,0.0,0.0,0.0,0.0,0.0,0.0,0.0,0.0,0.0,0.0,0.0,0.0,0.0,0.0,0.0,0.0,0.0,0.0,0.0,0.0,0.0,0.0,0.0,0.0,0.0,0.0,0.0,0.0,0.0,0.0,0.0,0.0,0.0,0.0,0.0,0.0,0.0,0.0,0.0,0.0,0.0,0.0,0.0,0.0,0.0,0.0,0.0,0.0,0.0,0.0,0.0,0.0,0.0,0.0,0.0,0.0,0.0,0.0,0.0,0.0,0.0,0.0,0.0,0.0,0.0,0.0,0.0,0.0,0.0,0.0,0.0,0.0,0.0,0.0,0.0,0.0,0.0,0.0,0.0,0.0,0.0,0.0,0.0,0.0,0.0,0.0,0.0,0.0,0.0,0.0,0.0,0.0,0.0,0.0,0.0,0.0,0.0,0.0,0.0,0.0,0.0,0.0,0.0,0.0,0.0,0.0,0.0,0.0,0.0,0.0,0.0,0.0,0.0,0.0,0.0,0.0,0.0,0.0,0.0,0.0,0.0,0.0,0.0,0.0,0.0,0.0,0.0,0.0,0.0,0.0,0.0,0.0,0.0,0.0,0.0,0.0,0.0,0.0,0.0,0.0,0.0,0.0,0.0,0.0,0.0,0.0,0.0,0.0,0.0,0.0,0.0,0.0,0.0,0.0,0.0,0.0,0.0,0.0,0.0,0.0,0.0,0.0,0.0,0.0,0.0,0.0,0.0,0.0,0.0,0.0,0.0,0.0,0.0,0.0,0.0,0.0,0.0,0.0,0.0,0.0,0.0,0.0,0.0,0.0,0.0,0.0,0.0,0.0,0.0,0.0,0.0,0.0,0.0,0.0,0.0,0.0,0.0,0.0,0.0,0.0,0.0,0.0,0.0,0.0,0.0,0.0,0.0,0.0,0.0,0.0,0.0,0.0,0.0,0.0,0.0,0.0,0.0,0.0,0.0,0.0,0.0,0.0,0.0,0.0,0.0,0.0,0.0,0.0,0.0,0.0,0.0,0.0,0.0,0.0,0.0,0.0,0.0,0.0,0.0,0.0,0.0,0.0,0.0,0.0,0.0,0.0,0.0,0.0,0.0,0.0,0.0,0.0,0.0,0.0,0.0,0.0,0.0,0.0,0.0,0.0,0.0,0.0,0.0,0.0,0.0,0.0,0.0,0.0,0.0,0.0,0.0,0.0,0.0,0.0,0.0,0.0,0.0,0.0,0.0,0.0,0.0,0.0,0.0,0.0,0.0,0.0,0.0,0.0,0.0,0.0,0.0,0.0,0.0,0.0,0.0,0.0,0.0,0.0,0.0,0.0,0.0,0.0,0.0,0.0,0.0,0.0,0.0,0.0,0.0,0.0,0.0,0.0,0.0,0.0,0.0,0.0,0.0,0.0,0.0,0.0,0.0,0.0,0.0,0.0,0.0,0.0,0.0,0.0,0.0,0.0,0.0,0.0,0.0,0.0,0.0,0.0,0.0,0.0,0.0,0.0,0.0,0.0,0.0,0.0,0.0,0.0,0.0,0.0,0.0,0.0,0.0,0.0,0.0,0.0,0.0,0.0,0.0,0.0,0.0,0.0,0.0,0.0,0.0,0.0,0.0,0.0,0.0,0.0,0.0,0.0,0.0,0.0,0.0,0.0,0.0,0.0,0.0,0.0,0.0,0.0,0.0,0.0,0.0,0.0,0.0,0.0,0.0,0.0,0.0,0.0,0.0,0.0,0.0,0.0,0.0,0.0,0.0,0.0,0.0,0.0,0.0,0.0,0.0,0.0,0.0,0.0,0.0,0.0,0.0,0.0,0.0,0.0,0.0,0.0,0.0,0.0,0.0,0.0,0.0,0.0,0.0,0.0,0.0,0.0,0.0,0.0,0.0,0.0,0.0,0.0,0.0,0.0,0.0,0.0,0.0,0.0,0.0,0.0,0.0,0.0,0.0,0.0,0.0,0.0,0.0,0.0,0.0,0.0,0.0,0.0,0.0,0.0,0.0,0.0,0.0,0.0,0.0,0.0,0.0,0.0,0.0,0.0,0.0,0.0,0.0,0.0,0.0,0.0,0.0,0.0,0.0,0.0,0.0,0.0,0.0,0.0,0.0,0.0,0.0,0.0,0.0,0.0,0.0,0.0,0.0,0.0,0.0,0.0,0.0,0.0,0.0,0.0,0.0,0.0,0.0,0.0,0.0,0.0,0.0,0.0,0.0,0.0,0.0,0.0,0.0,0.0,0.0,0.0,0.0,0.0,0.0,0.0,0.0,0.0,0.0,0.0,0.0,0.0,0.0,0.0,0.0,0.0,0.0,0.0,0.0,0.0,0.0,0.0,0.0,0.0,0.0,0.0,0.0,0.0,0.0,0.0,0.0,0.0,0.0,0.0,0.0,0.0,0.0,0.0,0.0,0.0,0.0,0.0,0.0,0.0,0.0,0.0,0.0,0.0,0.0,0.0,0.0,0.3183,0.0,0.0,0.0,0.0,0.0,0.0,0.0,0.0,0.0,0.0,0.0,0.0,0.0,0.0,0.0,0.0,0.0,0.0,0.0,0.0,0.0,0.0,0.0,0.0,0.0,0.0,0.0,0.0,0.0,0.0,0.0,0.0,0.0,0.0,0.0,0.0,0.0,0.0,0.0,0.0,0.0,0.0,0.0,0.0,0.0,0.0,0.0,0.0,0.0,0.0,0.0,0.0,0.0,0.0,0.0,0.0,0.0,0.0,0.0,0.0,0.0,0.0,0.0,0.0,0.0,0.0,0.0,0.0,0.0,0.0,0.0,0.0,0.0,0.0,0.0,0.0,0.0,0.0,0.0,0.0,0.0,0.0,0.0,0.0,0.0,0.0,0.0,0.0,0.0,0.0,0.0,0.0,0.0,0.0,0.0,0.0,0.0,0.0,0.0,0.0,0.0,0.0,0.0,0.0,0.0,0.0,0.0,0.0,0.0,0.0,0.1617,0.1952,0.2429,0.2837,0.3062,0.0,0.0,0.0,0.0,0.0,0.0,0.0,0.0,0.0,0.0,0.0,0.0,0.0,0.0,0.0,0.0,0.0,0.0,0.0,0.0,0.0,0.0,0.0,0.0,0.0,0.0,0.0,0.0,0.0,0.0,0.0,0.0,0.0,0.0,0.0,0.0,0.0,0.0,0.0,0.0,0.0,0.0,0.0,0.0,0.0,0.0,0.0,0.0,0.0,0.0,0.0,0.0,0.0,0.0,0.0,0.0,0.0,0.0,0.0,0.0,0.0,0.0,0.0,0.0,0.0,0.0,0.0,0.0,0.0,0.0,0.0,0.0,0.0,0.0,0.0,0.0,0.0,0.0,0.0,0.0,0.0,0.0,0.0,0.0,0.0,0.0,0.0,0.0,0.0,0.0,0.0,0.0,0.0,0.0,0.0,0.0,0.0,0.0,0.0,0.0,0.0,0.0,0.0,0.0,0.0,0.0,0.0,0.0,0.0,0.0,0.0,0.0,0.2522,0.2951,0.3127,0.0,0.0,0.0,0.0,0.0,0.0,0.0,0.0,0.0,0.0,0.0,0.0,0.0,0.0,0.0,0.0,0.0,0.0,0.0,0.0,0.0,0.0,0.0,0.0,0.0,0.0,0.0,0.0,0.0,0.0,0.0,0.0,0.0,0.0,0.0,0.0,0.0,0.0,0.0,0.0,0.0,0.0,0.0,0.0,0.0,0.0,0.0,0.0,0.0,0.0,0.0,0.0,0.0,0.0,0.0,0.0,0.0,0.0,0.0,0.0,0.0,0.0,0.0,0.0,0.0,0.0,0.0,0.0,0.0,0.0,0.0,0.0,0.0,0.0,0.0,0.0,0.0,0.0,0.0,0.0,0.0,0.0,0.0,0.0,0.0,0.0,0.0,0.0,0.0,0.0,0.0,0.0,0.0,0.0,0.0,0.0,0.0,0.0,0.0,0.0,0.0,0.0,0.0,0.0,0.0,0.0,0.0,0.0,0.0,0.0,0.2943,0.3378,0.347,0.0,0.4409,0.0,0.0,0.0,0.0,0.0,0.0,0.0,0.0,0.0,0.0,0.0,0.0,0.0,0.0,0.0,0.0,0.0,0.0,0.0,0.0,0.0,0.0,0.0,0.0,0.0,0.0,0.0,0.0,0.0,0.0,0.0,0.0,0.0,0.0,0.0,0.0,0.0,0.0,0.0,0.0,0.0,0.0,0.0,0.0,0.0,0.0,0.0,0.0,0.0,0.0,0.0,0.0,0.0,0.0,0.0,0.0,0.0,0.0,0.0,0.0,0.0,0.0,0.0,0.0,0.0,0.0,0.0,0.0,0.0,0.0,0.0,0.0,0.0,0.0,0.0,0.0,0.0,0.0,0.0,0.0,0.0,0.0,0.0,0.0,0.0,0.0,0.0,0.0,0.0,0.0,0.0,0.0,0.0,0.0,0.0,0.0,0.0,0.0,0.0,0.0,0.0,0.0,0.0,0.0,0.0,0.0,0.0,0.0,0.0,0.0,0.4043,0.3524,0.3486,0.3851,0.0,0.0,0.0,0.0,0.0,0.0,0.0,0.0,0.0,0.0,0.0,0.0,0.0,0.0,0.0,0.0,0.0,0.0,0.0,0.0,0.0,0.0,0.0,0.0,0.0,0.0,0.0,0.0,0.0,0.0,0.0,0.0,0.0,0.0,0.0,0.0,0.0,0.0,0.0,0.0,0.0,0.0,0.0,0.0,0.0,0.0,0.0,0.0,0.0,0.0,0.0,0.0,0.0,0.0,0.0,0.0,0.0,0.0,0.0,0.0,0.0,0.0,0.0,0.0,0.0,0.0,0.0,0.0,0.0,0.0,0.0,0.0,0.0,0.0,0.0,0.0,0.0,0.0,0.0,0.0,0.0,0.0,0.0,0.0,0.0,0.0,0.0,0.0,0.0,0.0,0.0,0.0,0.0,0.0,0.0,0.0,0.0,0.0,0.0,0.0,0.0,0.0,0.0,0.0,0.0,0.0,0.0,0.0,0.0,0.0,0.3626,0.4265,0.3534,0.3537,0.3902,0.4577,0.0,0.0,0.0,0.0,0.0,0.0,0.0,0.0,0.0,0.0,0.0,0.0,0.0,0.0,0.0,0.0,0.0,0.0,0.0,0.0,0.0,0.0,0.0,0.0,0.0,0.0,0.0,0.0,0.0,0.0,0.0,0.0,0.0,0.0,0.0,0.0,0.0,0.0,0.0,0.0,0.0,0.0,0.0,0.0,0.0,0.0,0.0,0.0,0.0,0.0,0.0,0.0,0.0,0.0,0.0,0.0,0.0,0.0,0.0,0.0,0.0,0.0,0.0,0.0,0.0,0.0,0.0,0.0,0.0,0.0,0.0,0.0,0.0,0.0,0.0,0.0,0.0,0.0,0.0,0.0,0.0,0.0,0.0,0.0,0.0,0.0,0.0,0.0,0.0,0.0,0.0,0.0,0.0,0.0,0.0,0.0,0.0,0.0,0.0,0.0,0.0,0.0,0.0,0.0,0.0,0.0,0.0,0.0,0.2496,0.2771,0.3084,0.3584,0.3844,0.4198,0.0,0.0,0.0,0.0,0.0,0.0,0.0,0.0,0.0,0.0,0.0,0.0,0.0,0.0,0.0,0.0,0.0,0.0,0.0,0.0,0.0,0.0,0.0,0.0,0.0,0.0,0.0,0.0,0.0,0.0,0.0,0.0,0.0,0.0,0.0,0.0,0.0,0.0,0.0,0.0,0.0,0.0,0.0,0.0,0.0,0.0,0.0,0.0,0.0,0.0,0.0,0.0,0.0,0.0,0.0,0.0,0.0,0.0,0.0,0.0,0.0,0.0,0.0,0.0,0.0,0.0,0.0,0.0,0.0,0.0,0.0,0.0,0.0,0.0,0.0,0.0,0.0,0.0,0.0,0.0,0.0,0.0,0.0,0.0,0.0,0.0,0.0,0.0,0.0,0.0,0.0,0.0,0.0,0.0,0.0,0.0,0.0,0.0,0.0,0.0,0.0,0.0,0.0,0.0,0.0,0.0,0.0,0.0,0.0,0.0944,0.1723,0.2781,0.4075,0.4086,0.4353,0.0,0.0,0.0,0.0,0.0,0.0,0.0,0.0,0.0,0.0,0.0,0.0,0.0,0.0,0.0,0.0,0.0,0.0,0.0,0.0,0.0,0.0,0.0,0.0,0.0,0.0,0.0,0.0,0.0,0.0,0.0,0.0,0.0,0.0,0.0,0.0,0.0,0.0,0.0,0.0,0.0,0.0,0.0,0.0,0.0,0.0,0.0,0.0,0.0,0.0,0.0,0.0,0.0,0.0,0.0,0.0,0.0,0.0,0.0,0.0,0.0,0.0,0.0,0.0,0.0,0.0,0.0,0.0,0.0,0.0,0.0,0.0,0.0,0.0,0.0,0.0,0.0,0.0,0.0,0.0,0.0,0.0,0.0,0.0,0.0,0.0,0.0,0.0,0.0,0.0,0.0,0.0,0.0,0.0,0.0,0.0,0.0,0.0,0.0,0.0,0.0,0.0,0.0,0.0,0.0,0.0,0.0,0.0,0.0,0.0,0.0,0.2657,0.3877,0.412,0.4439,0.0,0.0,0.0,0.0,0.0,0.0,0.0,0.0,0.0,0.0,0.0,0.0,0.0,0.0,0.0,0.0,0.0,0.0,0.0,0.0,0.0,0.0,0.0,0.0,0.0,0.0,0.0,0.0,0.0,0.0,0.0,0.0,0.0,0.0,0.0,0.0,0.0,0.0,0.0,0.0,0.0,0.0,0.0,0.0,0.0,0.0,0.0,0.0,0.0,0.0,0.0,0.0,0.0,0.0,0.0,0.0,0.0,0.0,0.0,0.0,0.0,0.0,0.0,0.0,0.0,0.0,0.0,0.0,0.0,0.0,0.0,0.0,0.0,0.0,0.0,0.0,0.0,0.0,0.0,0.0,0.0,0.0,0.0,0.0,0.0,0.0,0.0,0.0,0.0,0.0,0.0,0.0,0.0,0.0,0.0,0.0,0.0,0.0,0.0,0.0,0.0,0.0,0.0,0.0,0.0,0.0,0.0,0.0,-0.1648,0.01,0.1825,0.2722,0.2796,0.4048,0.4517,0.0,0.0,0.0,0.0,0.0,0.0,0.0,0.0,0.0,0.0,0.0,0.0,0.0,0.0,0.0,0.0,0.0,0.0,0.0,0.0,0.0,0.0,0.0,0.0,0.0,0.0,0.0,0.0,0.0,0.0,0.0,0.0,0.0,0.0,0.0,0.0,0.0,0.0,0.0,0.0,0.0,0.0,0.0,0.0,0.0,0.0,0.0,0.0,0.0,0.0,0.0,0.0,0.0,0.0,0.0,0.0,0.0,0.0,0.0,0.0,0.0,0.0,0.0,0.0,0.0,0.0,0.0,0.0,0.0,0.0,0.0,0.0,0.0,0.0,0.0,0.0,0.0,0.0,0.0,0.0,0.0,0.0,0.0,0.0,0.0,0.0,0.0,0.0,0.0,0.0,0.0,0.0,0.0,0.0,0.0,0.0,0.0,0.0,0.0,0.0,0.0,0.0,0.0,0.0,0.0,0.0,0.0,0.0,0.0,0.3671,0.3054,0.3296,0.4532,0.4816,0.4933,0.0,0.0,0.0,0.0,0.0,0.0,0.0,0.0,0.0,0.0,0.0,0.0,0.0,0.0,0.0,0.0,0.0,0.0,0.0,0.0,0.0,0.0,0.0,0.0,0.0,0.0,0.0,0.0,0.0,0.0,0.0,0.0,0.0,0.0,0.0,0.0,0.0,0.0,0.0,0.0,0.0,0.0,0.0,0.0,0.0,0.0,0.0,0.0,0.0,0.0,0.0,0.0,0.0,0.0,0.0,0.0,0.0,0.0,0.0,0.0,0.0,0.0,0.0,0.0,0.0,0.0,0.0,0.0,0.0,0.0,0.0,0.0,0.0,0.0,0.0,0.0,0.0,0.0,0.0,0.0,0.0,0.0,0.0,0.0,0.0,0.0,0.0,0.0,0.0,0.0,0.0,0.0,0.0,0.0,0.0,0.0,0.0,0.0,0.0,0.0,0.0,0.0,0.0,0.0,0.0,0.0,0.0,0.0,0.0,0.551,0.4313,0.4355,0.5649,0.5457,0.546,0.5687,0.0,0.0,0.0,0.0,0.0,0.0,0.0,0.0,0.0,0.0,0.0,0.0,0.0,0.0,0.0,0.0,0.0,0.0,0.0,0.0,0.0,0.0,0.0,0.0,0.0,0.0,0.0,0.0,0.0,0.0,0.0,0.0,0.0,0.0,0.0,0.0,0.0,0.0,0.0,0.0,0.0,0.0,0.0,0.0,0.0,0.0,0.0,0.0,0.0,0.0,0.0,0.0,0.0,0.0,0.0,0.0,0.0,0.0,0.0,0.0,0.0,0.0,0.0,0.0,0.0,0.0,0.0,0.0,0.0,0.0,0.0,0.0,0.0,0.0,0.0,0.0,0.0,0.0,0.0,0.0,0.0,0.0,0.0,0.0,0.0,0.0,0.0,0.0,0.0,0.0,0.0,0.0,0.0,0.0,0.0,0.0,0.0,0.0,0.0,0.0,0.0,0.0,0.0,0.0,0.0,0.0,0.0,0.0,0.5849,0.5599,0.5706,0.6186,0.5977,0.6051,0.0,0.0,0.0,0.0,0.0,0.0,0.0,0.0,0.0,0.0,0.0,0.0,0.0,0.0,0.0,0.0,0.0,0.0,0.0,0.0,0.0,0.0,0.0,0.0,0.0,0.0,0.0,0.0,0.0,0.0,0.0,0.0,0.0,0.0,0.0,0.0,0.0,0.0,0.0,0.0,0.0,0.0,0.0,0.0,0.0,0.0,0.0,0.0,0.0,0.0,0.0,0.0,0.0,0.0,0.0,0.0,0.0,0.0,0.0,0.0,0.0,0.0,0.0,0.0,0.0,0.0,0.0,0.0,0.0,0.0,0.0,0.0,0.0,0.0,0.0,0.0,0.0,0.0,0.0,0.0,0.0,0.0,0.0,0.0,0.0,0.0,0.0,0.0,0.0,0.0,0.0,0.0,0.0,0.0,0.0,0.0,0.0,0.0,0.0,0.0,0.0,0.0,0.0,0.0,0.0,0.0,0.0,0.0,0.0,0.6331,0.5985,0.5993,0.6662,0.6639,0.6723,0.0,0.0,0.0,0.0,0.0,0.0,0.0,0.0,0.0,0.0,0.0,0.0,0.0,0.0,0.0,0.0,0.0,0.0,0.0,0.0,0.0,0.0,0.0,0.0,0.0,0.0,0.0,0.0,0.0,0.0,0.0,0.0,0.0,0.0,0.0,0.0,0.0,0.0,0.0,0.0,0.0,0.0,0.0,0.0,0.0,0.0,0.0,0.0,0.0,0.0,0.0,0.0,0.0,0.0,0.0,0.0,0.0,0.0,0.0,0.0,0.0,0.0,0.0,0.0,0.0,0.0,0.0,0.0,0.0,0.0,0.0,0.0,0.0,0.0,0.0,0.0,0.0,0.0,0.0,0.0,0.0,0.0,0.0,0.0,0.0,0.0,0.0,0.0,0.0,0.0,0.0,0.0,0.0,0.0,0.0,0.0,0.0,0.0,0.0,0.0,0.0,0.0,0.0,0.0,0.0,0.0,0.0,0.0,0.4397,0.6459,0.6798,0.7186,0.7794,0.7451,0.7395,0.0,0.0,0.0,0.0,0.0,0.0,0.0,0.0,0.0,0.0,0.0,0.0,0.0,0.0,0.0,0.0,0.0,0.0,0.0,0.0,0.0,0.0,0.0,0.0,0.0,0.0,0.0,0.0,0.0,0.0,0.0,0.0,0.0,0.0,0.0,0.0,0.0,0.0,0.0,0.0,0.0,0.0,0.0,0.0,0.0,0.0,0.0,0.0,0.0,0.0,0.0,0.0,0.0,0.0,0.0,0.0,0.0,0.0,0.0,0.0,0.0,0.0,0.0,0.0,0.0,0.0,0.0,0.0,0.0,0.0,0.0,0.0,0.0,0.0,0.0,0.0,0.0,0.0,0.0,0.0,0.0,0.0,0.0,0.0,0.0,0.0,0.0,0.0,0.0,0.0,0.0,0.0,0.0,0.0,0.0,0.0,0.0,0.0,0.0,0.0,0.0,0.0,0.0,0.0,0.0,0.0,0.0,0.0,0.4649,0.6317,0.7672,0.8626,0.9094,0.8344,0.8236,0.0,0.0,0.0,0.0,0.0,0.0,0.0,0.0,0.0,0.0,0.0,0.0,0.0,0.0,0.0,0.0,0.0,0.0,0.0,0.0,0.0,0.0,0.0,0.0,0.0,0.0,0.0,0.0,0.0,0.0,0.0,0.0,0.0,0.0,0.0,0.0,0.0,0.0,0.0,0.0,0.0,0.0,0.0,0.0,0.0,0.0,0.0,0.0,0.0,0.0,0.0,0.0,0.0,0.0,0.0,0.0,0.0,0.0,0.0,0.0,0.0,0.0,0.0,0.0,0.0,0.0,0.0,0.0,0.0,0.0,0.0,0.0,0.0,0.0,0.0,0.0,0.0,0.0,0.0,0.0,0.0,0.0,0.0,0.0,0.0,0.0,0.0,0.0,0.0,0.0,0.0,0.0,0.0,0.0,0.0,0.0,0.0,0.0,0.0,0.0,0.0,0.0,0.0,0.0,0.0,0.0,0.0,0.0,0.6022,0.6709,0.7797,0.8693,0.9243,0.9355,0.9444,0.0,0.0,0.0,0.0,0.0,0.0,0.0,0.0,0.0,0.0,0.0,0.0,0.0,0.0,0.0,0.0,0.0,0.0,0.0,0.0,0.0,0.0,0.0,0.0,0.0,0.0,0.0,0.0,0.0,0.0,0.0,0.0,0.0,0.0,0.0,0.0,0.0,0.0,0.0,0.0,0.0,0.0,0.0,0.0,0.0,0.0,0.0,0.0,0.0,0.0,0.0,0.0,0.0,0.0,0.0,0.0,0.0,0.0,0.0,0.0,0.0,0.0,0.0,0.0,0.0,0.0,0.0,0.0,0.0,0.0,0.0,0.0,0.0,0.0,0.0,0.0,0.0,0.0,0.0,0.0,0.0,0.0,0.0,0.0,0.0,0.0,0.0,0.0,0.0,0.0,0.0,0.0,0.0,0.0,0.0,0.0,0.0,0.0,0.0,0.0,0.0,0.0,0.0,0.0,0.0,0.0,0.0,0.0,0.6533,0.6746,0.8534,0.9445,0.9537,1.0496,1.0606,0.0,0.0,0.0,0.0,0.0,0.0,0.0,0.0,0.0,0.0,0.0,0.0,0.0,0.0,0.0,0.0,0.0,0.0,0.0,0.0,0.0,0.0,0.0,0.0,0.0,0.0,0.0,0.0,0.0,0.0,0.0,0.0,0.0,0.0,0.0,0.0,0.0,0.0,0.0,0.0,0.0,0.0,0.0,0.0,0.0,0.0,0.0,0.0,0.0,0.0,0.0,0.0,0.0,0.0,0.0,0.0,0.0,0.0,0.0,0.0,0.0,0.0,0.0,0.0,0.0,0.0,0.0,0.0,0.0,0.0,0.0,0.0,0.0,0.0,0.0,0.0,0.0,0.0,0.0,0.0,0.0,0.0,0.0,0.0,0.0,0.0,0.0,0.0,0.0,0.0,0.0,0.0,0.0,0.0,0.0,0.0,0.0,0.0,0.0,0.0,0.0,0.0,0.0,0.0,0.0,0.0,0.0,0.6599,0.6751,0.6805,0.9298,1.0314,0.9715,1.1371,1.1585,1.0064,0.0,0.0,0.0,0.0,0.0,0.0,0.0,0.0,0.0,0.0,0.0,0.0,0.0,0.0,0.0,0.0,0.0,0.0,0.0,0.0,0.0,0.0,0.0,0.0,0.0,0.0,0.0,0.0,0.0,0.0,0.0,0.0,0.0,0.0,0.0,0.0,0.0,0.0,-0.2065,0.1637,0.0,0.0,0.0,0.0,0.0,0.0,0.0,0.0,0.2272,0.0,0.0,0.0,0.0,0.0,0.0,0.0,0.0,0.0,0.0,0.0,0.0,0.0,0.0,0.0,0.0,0.0,0.0,0.0,0.0,0.0,0.0,0.0,0.0,0.0,0.0,0.0,0.0,0.0,0.0,0.0,0.0,0.0,0.0,0.0,0.0,0.0,0.0,0.0,0.0,0.0,0.0,0.0,0.0,0.0,0.0,0.0,0.0,0.0,0.0,0.0,0.0,0.0,0.0,0.0,0.0,0.622,0.6764,0.6962,0.6878,0.9284,1.0319,0.9796,1.1371,1.1977,1.1298,0.0,0.0,0.0,0.0,0.0,0.0,0.0,0.0,0.0,0.0,0.0,0.0,0.0,0.0,0.0,0.0,0.0,0.0,0.0,0.0,0.0,0.0,0.0,0.0,0.0,0.0,0.0,0.0,0.0,0.0,0.0,0.0,0.0,0.0,0.0,0.0,0.0,0.0,0.0,0.1478,0.3329,0.0,0.0,0.0,0.0,0.0,0.0,0.0,0.0,0.2506,0.0,0.0,0.0,0.0,0.0,0.0,0.0,0.0,0.0,0.0,0.0,0.0,0.0,0.0,0.0,0.0,0.0,0.0,0.0,0.0,0.0,0.0,0.0,0.0,0.0,0.0,0.0,0.0,0.0,0.0,0.0,0.0,0.0,0.0,0.0,0.0,0.0,0.0,0.0,0.0,0.0,0.0,0.0,0.0,0.0,0.0,0.0,0.0,0.0,0.0,0.0,0.0,0.0,0.0,0.0,0.5864,0.6742,0.7093,0.7104,0.9352,1.0319,0.9796,1.131,1.2087,0.0,0.0,0.0,0.0,0.0,0.0,0.0,0.0,0.0,0.0,0.0,0.0,0.0,0.0,0.0,0.0,0.0,0.0,0.0,0.0,0.0,0.0,0.0,0.0,0.0,0.0,0.0,0.0,0.0,0.0,0.0,0.0,0.0,0.0,0.0,0.0,0.0,0.0,0.0,0.0,0.0052,0.3135,0.4777,0.0,0.0,0.0,0.0,0.0,0.0,0.4214,0.3669,0.0,0.0,0.0,0.0,0.0,0.0,0.0,0.0,0.0,0.0,0.0,0.0,0.0,0.0,0.0,0.0,0.0,0.0,0.0,0.0,0.0,0.0,0.0,0.0,0.0,0.0,0.0,0.0,0.0,0.0,0.0,0.0,0.0,0.0,0.0,0.0,0.0,0.0,0.0,0.0,0.0,0.0,0.0,0.0,0.0,0.0,0.0,0.0,0.0,0.0,0.0,0.0,0.0,0.0,0.0,0.5813,0.6707,0.7252,0.7552,0.9488,1.0398,1.0115,1.1455,1.2087,0.0,0.0,0.0,0.0,0.0,0.0,0.0,0.0,0.0,0.0,0.0,0.0,0.0,0.0,0.0,0.0,0.0,0.0,0.0,0.0,0.0,0.0,0.0,0.0,0.0,0.0,0.0,0.0,0.0,0.0,0.0,0.0,0.0,0.0,0.0,0.0,0.0,0.0,0.0,0.0,0.0,0.2822,0.5204,0.4883,0.0,0.0,0.0,0.0,0.4623,0.4748,0.0,0.0,0.0,0.0,0.0,0.0,0.0,0.0,0.0,0.0,0.0,0.0,0.0,0.0,0.0,0.0,0.0,0.0,0.0,0.0,0.0,0.0,0.0,0.0,0.0,0.0,0.0,0.0,0.0,0.0,0.0,0.0,0.0,0.0,0.0,0.0,0.0,0.0,0.0,0.0,0.0,0.0,0.0,0.0,0.0,0.0,0.0,0.0,0.0,0.0,0.0,0.0,0.0,0.0,0.0,0.0,0.6403,0.6916,0.7631,0.8678,0.9923,1.0821,1.1255,1.1923,1.2135,0.0,0.0,0.0,0.0,0.0,0.0,0.0,0.0,0.0,0.0,0.0,0.0,0.0,0.0,0.0,0.0,0.0,0.0,0.0,0.0,0.0,0.0,0.0,0.0,0.0,0.0,0.0,0.0,0.0,0.0,0.0,0.0,0.0,0.0,0.0,0.0,0.0,0.0,0.0,0.0,0.0,0.1926,0.5698,0.5417,0.476,0.0,0.0,0.384,0.5577,0.5667,0.0,0.0,0.0,0.0,0.0,0.0,0.0,0.0,0.0,0.0,0.0,0.0,0.0,0.0,0.0,0.0,0.0,0.0,0.0,0.0,0.0,0.0,0.0,0.0,0.0,0.0,0.0,0.0,0.0,0.0,0.0,0.0,0.0,0.0,0.0,0.0,0.0,0.0,0.0,0.0,0.0,0.0,0.0,0.0,0.0,0.0,0.0,0.0,0.0,0.0,0.0,0.0,0.0,0.0,0.0,0.2239,0.6554,0.8258,0.906,0.8956,1.0611,1.1578,1.1496,1.197,1.1902,0.0,0.0,0.0,0.0,0.0,0.0,0.0,0.0,0.0,0.0,0.0,0.0,0.0,0.0,0.0,0.0,0.0,0.0,0.0,0.0,0.0,0.0,0.0,0.0,0.0,0.0,0.0,0.0,0.0,0.0,0.0,0.0,0.0,0.0,0.0,0.0,0.0,0.0,0.0,0.0,0.0,0.0,0.5607,0.5966,0.0,0.0,0.0,0.4981,0.5748,0.0,0.0,0.0,0.0,0.0,0.0,0.0,0.0,0.0,0.0,0.0,0.0,0.0,0.0,0.0,0.0,0.0,0.0,0.0,0.0,0.0,0.0,0.0,0.0,0.0,0.0,0.0,0.0,0.0,0.0,0.0,0.0,0.0,0.0,0.0,0.0,0.0,0.0,0.0,0.0,0.0,0.0,0.0,0.0,0.0,0.0,0.0,0.0,0.0,0.0,0.0,0.0,0.0,0.0,0.0,0.0,0.0,0.663,0.9301,1.0173,0.9396,1.1295,1.2171,1.1982,1.2151,0.0,0.0,0.0,0.0,0.0,0.0,0.0,0.0,0.0,0.0,0.0,0.0,0.0,0.0,0.0,0.0,0.0,0.0,0.0,0.0,0.0,0.0,0.0,0.0,0.0,0.0,0.0,0.017,0.0,0.0,0.0,0.0,0.0,0.0,0.0,0.0,0.0,0.0,0.0,0.0,0.0,0.0,0.0614,0.5911,0.6459,0.6364,0.0,0.0,0.6084,0.6095,0.6064,0.5657,0.0,0.0,0.0,0.0,0.0,0.0,0.0,0.0,0.0,0.0,0.0,0.0,0.0,0.0,0.0,0.0,0.0,0.0,0.0,0.0,0.0,0.0,0.0,0.0,0.0,0.0,0.0,0.0,0.0,0.0,0.0,0.0,0.0,0.0,0.0,0.0,0.0,0.0,0.0,0.0,0.0,0.0,0.0,0.0,0.0,0.0,0.0,0.0,0.0,0.0,0.0,0.0,0.0,0.0,0.5011,0.6698,0.9301,1.059,1.0509,1.1638,1.26,1.3055,1.2579,1.1566,0.0,0.0,0.0,0.0,0.0,0.0,0.0,0.0,0.0,0.0,0.0,0.0,0.0,0.0,0.0,0.0,0.0,0.0,0.0,0.0,0.0,0.0,0.0,0.0,0.0,0.0,0.0,0.0,0.0,0.0,0.0,0.0,0.0,0.0,0.0,0.0,0.0,0.0,0.0,0.0,0.0,0.1725,0.6799,0.6976,0.6652,0.0,0.6939,0.6854,0.6851,0.7071,0.6807,0.5511,0.0,0.0,0.0,0.0,0.0,0.0,0.0,0.0,0.0,0.0,0.0,0.0,0.0,0.0,0.0,0.0,0.0,0.0,0.0,0.0,0.0,0.0,0.0,0.0,0.0,0.0,0.0,0.0,0.0,0.0,0.0,0.0,0.0,0.0,0.0,0.0,0.0,0.0,0.0,0.0,0.0,0.0,0.0,0.0,0.0,0.0,0.0,0.0,0.0,0.0,0.0,0.0,0.0,0.5232,0.669,0.9252,1.0626,1.0677,1.2431,1.3367,1.322,1.2619,1.1572,0.0,0.0,0.0,0.0,0.0,0.0,0.0,0.0,0.0,0.0,0.0,0.0,0.0,0.0,0.0,0.0,0.0,0.0,0.0,0.0,0.0,0.0,0.0,0.0,0.0,0.0,0.0,0.0,0.2705,0.2437,0.2693,0.0,0.0,0.0,0.0,0.0,0.0,0.0,0.0,0.0,0.0,0.18,0.6647,0.7379,0.0,0.0,0.7316,0.7343,0.7346,0.7126,0.6685,0.5749,0.5272,0.0,0.0,0.0,0.0,0.0,0.0,0.0,0.0,0.0,0.0,0.0,0.0,0.0,0.0,0.0,0.0,0.0,0.0,0.0,0.0,0.0,0.0,0.0,0.0,0.0,0.0,0.0,0.0,0.0,0.0,0.0,0.0,0.0,0.0,0.0,0.0,0.0,0.0,0.0,0.0,0.0,0.0,0.0,0.0,0.0,0.0,0.0,0.0,0.0,0.0,0.0,0.0,0.5225,0.6682,0.9228,1.06,1.0595,1.2863,1.3848,1.3353,1.2759,1.175,0.0,0.0,0.0,0.0,0.0,0.0,0.0,0.0,0.0,0.0,0.0,0.0,0.0,0.0,0.0,0.0,0.0,0.0,0.0,0.0,0.0,0.0,0.0,0.0,0.0,0.0,0.0,0.0,0.3004,0.2698,0.268,0.0,0.0,0.0,0.0,0.0,0.0,0.0,0.0,0.0,0.0,0.3542,0.6843,0.7566,0.7738,0.7499,0.7478,0.7475,0.7619,0.7265,0.6719,0.595,0.0,0.0,0.0,0.0,0.0,0.0,0.0,0.0,0.0,0.0,0.0,0.0,0.0,0.0,0.0,0.0,0.0,0.0,0.0,0.0,0.0,0.0,0.0,0.0,0.0,0.0,0.0,0.2936,0.0,0.0,0.3629,0.0,0.0,0.0,0.0,0.0,0.0,0.0,0.0,0.0,0.0,0.0,0.0,0.0,0.0,0.0,0.0,0.0,0.0,0.0,0.0,0.0,0.0,0.5229,0.6678,0.9306,1.06,1.0682,1.2869,1.3941,1.3546,1.3046,1.2116,1.0638,0.0,0.0,0.0,0.0,0.0,0.0,0.0,0.0,0.0,0.0,0.0,0.0,0.0,0.0,0.0,0.0,0.0,0.0,0.0,0.0,0.0,0.0,0.0,0.0,0.0,0.0,0.3154,0.2853,0.2687,0.0,0.0,0.0,0.0,0.0,0.0,0.0,0.0,0.0,0.7241,0.7905,0.7778,0.7709,0.7502,0.7543,0.7777,0.7441,0.7217,0.7377,0.7363,0.7109,0.0,0.0,0.0,0.0,0.0,0.0,0.0,0.0,0.0,0.0,0.0,0.0,0.0,0.0,0.0,0.0,0.0,0.0,0.0,0.0,0.0,0.0,0.0,0.0,0.0,0.0,0.0,0.3519,0.4792,0.0,0.0,0.0,0.0,0.0,0.0,0.0,0.0,0.0,0.0,0.0,1.0602,1.0576,0.0,0.0,0.0,0.0,0.0,0.0,0.0,0.0,0.0,0.0,0.0,0.0,0.5222,0.6742,0.9306,1.06,1.0682,1.2863,1.3948,1.3566,1.306,1.2111,1.065,0.0,0.0,0.0,0.0,0.0,0.0,0.0,0.0,0.0,0.0,0.0,0.0,0.0,0.0,0.0,0.0,0.0,0.0,0.0,0.0,0.0,0.0,0.0,0.0,0.0,0.322,0.0,0.0,0.0,0.0,0.0,0.0,0.0,0.0,0.0,0.0,0.0,0.3599,0.6992,0.7625,0.767,0.7677,0.7651,0.7694,0.0,0.0,0.0,0.0,0.0,0.0,0.0,0.0,0.0,0.0,0.0,0.0,0.0,0.0,0.4014,0.0645,0.0,0.0,0.0,0.0,0.0,0.0,0.0,0.0,0.0,0.0,0.0,0.0,0.0,0.0,0.0,0.0,0.0,0.6244,0.6615,0.6153,0.0,0.0,0.0,0.0,0.0,0.0,0.0,0.0,0.8908,1.1437,1.1845,1.2582,1.2133,0.0,0.9458,0.7863,0.0,0.0,0.0,0.0,0.0,0.0,0.0,0.0,0.5154,0.6611,0.9252,1.0773,1.1047,1.3052,1.3995,1.3794,1.3113,1.226,1.1066,0.9751,0.8718,0.0,0.0,0.0,0.0,0.0,0.0,0.0,0.0,0.0,0.0,0.0,0.0,0.0,0.0,0.0,0.0,0.0,0.0,0.0,0.0,0.0,0.0,0.0,0.3063,0.0,0.0,0.0,0.0,0.0,0.0,0.0,0.0,0.0,0.7221,0.6037,0.5597,0.7238,0.7553,0.7759,0.7651,0.0,0.0,0.0,0.0,0.0,0.0,0.0,0.7269,0.7214,0.7195,0.7197,0.7245,0.7629,0.7852,0.7984,0.0,0.0,0.2103,0.0587,0.0,0.0,0.0,0.0,0.0,0.0,0.0,0.0,0.0,0.0,0.0,0.0,0.0,0.0,0.0,1.1731,1.0653,0.0,0.8713,0.0,0.0,0.0,0.0,0.5288,0.3969,0.0,0.0,0.9729,1.3007,1.4037,1.4067,1.4064,1.3966,1.2143,1.0611,0.9395,0.6523,0.0,0.0,0.0,0.0,0.0,0.0,0.5094,0.641,0.9195,1.1006,1.1802,1.3332,1.4082,1.4041,1.3213,1.2553,1.1942,1.1067,1.0363,0.9723,0.8038,0.0,0.0,0.0,0.0,0.0,0.0,0.0,0.0,0.0,0.0,0.0,0.0,0.0,0.0,0.0,0.0,0.0,0.0,0.0,0.0,0.3054,0.0,0.0,0.0,0.0,0.0,0.0,0.0,0.0,0.0,0.0,0.7854,0.7692,0.7692,0.7916,0.0,0.0,0.0,0.0,0.7882,0.8038,0.7814,0.7736,0.8018,0.8041,0.7878,0.7456,0.0,0.0,0.7719,0.8004,0.8157,0.7729,0.8031,0.7378,0.4407,0.2089,0.0,0.0,0.0,0.0,0.0,0.0,0.0,1.187,0.0,0.0,0.0,0.0,0.8889,1.0413,1.2472,1.2323,1.1479,1.023,1.1456,0.0,0.0,0.0,0.0,0.0,0.0,0.6589,0.6933,1.1459,1.3804,1.4085,1.4121,1.4065,1.4044,1.3133,1.2005,1.0876,0.8891,0.6866,0.4879,0.0,0.0,0.0,0.0,0.5684,0.6912,0.9337,1.0984,1.1804,1.33,1.3988,1.3768,1.332,1.2792,1.2198,1.197,1.1348,1.0377,0.9432,0.0,0.0,0.0,0.0,0.0,0.0,0.0,0.0,0.0,0.0,0.0,0.0,0.0,0.0,0.0,0.0,0.0,0.0,0.0,0.3051,0.3216,0.3489,0.0,0.0,0.0,0.0,0.0,0.0,0.0,0.0,0.0,0.8139,0.7665,0.7385,0.0,0.0,0.7962,0.796,0.8065,0.8191,0.8336,0.8282,0.0,0.834,0.8177,0.7995,0.8156,0.8455,0.8683,0.8557,0.8662,0.8706,0.8564,0.8632,0.8363,0.7672,0.691,0.4874,0.0,0.0,0.0,0.0,0.0,0.0,1.4901,1.3407,1.2209,1.1081,1.0239,1.058,1.1921,1.3884,1.3311,1.2755,1.2452,1.2934,1.188,0.9575,0.9259,0.0,0.0,0.0,0.9802,1.0156,1.2808,1.4118,1.4162,1.4349,1.4441,1.4443,1.3964,1.333,1.2542,1.0523,0.874,0.7031,0.0,0.0,0.4319,0.5294,0.6235,0.7198,1.0336,1.2202,1.2673,1.3593,1.4001,1.3821,1.354,1.3153,1.2672,1.2432,1.1977,1.1286,1.0509,0.933,0.0,0.0,0.0,0.0,0.0,0.0,0.0,0.0,0.0,0.0,0.0,0.3168,0.3939,0.0,0.0,0.0,0.3147,0.344,0.3484,0.383,0.0,0.0,0.0,0.0,0.0,0.0,0.0,0.7036,0.7403,0.7797,0.8197,0.7935,0.7744,0.7936,0.8124,0.8213,0.8201,0.0,0.8408,0.855,0.8574,0.8594,0.8652,0.8513,0.8459,0.8632,0.8737,0.8937,0.8916,0.8937,0.8937,0.8937,0.8937,0.8937,0.8937,0.8894,0.7089,0.0,0.0,0.0,0.0,0.0,0.0,1.813,1.7439,1.4866,1.3284,1.2548,1.2548,1.3438,1.4902,1.4441,1.4334,1.4449,1.3763,1.291,1.2029,1.1307,0.0,1.1942,1.2343,1.2762,1.3374,1.3967,1.4209,1.4251,1.4757,1.5066,1.5046,1.4689,1.4416,1.4064,1.1815,1.029,0.952,0.6321,0.4981,0.5445,0.6028,0.6573,0.7134,1.1481,1.3918,1.4097,1.4097,1.4075,1.4041,1.3761,1.3467,1.3166,1.2605,1.2317,1.2296,1.1224,1.0118,0.8968,0.0,0.0,0.0,0.0,0.0,0.0,0.0,0.0,0.0,0.0,0.0,0.0,0.0,0.0,0.0,0.424,0.0,0.3995,0.4664,0.0,0.0,0.0,0.5436,0.5566,0.647,0.716,0.7146,0.0,0.0,0.8269,0.8428,0.8516,0.8516,0.8509,0.8503,0.8499,0.8513,0.8567,0.871,0.873,0.8777,0.8886,0.8896,0.8886,0.8906,0.8937,0.8933,0.8937,0.8937,0.8937,0.8937,0.8937,0.8937,0.8937,0.8933,0.716,0.2001,0.0,0.0,0.0,0.0,0.0,2.0156,1.996,1.9265,1.7274,1.4548,1.4359,1.4683,1.5144,1.5374,1.5094,1.4509,1.4984,1.4628,1.3602,1.3616,1.3651,1.3848,1.4216,1.4454,1.4556,1.5157,1.5397,1.5376,1.5569,1.5576,1.5569,1.5095,1.4823,1.4661,1.3236,1.1949,1.0793,0.797,0.6179,0.5761,0.6528,0.6968,0.7087,0.9937,1.2318,1.4064,1.4108,1.3981,1.3754,1.3467,1.3166,1.2943,1.2505,1.2308,1.2269,1.1581,1.0913,1.0193,0.7875,0.0,0.0,0.0,0.0,0.0,0.0,0.0,0.0,0.0,0.4353,0.5347,0.0,0.4684,0.0,0.4796,0.4788,0.3823,0.4669,0.0,0.0,0.6016,0.5793,0.6807,0.7198,0.7476,0.777,0.8012,0.8183,0.8581,0.8737,0.8832,0.8828,0.8838,0.8766,0.8659,0.8757,0.8842,0.8872,0.8879,0.8896,0.893,0.8937,0.8937,0.8937,0.8937,0.8937,0.8937,0.8937,0.8937,0.8937,0.8937,0.8937,0.8937,0.8944,0.8504,0.6834,0.324,0.0,0.0,0.0,0.0,2.1455,2.1786,1.9937,1.8275,1.6657,1.5792,1.6026,1.7095,1.6192,1.5564,1.5291,1.5535,1.5246,1.4496,1.4643,1.479,1.4917,1.498,1.5119,1.5344,1.5667,1.5773,1.5773,1.5773,1.5773,1.5759,1.5413,1.5157,1.506,1.3822,1.2575,1.1273,0.8627,0.7019,0.6436,0.6877,0.7101,0.7166,1.0479,1.2814,1.4004,1.4088,1.3948,1.3572,1.3487,1.3133,1.2572,1.2641,1.2518,1.2012,1.1383,1.0786,1.0356,0.8672,0.7327,0.0,0.0,0.0,0.0,0.0,0.0,0.0,0.0,0.0,0.0,0.0,0.5493,0.5142,0.5576,0.5352,0.4127,0.5272,0.6583,0.7685,0.6922,0.6692,0.7607,0.7729,0.7919,0.8296,0.8374,0.8531,0.8791,0.8886,0.8937,0.8937,0.8866,0.892,0.8818,0.8889,0.8937,0.8937,0.8937,0.8937,0.8937,0.8937,0.8937,0.8937,0.8937,0.8937,0.8937,0.8937,0.8937,0.8937,0.8937,0.8937,0.8937,0.8937,0.895,0.8298,0.5256,0.1899,0.0,0.0,0.0,2.2486,2.2983,1.9302,1.8246,1.895,1.726,1.7598,1.9147,1.7016,1.611,1.6299,1.5778,1.5404,1.5137,1.5137,1.5244,1.5451,1.5239,1.5378,1.5818,1.5825,1.5825,1.5825,1.5825,1.5825,1.5818,1.5578,1.5451,1.5444,1.4166,1.294,1.1544,0.933,0.7847,0.724,0.7255,0.7513,0.8136,1.2023,1.413,1.4142,1.4108,1.3928,1.3607,1.3554,1.3126,1.2291,1.2746,1.2569,1.1772,1.1068,1.0535,1.0232,0.9636,0.8726,0.0,0.6576,0.0,0.0,0.0,0.0,0.0,0.0,0.0,0.0,0.6246,0.6256,0.5856,0.6366,0.6229,0.5132,0.6358,0.7419,0.7963,0.7794,0.7632,0.8002,0.8248,0.8435,0.8706,0.8629,0.8679,0.8913,0.8937,0.8937,0.8937,0.8933,0.8923,0.8933,0.8933,0.8937,0.8937,0.8937,0.8937,0.8937,0.8937,0.8937,0.8937,0.8937,0.8937,0.8937,0.8937,0.8937,0.8937,0.8937,0.8937,0.8937,0.8944,0.895,0.8863,0.6831,0.4027,0.0,0.0,0.0,2.3439,2.3467,2.1653,2.0998,2.1059,2.0688,1.9363,1.732,1.7299,1.6966,1.6613,1.6289,1.6182,1.6032,1.6025,1.5925,1.5752,1.5651,1.567,1.5825,1.5825,1.5825,1.5825,1.5825,1.5825,1.5825,1.5778,1.5752,1.5745,1.5497,1.4697,1.3339,1.1811,0.9984,0.7962,0.0,0.0,0.0,1.385,1.4169,1.4429,1.4208,1.3834,1.3313,1.3046,0.0,1.1997,1.1787,1.1706,1.1696,1.1368,0.0,0.0,0.0,0.0,0.0,0.0,0.0,0.0,0.0,0.0,0.0,0.408,0.4535,0.6347,0.674,0.6602,0.5947,0.6868,0.7726,0.8055,0.774,0.7875,0.8334,0.7749,0.7548,0.8438,0.8718,0.881,0.8869,0.8783,0.8793,0.893,0.8937,0.8937,0.8937,0.8937,0.8937,0.8937,0.8937,0.8937,0.8937,0.8937,0.8937,0.8937,0.8937,0.8937,0.8937,0.8937,0.8937,0.8937,0.8937,0.8937,0.8937,0.8937,0.8937,0.8937,0.895,0.8856,0.8883,0.8329,0.64,0.0,0.0,0.0,2.3692,2.3493,2.155,2.0641,0.0,1.9947,1.8733,1.7134,1.7449,1.742,1.7155,1.682,1.6627,1.6486,1.6486,1.64,1.6266,1.5927,1.5855,1.5827,1.5827,1.5761,1.5825,1.5825,1.5825,1.5825,1.5825,1.5825,1.5825,1.5825,1.514,1.3878,1.3861,1.1879,0.8146,0.8004,1.0391,1.5324,1.5136,1.4838,1.473,1.4449,1.4095,1.3654,1.3347,0.0,0.0,0.0,0.0,0.0,0.0,0.0,0.0,0.0,0.0,0.8868,0.8396,0.7409,0.5929,0.5555,0.5475,0.5557,0.584,0.6441,0.7492,0.7472,0.7207,0.6719,0.7527,0.824,0.8862,0.848,0.8319,0.8682,0.8272,0.8249,0.8669,0.8825,0.8855,0.892,0.8937,0.8937,0.8937,0.8937,0.8937,0.8937,0.8937,0.8937,0.8937,0.8937,0.8937,0.8937,0.8937,0.8937,0.8937,0.8937,0.8937,0.8937,0.8937,0.8937,0.8937,0.8937,0.8937,0.8937,0.8937,0.8937,0.894,0.896,0.8523,0.729,0.7874,0.6857,0.0,0.0,0.0,2.2976,2.2776,2.0341,1.922,1.9117,1.8094,1.7589,1.7569,1.7563,0.0,0.0,1.7211,1.6948,1.678,1.6787,1.6754,1.67,1.6147,1.5911,1.5914,1.5901,1.5784,1.578,1.5876,1.5856,1.581,1.5905,1.5879,1.5825,1.5825,1.5146,1.4094,1.5177,1.316,0.835,0.889,1.1532,1.557,1.5805,1.5549,1.5037,1.475,1.4456,1.4168,1.3828,1.3273,1.2498,1.1745,1.1345,1.1307,1.2164,1.2585,1.2497,1.2164,1.1244,0.9841,0.9557,0.8774,0.6989,0.689,0.684,0.6707,0.7834,0.8519,0.8512,0.8058,0.7805,0.775,0.812,0.8505,0.8836,0.8769,0.8725,0.8852,0.8865,0.8913,0.892,0.8937,0.8933,0.8937,0.8937,0.8937,0.8937,0.8937,0.8937,0.8937,0.8937,0.8937,0.8937,0.8937,0.8937,0.8937,0.8937,0.8937,0.8937,0.8937,0.8937,0.8937,0.8937,0.8937,0.8937,0.8937,0.8937,0.8937,0.8937,0.894,0.8947,0.8964,0.8072,0.571,0.7081,0.7091,0.0,0.0,0.0,2.0231,2.004,1.8506,1.7891,1.7891,1.7687,1.7589,1.7582,1.7654,1.7613,1.758,1.7573,1.7321,1.7088,1.7088,1.6947,1.6707,1.6593,1.6573,1.654,1.6076,1.5831,1.5806,1.6355,1.6334,1.5888,1.6095,1.6079,1.5852,1.5832,1.5146,1.419,1.5177,1.316,0.875,1.2425,1.5032,1.5803,1.5844,1.5647,1.5331,1.5057,1.4763,1.4456,1.3941,1.3474,1.31,1.1972,1.162,1.2149,1.3229,1.3721,1.332,1.2517,1.1595,1.0464,0.9475,0.8352,0.7358,0.7438,0.7695,0.8151,0.8586,0.8742,0.848,0.8381,0.8384,0.8347,0.8458,0.8655,0.8908,0.8903,0.8866,0.8896,0.8906,0.892,0.8937,0.8937,0.8937,0.8937,0.8937,0.8937,0.8937,0.8937,0.8937,0.894,0.8944,0.8937,0.8937,0.8937,0.8937,0.8937,0.8937,0.8937,0.8937,0.8937,0.8937,0.8937,0.8937,0.8937,0.8937,0.8937,0.8937,0.8937,0.8937,0.8944,0.896,0.8873,0.8546,0.7762,0.8351,0.6422,0.0,0.0,0.0,2.0333,1.9524,1.8916,1.8304,1.7589,1.7589,1.7589,1.7589,1.7589,1.7589,1.7589,1.7589,1.7508,1.7388,1.7388,1.7315,1.7181,1.7181,1.721,1.7177,1.6941,1.6753,1.6827,1.7048,1.6987,1.6745,1.6612,1.6359,1.6099,1.6072,1.5294,1.3992,1.3739,1.3177,1.2531,1.457,1.584,1.581,1.5833,1.5738,1.5625,1.5351,1.5137,1.4997,1.4576,1.4229,1.3928,1.3226,1.2807,1.283,1.3919,1.4629,1.4698,1.3913,1.2703,1.1148,1.0562,0.952,0.7822,0.795,0.8306,0.8699,0.8789,0.8838,0.8742,0.8615,0.8638,0.872,0.8685,0.8832,0.8838,0.8899,0.8937,0.8937,0.8937,0.8937,0.8937,0.8937,0.8937,0.8937,0.8937,0.8937,0.8937,0.8937,0.8944,0.8954,0.8846,0.8954,0.8944,0.8937,0.8937,0.8937,0.8937,0.8937,0.8937,0.8937,0.8937,0.8937,0.8937,0.8937,0.8937,0.8937,0.8937,0.8937,0.8937,0.895,0.886,0.7507,0.741,0.845,0.5846,0.2918,0.0,0.0,0.0,2.0128,1.9117,1.9124,1.8506,1.7589,1.7589,1.7589,1.7589,1.7589,1.7589,1.7589,1.7589,1.7589,1.7589,1.7589,1.7582,1.7589,1.7589,1.7573,1.7612,1.7592,1.7586,1.7618,1.7597,1.7569,1.7507,1.7035,1.666,1.64,1.6366,1.5347,1.3464,1.1811,1.2033,1.4033,1.518,1.5776,1.5845,1.5825,1.5825,1.5818,1.5611,1.5498,1.5478,1.5211,1.495,1.473,1.4454,1.4115,1.3722,1.4634,1.5416,1.591,1.4738,1.3282,1.1764,1.1215,1.0133,0.84,0.8401,0.8598,0.8862,0.8876,0.8924,0.891,0.8832,0.8808,0.8916,0.8927,0.8933,0.893,0.8933,0.8937,0.8937,0.8937,0.8937,0.8937,0.8937,0.894,0.8944,0.8947,0.8947,0.8954,0.8957,0.8279,0.6932,0.7955,0.886,0.8957,0.8954,0.8954,0.895,0.8947,0.8937,0.8937,0.8937,0.8937,0.8937,0.8937,0.8937,0.8937,0.8937,0.894,0.8944,0.8947,0.896,0.8752,0.729,0.6168,0.6291,0.3251,0.0,0.0,0.0,0.0,1.7891,1.7786,1.7891,1.7681,1.7582,1.7589,1.7589,1.7589,1.7589,1.7589,1.7589,1.7589,1.7589,1.7589,1.7589,1.7589,1.7589,1.7589,1.7569,1.7647,1.7654,1.764,1.7593,1.7607,1.7596,1.7599,1.7333,1.6954,1.6673,1.6554,1.5081,1.2171,0.9627,0.8708,0.9406,1.3554,1.5809,1.5838,1.5825,1.5825,1.5825,1.5798,1.5792,1.5785,1.5511,1.5351,1.5311,1.5064,1.491,1.4897,1.5352,1.5934,1.6243,1.3916,1.2432,1.2329,1.0158,0.8706,0.8628,0.8565,0.8645,0.8896,0.891,0.8916,0.8937,0.8923,0.892,0.8937,0.8937,0.8937,0.8937,0.8937,0.8937,0.8937,0.8937,0.8937,0.8937,0.8937,0.8947,0.8967,0.8742,0.8866,0.8536,0.8768,0.6723,0.2341,0.5365,0.7859,0.7967,0.8307,0.8425,0.8651,0.8856,0.883,0.883,0.8937,0.894,0.894,0.894,0.8944,0.8944,0.8944,0.8944,0.8967,0.8513,0.8523,0.8893,0.8339,0.6517,0.0,0.0,0.0,0.0,0.0,0.0,1.7589,1.7589,1.7589,1.7589,1.7589,1.7589,1.7589,1.7589,1.7589,1.7589,1.7589,1.7589,1.7589,1.7589,1.7589,1.7589,1.7589,1.7589,1.7589,1.7589,1.7589,1.7589,1.7589,1.7589,1.7627,1.7637,1.7519,1.7255,1.677,1.5137,1.3507,1.2045,0.9602,1.0104,1.3447,1.5056,1.5978,1.6353,1.6346,1.6353,1.6299,1.6005,1.5825,1.5838,1.5885,1.5912,1.5919,1.5625,1.5454,1.5358,1.4449,1.3843,1.4161,1.2999,1.1996,1.1263,0.961,0.8686,0.8835,0.8736,0.8763,0.8937,0.8937,0.8937,0.8937,0.8937,0.8937,0.8937,0.8937,0.8937,0.8937,0.8937,0.8937,0.8937,0.8937,0.8937,0.8937,0.895,0.8964,0.886,0.739,0.6379,0.6614,0.7871,0.6168,0.1562,0.0,0.0,0.0,0.5144,0.6272,0.6274,0.6262,0.7154,0.8396,0.896,0.8954,0.8944,0.895,0.896,0.8846,0.8863,0.8873,0.888,0.7736,0.7627,0.8677,0.8453,0.0,0.0,0.0,0.0,0.0,0.0,0.0,1.7655,1.7589,1.7589,1.7589,1.7589,1.7589,1.7589,1.7589,1.7589,1.7589,1.7589,1.7589,1.7589,1.7589,1.7589,1.7589,1.7589,1.7589,1.7589,1.7589,1.7589,1.7589,1.7589,1.7589,1.7589,1.7589,1.7582,1.7468,1.7048,1.4752,1.3174,1.2304,0.9935,1.1657,1.6935,1.6682,1.6531,1.6941,1.6934,1.6827,1.6647,1.6286,1.6066,1.6092,1.6279,1.6393,1.6393,1.6182,1.6079,1.5978,1.3869,1.2307,1.1499,1.1704,1.1376,1.0075,0.9241,0.8818,0.893,0.8937,0.8937,0.8937,0.8937,0.8937,0.8937,0.8937,0.8937,0.8937,0.8937,0.8937,0.8937,0.8937,0.8937,0.8937,0.8937,0.894,0.8947,0.8964,0.8866,0.8647,0.7404,0.4925,0.3917,0.4821,0.4257,0.0894,0.0,0.0,0.0,0.2011,0.3467,0.4252,0.459,0.5822,0.8193,0.8873,0.8863,0.886,0.8863,0.8526,0.8069,0.763,0.8552,0.8091,0.6391,0.5041,0.4936,0.539,0.0,0.0,0.0,0.0,0.0,0.0,0.0,1.7856,1.7615,1.7589,1.7602,1.7589,1.7589,1.7589,1.7589,1.7589,1.7589,1.7589,1.7589,1.7589,1.7589,1.7589,1.7589,1.7589,1.7589,1.7589,1.7589,1.7589,1.7589,1.7589,1.7589,1.7589,1.7589,1.7589,1.7569,1.743,1.6019,1.4579,1.3184,1.058,1.1852,1.6788,1.7455,1.7462,1.7486,1.7465,1.7303,1.6841,1.6693,1.6667,1.6673,1.668,1.6687,1.66,1.6619,1.6596,1.659,1.4248,1.194,0.9579,1.0221,1.0258,0.9208,0.8913,0.8927,0.8933,0.8937,0.8937,0.8937,0.8937,0.8937,0.8937,0.8937,0.8937,0.8937,0.895,0.8954,0.8937,0.8937,0.8937,0.8937,0.894,0.895,0.886,0.8863,0.888,0.8788,0.7994,0.55,0.1009,0.0224,0.0,0.0,0.0,0.0,0.0,0.0,0.1569,0.3366,0.438,0.5394,0.81,0.7519,0.7862,0.763,0.6717,0.7973,0.6047,0.5031,0.6391,0.0,0.674,0.4935,0.1793,0.0,0.0,0.0,0.0,0.0,0.0,0.0,0.0,1.8263,1.8143,1.7956,1.7762,1.7622,1.7662,1.7589,1.7589,1.7589,1.7589,1.7589,1.7589,1.7589,1.7589,1.7589,1.7589,1.7589,1.7589,1.7589,1.7589,1.7589,1.7589,1.7589,1.7589,1.7589,1.7589,1.7589,1.7589,1.747,1.6174,1.5654,1.5535,1.3103,1.3742,1.6916,1.7613,1.7596,1.7626,1.7612,1.7495,1.7255,1.7268,1.7268,1.7255,1.7081,1.6573,1.5632,1.6652,1.646,1.4573,1.194,1.0,0.9054,0.9349,0.9421,0.893,0.8937,0.8937,0.8937,0.8937,0.8937,0.8937,0.8937,0.8937,0.8937,0.8937,0.8937,0.8954,0.8917,0.8923,0.8957,0.8937,0.8937,0.894,0.8954,0.8856,0.8863,0.888,0.89,0.8339,0.5841,0.2129,0.0,0.0,0.0,0.0,0.0,0.0,0.0,0.0,0.0,0.0,0.1683,0.1906,0.2802,0.3132,0.3129,0.3128,0.3238,0.5487,0.5152,0.2797,0.3362,0.0,0.0,0.0,0.0,0.0,0.0,0.0,0.0,0.0,0.0,0.0,0.0,1.8497,1.8464,1.8277,1.7952,1.7655,1.7615,1.7609,1.7596,1.7622,1.7589,1.7589,1.7589,1.7589,1.7589,1.7589,1.7589,1.7589,1.7589,1.7589,1.7589,1.7589,1.7589,1.7589,1.7589,1.7589,1.7589,1.7589,1.7589,1.7477,1.6605,1.6649,1.7357,1.5589,1.5594,1.7344,1.7629,1.7589,1.7589,1.7589,1.7582,1.7589,1.7589,1.7589,1.745,1.6964,1.6223,1.5164,1.5873,1.5456,1.3202,1.053,0.8869,0.8876,0.8916,0.8937,0.8937,0.8937,0.8937,0.8937,0.8937,0.8937,0.8937,0.8937,0.8937,0.894,0.8981,0.9005,0.9035,0.8907,0.8944,0.8997,0.9086,0.9045,0.8984,0.889,0.891,0.889,0.8947,0.7809,0.5734,0.269,0.0,0.0,0.0,0.0,0.0,0.0,0.0,0.0,0.0,0.0,0.0,0.0,0.0,0.0,0.0,0.0,0.0,0.0,0.0,0.0,0.0,0.0,0.0,0.0,0.0,0.0,0.0,0.0,0.0,0.0,0.0,0.0,0.0,0.0,1.8524,1.8537,1.849,1.8236,1.7825,1.7688,1.7685,1.7639,1.7636,1.7662,1.7649,1.7615,1.7615,1.7589,1.7589,1.7589,1.7589,1.7589,1.7589,1.7589,1.7589,1.7589,1.7589,1.7589,1.7589,1.7589,1.7589,1.7589,1.7582,1.7477,1.7483,1.7589,1.7371,1.7246,1.7589,1.7595,1.7589,1.7589,1.7589,1.7589,1.7589,1.7589,1.7582,1.7259,1.615,1.5275,1.5186,1.4115,1.3406,1.2731,1.0382,0.8937,0.893,0.8937,0.8937,0.8937,0.8937,0.8937,0.8937,0.8937,0.894,0.896,0.895,0.8967,0.9011,0.9089,0.9154,0.9174,0.905,0.901,0.9354,0.9361,0.9273,0.8933,0.8659,0.8338,0.8878,0.8707,0.6648,0.0,0.0,0.0,0.0,0.0,0.0,0.0,0.0,0.0,0.0,0.0,0.0,0.0,0.0,0.0,0.0,0.0,0.0,0.0,0.0,0.0,0.0,0.0,0.0,0.0,0.0,0.0,0.0,0.0,0.0,0.0,0.0,0.0,0.0,0.0,0.0,1.9098,1.9065,1.8871,1.8798,1.8758,1.836,1.798,1.7605,1.7618,1.7603,1.7574,1.7655,1.7662,1.7615,1.7589,1.7589,1.7589,1.7589,1.7589,1.7589,1.7589,1.7589,1.7589,1.7589,1.7589,1.7589,1.7589,1.7589,1.7589,1.7589,1.7589,1.7589,1.7589,1.7589,1.7589,1.7589,1.7589,1.7589,1.7589,1.7589,1.7589,1.7582,1.7147,1.6068,1.4663,1.348,1.2512,1.2925,1.2293,1.05,0.9386,0.8937,0.8937,0.8937,0.8937,0.8937,0.8937,0.8937,0.8937,0.8944,0.8876,0.8943,0.9083,0.9144,0.9225,0.9279,0.931,0.9323,0.9322,0.9265,0.9425,0.9617,0.9469,0.9178,0.7203,0.6874,0.7682,0.5245,0.2331,0.0,0.0,0.0,0.0,0.0,0.0,0.0,0.0,0.0,0.0,0.0,0.0,0.0,0.0,0.0,0.0,0.0,0.0,0.0,0.0,0.0,0.0,0.0,0.0,0.0,0.0,0.0,0.0,0.0,0.0,0.0,0.0,0.0,0.0,0.0,0.0,1.9366,1.9352,1.9172,1.9213,1.932,1.903,1.8644,1.8256,1.8275,1.826,1.8217,1.7731,1.7701,1.7756,1.7635,1.7589,1.7589,1.7589,1.7589,1.7589,1.7589,1.7589,1.7589,1.7589,1.7589,1.7589,1.7589,1.7589,1.7589,1.7589,1.7589,1.7589,1.7589,1.7589,1.7589,1.7589,1.7589,1.747,1.6567,1.6237,1.6599,1.6287,1.553,1.4556,1.3264,1.2082,1.1219,1.1481,1.0839,0.9275,0.8937,0.8937,0.8937,0.8937,0.8937,0.8937,0.8937,0.8937,0.894,0.8994,0.8937,0.902,0.9087,0.9387,0.949,0.9538,0.9462,0.9483,0.9479,0.953,0.9598,0.9652,0.968,0.9499,0.763,0.6059,0.5588,0.2363,0.0,0.0,0.0,0.0,0.0,0.0,0.0,0.0,0.0,0.0,0.0,0.0,0.0,0.0,0.0,0.0,0.0,0.0,0.0,0.0,0.0,0.0,0.0,0.0,0.0,0.0,0.0,0.0,0.0,0.0,0.0,0.0,0.0,0.0,0.0,0.0,0.0,1.9366,1.9366,1.9366,1.9345,1.9435,1.932,1.9333,1.9299,1.9332,1.9202,1.8981,1.8283,1.7879,1.7901,1.7829,1.7736,1.7655,1.7709,1.7689,1.7655,1.7642,1.7629,1.7595,1.7589,1.7589,1.7589,1.7589,1.7589,1.7589,1.7589,1.7589,1.7589,1.7589,1.7589,1.7589,1.7589,1.7589,1.7246,1.4987,1.4237,1.5411,1.4234,1.3372,1.3156,1.1973,1.1105,1.0676,0.9923,0.9161,0.8937,0.8937,0.8937,0.8937,0.8937,0.8937,0.894,0.8944,0.896,0.8984,0.9096,0.9184,0.9111,0.933,0.9525,0.9697,0.9679,0.9615,0.9625,0.9727,0.9812,0.9819,0.9839,0.9737,0.9658,0.7812,0.52,0.0,0.0,0.0,0.0,0.0,0.0,0.0,0.0,0.0,0.0,0.0,0.0,0.0,0.0,0.0,0.0,0.0,0.0,0.0,0.0,0.0,0.0,0.0,0.0,0.0,0.0,0.0,0.0,0.0,0.0,0.0,0.0,0.0,0.0,0.0,0.0,0.0,0.0,0.0,1.9366,1.9366,1.9366,1.9366,1.9366,1.9408,1.9381,1.9374,1.9422,1.9239,1.8957,1.8982,1.8675,1.8377,1.829,1.8257,1.8217,1.8223,1.7988,1.7694,1.7574,1.7656,1.7622,1.7589,1.7589,1.7589,1.7589,1.7589,1.7589,1.7589,1.7589,1.7589,1.7589,1.7589,1.7589,1.7589,1.7589,1.7239,1.4775,1.4019,1.486,1.3911,1.2724,1.1642,1.1214,1.0457,0.9588,0.9154,0.8937,0.8937,0.8937,0.8937,0.8937,0.8944,0.895,0.8964,0.9042,0.9093,0.9007,0.9121,0.9361,0.9597,0.9513,0.9591,0.9823,0.9741,0.9764,0.9771,0.9808,0.9829,0.9852,0.9757,0.9794,0.9196,0.5665,0.0,0.0,0.0,0.0,0.0,0.0,0.0,0.0,0.0,0.0,0.0,0.0,0.0,0.0,0.0,0.0,0.0,0.0,0.0,0.0,0.0,0.0,0.0,0.0,0.0,0.0,0.0,0.0,0.0,0.0,0.0,0.0,0.0,0.0,0.0,0.0,0.0,0.0,0.0,0.0,1.9366,1.9366,1.9366,1.9366,1.9366,1.9366,1.9366,1.9366,1.9366,1.9279,1.9118,1.9346,1.909,1.8671,1.8544,1.849,1.8497,1.8497,1.8267,1.8024,1.774,1.7626,1.7569,1.7589,1.7589,1.7589,1.7595,1.7589,1.7589,1.7589,1.7589,1.7589,1.7589,1.7589,1.7589,1.7589,1.7589,1.714,1.4815,1.3746,1.4336,1.2507,1.1214,1.0237,1.0131,0.9699,0.8937,0.8937,0.8937,0.8937,0.8937,0.8937,0.8944,0.8998,0.9025,0.9035,0.9167,0.9131,0.9158,0.9272,0.951,0.9724,0.9659,0.9734,0.9795,0.9819,0.9819,0.9819,0.9829,0.9849,0.9754,0.9787,0.8433,0.5571,0.2224,0.0,0.0,0.0,0.0,0.0,0.0,0.0,0.0,0.0,0.0,0.0,0.0,0.0,0.0,0.0,0.0,0.0,0.0,0.0,0.0,0.0,0.0,0.0,0.0,0.0,0.0,0.0,0.0,0.0,0.0,0.0,0.0,0.0,0.0,0.0,0.0,0.0,0.0,0.0,0.0,1.9366,1.9366,1.9366,1.9366,1.9366,1.9366,1.9366,1.9366,1.9366,1.9359,1.9414,1.9347,1.9259,1.8951,1.8778,1.8611,1.8617,1.8677,1.8604,1.8419,1.8203,1.7952,1.7956,1.7909,1.7782,1.7769,1.7689,1.7729,1.7762,1.7716,1.7649,1.7655,1.7629,1.7589,1.7589,1.7589,1.7589,1.7147,1.4764,1.3465,1.3048,1.1,0.95,0.9314,0.9203,0.9227,0.9005,0.888,0.8873,0.8994,0.8971,0.8974,0.8988,0.91,0.9167,0.9201,0.9198,0.9285,0.9429,0.9419,0.9509,0.9789,0.9758,0.9819,0.9819,0.9819,0.9819,0.9819,0.9842,0.9242,0.7899,0.8312,0.5945,0.0,0.0,0.0,0.0,0.0,0.0,0.0,0.0,0.0,0.0,0.0,0.0,0.0,0.0,0.0,0.0,0.0,0.0,0.0,0.0,0.0,0.0,0.0,0.0,0.0,0.0,0.0,0.0,0.0,0.0,0.0,0.0,0.0,0.0,0.0,0.0,0.0,0.0,0.0,0.0,0.0,0.0,1.9366,1.9366,1.9366,1.9366,1.9366,1.9366,1.9366,1.9366,1.9366,1.9366,1.9352,1.9414,1.9387,1.9259,1.9165,1.9178,1.9125,1.9112,1.9199,1.919,1.9084,1.8967,1.8913,1.8543,1.8283,1.8141,1.8277,1.8283,1.8237,1.8036,1.7949,1.7929,1.7643,1.7595,1.7622,1.7655,1.7589,1.7153,1.4787,1.3408,1.2654,1.0492,0.9015,0.9093,0.9106,0.9174,0.9235,0.9054,0.8937,0.9108,0.9181,0.9123,0.9137,0.9252,0.9327,0.9364,0.9352,0.9439,0.9466,0.968,0.9771,0.9768,0.9791,0.9819,0.9819,0.9819,0.9819,0.9825,0.9717,0.7755,0.0,0.0,0.0,0.0,0.0,0.0,0.0,0.0,0.0,0.0,0.0,0.0,0.0,0.0,0.0,0.0,0.0,0.0,0.0,0.0,0.0,0.0,0.0,0.0,0.0,0.0,0.0,0.0,0.0,0.0,0.0,0.0,0.0,0.0,0.0,0.0,0.0,0.0,0.0,0.0,0.0,0.0,0.0,0.0,0.0,1.9366,1.9366,1.9366,1.9366,1.9366,1.9366,1.9366,1.9366,1.9366,1.9366,1.9366,1.9366,1.9366,1.9366,1.9366,1.9359,1.9366,1.9366,1.9414,1.9381,1.936,1.9426,1.9412,1.9118,1.8804,1.8695,1.849,1.8497,1.8437,1.8357,1.8257,1.8141,1.782,1.7577,1.7639,1.7626,1.7659,1.7105,1.4889,1.3337,1.2427,1.0467,0.9167,0.9242,0.9259,0.9306,0.9354,0.9185,0.9073,0.9235,0.9252,0.9327,0.9415,0.9401,0.9476,0.951,0.9625,0.97,0.9734,0.9771,0.9815,0.9819,0.9819,0.9819,0.9819,0.9819,0.9819,0.9829,0.9233,0.0,0.0,0.0,0.0,0.0,0.0,0.0,0.0,0.0,0.0,0.0,0.0,0.0,0.0,0.0,0.0,0.0,0.0,0.0,0.0,0.0,0.0,0.0,0.0,0.0,0.0,0.0,0.0,0.0,0.0,0.0,0.0,0.0,0.0,0.0,0.0,0.0,0.0,0.0,0.0,0.0,0.0,0.0,0.0,0.0,0.0,1.9366,1.9366,1.9366,1.9366,1.9366,1.9366,1.9366,1.9366,1.9366,1.9366,1.9366,1.9366,1.9366,1.9366,1.9366,1.9366,1.9366,1.9366,1.9448,1.9435,1.9414,1.9394,1.9401,1.9361,1.9341,1.9298,1.8942,1.8684,1.8677,1.8584,1.8557,1.8426,1.8092,1.789,1.7819,1.7857,1.8039,1.7682,1.6251,1.3846,1.2452,1.0685,0.9932,0.9412,0.9418,0.9442,0.9469,0.9325,0.9312,0.9332,0.9453,0.9557,0.9523,0.9554,0.9642,0.9646,0.9747,0.9788,0.9791,0.9812,0.9819,0.9819,0.9819,0.9819,0.9819,0.9822,0.9825,0.9846,0.9252,0.0,0.0,0.0,0.0,0.0,0.0,0.0,0.0,0.0,0.0,0.0,0.0,0.0,0.0,0.0,0.0,0.0,0.0,0.0,0.0,0.0,0.0,0.0,0.0,0.0,0.0,0.0,0.0,0.0,0.0,0.0,0.0,0.0,0.0,0.0,0.0,0.0,0.0,0.0,0.0,0.0,0.0,0.0,0.0,0.0,0.0,1.9366,1.9366,1.9366,1.9366,1.9366,1.9366,1.9366,1.9366,1.9366,1.9366,1.9366,1.9366,1.9366,1.9366,1.9366,1.9366,1.9366,1.9366,1.9366,1.9366,1.9366,1.9366,1.9366,1.9366,1.9408,1.9394,1.9178,1.9145,1.9098,1.8991,1.8865,1.8804,1.8526,1.8308,1.8446,1.8759,1.8959,1.8881,1.8011,1.6232,1.3165,1.1467,1.0514,0.9672,0.9571,0.9618,0.9676,0.9509,0.9499,0.9734,0.9771,0.9761,0.973,0.9751,0.9764,0.9774,0.9795,0.9819,0.9819,0.9819,0.9819,0.9819,0.9819,0.9819,0.9819,0.9822,0.9832,0.9737,0.9274,0.0,0.0,0.0,0.0,0.0,0.0,0.0,0.0,0.0,0.0,0.0,0.0,0.0,0.0,0.0,0.0,0.0,0.0,0.0,0.0,0.0,0.0,0.0,0.0,0.0,0.0,0.0,0.0,0.0,0.0,0.0,0.0,0.0,0.0,0.0,0.0,0.0,0.0,0.0,0.0,0.0,0.0,0.0,0.0,0.0,0.0,1.9366,1.9366,1.9366,1.9366,1.9366,1.9366,1.9366,1.9366,1.9366,1.9366,1.9366,1.9366,1.9366,1.9366,1.9366,1.9366,1.9366,1.9366,1.9366,1.9366,1.9366,1.9366,1.9366,1.9366,1.9366,1.9359,1.9359,1.9366,1.9359,1.9232,1.9138,1.9125,1.8998,1.8945,1.8945,1.9226,1.9439,1.9467,1.9186,1.7523,1.365,1.193,1.0361,0.9926,0.9713,0.9758,0.9781,0.9768,0.9623,0.9802,0.9819,0.9819,0.9819,0.9819,0.9819,0.9819,0.9819,0.9819,0.9819,0.9819,0.9819,0.9819,0.9819,0.9819,0.9819,0.9822,0.9721,0.9635,0.9532,0.7057,0.0,0.0,0.0,0.0,0.0,0.0,0.0,0.0,0.0,0.0,0.0,0.0,0.0,0.0,0.0,0.0,0.0,0.0,0.0,0.0,0.0,0.0,0.0,0.0,0.0,0.0,0.0,0.0,0.0,0.0,0.0,0.0,0.0,0.0,0.0,0.0,0.0,0.0,0.0,0.0,0.0,0.0,0.0,0.0,0.0,1.9366,1.9366,1.9366,1.9366,1.9366,1.9366,1.9366,1.9366,1.9366,1.9366,1.9366,1.9366,1.9366,1.9366,1.9366,1.9366,1.9366,1.9366,1.9366,1.9366,1.9366,1.9366,1.9366,1.9366,1.9366,1.9366,1.9366,1.9366,1.9366,1.9339,1.9359,1.9325,1.9352,1.9366,1.9441,1.9394,1.9366,1.9399,1.9336,1.7781,1.4619,1.1615,0.9819,0.9819,0.9819,0.9815,0.9819,0.9808,0.9802,0.9819,0.9819,0.9819,0.9819,0.9819,0.9819,0.9819,0.9819,0.9819,0.9819,0.9819,0.9819,0.9819,0.9819,0.9819,0.9825,0.9717,0.9496,0.9048,0.7552,0.5704,0.0,0.0,0.0,0.0,0.0,0.0,0.0,0.0,0.0,0.0,0.0,0.0,0.0,0.0,0.0,0.0,0.0,0.0,0.0,0.0,0.0,0.0,0.0,0.0,0.0,0.0,0.0,0.0,0.0,0.0,0.0,0.0,0.0,0.0,0.0,0.0,0.0,0.0,0.0,0.0,0.0,0.0,0.0,0.0,0.0,1.9366,1.9366,1.9366,1.9366,1.9366,1.9366,1.9366,1.9366,1.9366,1.9366,1.9366,1.9366,1.9366,1.9366,1.9366,1.9366,1.9366,1.9366,1.9366,1.9366,1.9366,1.9366,1.9366,1.9366,1.9366,1.9366,1.9366,1.9366,1.9366,1.9366,1.9366,1.9366,1.9366,1.9366,1.9366,1.9366,1.9366,1.9372,1.9392,1.7837,1.4723,1.1495,1.0179,0.9819,0.9819,0.9819,0.9819,0.9819,0.9819,0.9819,0.9819,0.9819,0.9819,0.9819,0.9819,0.9819,0.9819,0.9819,0.9819,0.9819,0.9819,0.9822,0.9832,0.9822,0.9876,0.9545,0.8717,0.5506,0.3356,0.0,0.0,0.0,0.0,0.0,0.0,0.0,0.0,0.0,0.0,0.0,0.0,0.0,0.0,0.0,0.0,0.0,0.0,0.0,0.0,0.0,0.0,0.0,0.0,0.0,0.0,0.0,0.0,0.0,0.0,0.0,0.0,0.0,0.0,0.0,0.0,0.0,0.0,0.0,0.0,0.0,0.0,0.0,0.0,0.0,0.0,1.9366,1.9366,1.9366,1.9366,1.9366,1.9366,1.9366,1.9366,1.9366,1.9366,1.9366,1.9366,1.9366,1.9366,1.9366,1.9366,1.9366,1.9366,1.9366,1.9366,1.9366,1.9366,1.9366,1.9366,1.9366,1.9366,1.9366,1.9366,1.9366,1.9366,1.9366,1.9366,1.9366,1.9366,1.9366,1.9366,1.9366,1.9392,1.9193,1.7762,1.4857,1.2453,1.0657,0.9822,0.9819,0.9819,0.9819,0.9819,0.9819,0.9819,0.9819,0.9819,0.9819,0.9819,0.9819,0.9819,0.9819,0.9819,0.9819,0.9819,0.9825,0.9856,0.9903,0.9995,0.9932,0.9606,0.7461,0.2535,0.1006,0.0,0.0,0.0,0.0,0.0,0.0,0.0,0.0,0.0,0.0,0.0,0.0,0.0,0.0,0.0,0.0,0.0,0.0,0.0,0.0,0.0,0.0,0.0,0.0,0.0,0.0,0.0,0.0,0.0,0.0,0.0,0.0,0.0,0.0,0.0,0.0,0.0,0.0,0.0,0.0,0.0,0.0,0.0,0.0,0.0,0.0,1.9366,1.9366,1.9366,1.9366,1.9366,1.9366,1.9366,1.9366,1.9366,1.9366,1.9366,1.9366,1.9366,1.9366,1.9366,1.9366,1.9366,1.9366,1.9366,1.9366,1.9366,1.9366,1.9366,1.9366,1.9366,1.9366,1.9366,1.9366,1.9366,1.9366,1.9366,1.9366,1.9366,1.9366,1.9366,1.9366,1.9366,1.9379,1.9376,1.7681,1.4862,1.3053,1.1378,1.0301,0.9819,0.9819,0.9819,0.9819,0.9819,0.9819,0.9819,0.9819,0.9819,0.9819,0.9819,0.9819,0.9819,0.9819,0.9819,0.9822,0.9839,0.991,1.0139,1.0277,1.0106,0.98,0.7886,0.2445,0.0511,0.0,0.0,0.0,0.0,0.0,0.0,0.0,0.0,0.0,0.0,0.0,0.0,0.0,0.0,0.0,0.0,0.0,0.0,0.0,0.0,0.0,0.0,0.0,0.0,0.0,0.0,0.0,0.0,0.0,0.0,0.0,0.0,0.0,0.0,0.0,0.0,0.0,0.0,0.0,0.0,0.0,0.0,0.0,0.0,0.0,0.0,1.9366,1.9366,1.9366,1.9366,1.9366,1.9366,1.9366,1.9366,1.9366,1.9366,1.9366,1.9366,1.9366,1.9366,1.9366,1.9366,1.9366,1.9366,1.9366,1.9366,1.9366,1.9366,1.9366,1.9366,1.9366,1.9366,1.9366,1.9366,1.9366,1.9366,1.9366,1.9366,1.9366,1.9366,1.9366,1.9366,1.9366,1.9392,1.9369,1.7799,1.51,1.3172,1.1615,1.0179,0.9819,0.9819,0.9819,0.9819,0.9819,0.9819,0.9819,0.9819,0.9819,0.9819,0.9819,0.9819,0.9852,0.9856,0.9859,0.9869,0.9791,1.0029,1.0294,1.0545,1.0358,1.0351,0.8041,0.4438,0.1684,0.0,0.0,0.0,0.0,0.0,0.0,0.0,0.0,0.0,0.0,0.0,0.0,0.0,0.0,0.0,0.0,0.0,0.0,0.0,0.0,0.0,0.0,0.0,0.0,0.0,0.0,0.0,0.0,0.0,0.0,0.0,0.0,0.0,0.0,0.0,0.0,0.0,0.0,0.0,0.0,0.0,0.0,0.0,0.0,0.0,0.0,1.9366,1.9366,1.9366,1.9366,1.9366,1.9366,1.9366,1.9366,1.9366,1.9366,1.9366,1.9366,1.9366,1.9366,1.9366,1.9366,1.9366,1.9366,1.9366,1.9366,1.9366,1.9366,1.9366,1.9366,1.9366,1.9366,1.9366,1.9366,1.9366,1.9243,1.9366,1.9366,1.9379,1.9366,1.9366,1.9379,1.9379,1.9379,1.9056,1.7732,1.5213,1.4004,1.2453,1.0061,0.9819,0.9819,0.9819,0.9819,0.9819,0.9822,0.9822,0.9832,0.9842,0.9842,0.9849,0.9863,0.9914,0.9954,0.9841,0.9854,0.9942,1.0146,1.0385,1.0708,1.0507,1.0571,0.8738,0.5556,0.0,0.0,0.0,0.0,0.0,0.0,0.0,0.0,0.0,0.0,0.0,0.0,0.0,0.0,0.0,0.0,0.0,0.0,0.0,0.0,0.0,0.0,0.0,0.0,0.0,0.0,0.0,0.0,0.0,0.0,0.0,0.0,0.0,0.0,0.0,0.0,0.0,0.0,0.0,0.0,0.0,0.0,0.0,0.0,0.0,0.0,0.0,1.9366,1.9366,1.9366,1.9366,1.9366,1.9366,1.9366,1.9366,1.9366,1.9366,1.9366,1.9366,1.9366,1.9366,1.9366,1.9366,1.9366,1.9366,1.9366,1.9366,1.9366,1.9366,1.9366,1.9366,1.9366,1.9366,1.9366,1.9366,1.9366,1.8887,1.8642,1.8667,1.9206,1.9362,1.9432,1.9419,1.9309,1.9303,1.8137,1.7196,1.4708,1.3885,1.2689,1.0179,0.9819,0.9819,0.9819,0.9819,0.9819,0.9842,0.9866,0.9893,0.991,0.993,0.9954,0.9995,1.0042,1.0114,0.9999,1.0059,1.0012,1.0293,1.0531,1.0609,1.0694,1.0741,0.9241,0.7503,0.0,0.0,0.0,0.0,0.0,0.0,0.0,0.0,0.0,0.0,0.0,0.0,0.0,0.0,0.0,0.0,0.0,0.0,0.0,0.0,0.0,0.0,0.0,0.0,0.0,0.0,0.0,0.0,0.0,0.0,0.0,0.0,0.0,0.0,0.0,0.0,0.0,0.0,0.0,0.0,0.0,0.0,0.0,0.0,0.0,0.0,0.0,1.9366,1.9366,1.9366,1.9366,1.9366,1.9366,1.9366,1.9366,1.9366,1.9366,1.9366,1.9366,1.9366,1.9366,1.9366,1.9366,1.9366,1.9366,1.9366,1.9366,1.9366,1.9366,1.9366,1.9366,1.9366,1.9366,1.9366,1.9366,1.9366,1.8163,1.7449,1.7533,1.814,1.8426,1.9201,1.9187,1.9187,1.8914,1.6194,1.5135,1.4217,1.3168,1.1615,1.0301,0.9819,0.9819,0.9866,0.9744,0.9757,0.992,1.0129,1.0167,1.018,1.0154,1.0202,1.0222,1.0249,1.0276,1.029,1.0277,1.035,1.0394,1.0619,1.069,1.0721,1.0608,1.0628,0.8876,0.0,0.0,0.0,0.0,0.0,0.0,0.0,0.0,0.0,0.0,0.0,0.0,0.0,0.0,0.0,0.0,0.0,0.0,0.0,0.0,0.0,0.0,0.0,0.0,0.0,0.0,0.0,0.0,0.0,0.0,0.0,0.0,0.0,0.0,0.0,0.0,0.0,0.0,0.0,0.0,0.0,0.0,0.0,0.0,0.0,0.0,0.0,1.9366,1.9366,1.9366,1.9366,1.9366,1.9366,1.9366,1.9366,1.9366,1.9366,1.9366,1.9366,1.9366,1.9366,1.9366,1.9366,1.9366,1.9366,1.9366,1.9366,1.9366,1.9366,1.9366,1.9366,1.9366,1.9366,1.9366,1.9366,1.9366,1.7566,1.7085,1.7162,1.6057,1.4901,1.3599,1.3277,1.3779,1.5682,1.5053,1.4208,1.3048,1.2333,1.1378,0.9819,0.9825,0.9873,0.9954,0.9834,0.9881,0.9948,1.0178,1.0325,1.0335,1.0297,1.0297,1.0321,1.0351,1.0473,1.0538,1.0494,1.0636,1.0656,1.0673,1.0721,1.0724,1.0724,1.0755,0.9968,0.6044,0.2674,0.0,0.0,0.0,0.0,0.0,0.0,0.0,0.0,0.0,0.0,0.0,0.0,0.0,0.0,0.0,0.0,0.0,0.0,0.0,0.0,0.0,0.0,0.0,0.0,0.0,0.0,0.0,0.0,0.0,0.0,0.0,0.0,0.0,0.0,0.0,0.0,0.0,0.0,0.0,0.0,0.0,0.0,0.0,0.0,0.0,1.9366,1.9366,1.9366,1.9366,1.9366,1.9366,1.9366,1.9366,1.9366,1.9366,1.9366,1.9366,1.9366,1.9366,1.9366,1.9366,1.9366,1.9366,1.9366,1.9366,1.9366,1.9366,1.9366,1.9366,1.9366,1.9366,1.9366,1.9366,1.9243,1.7214,1.5477,1.4048,1.351,1.2402,1.0901,1.086,1.1042,1.2664,1.2384,1.2603,1.2113,1.1619,1.0781,1.0079,0.9876,0.9947,0.9908,0.9982,1.0045,1.0139,1.0324,1.0479,1.0493,1.0531,1.0419,1.047,1.0514,1.0626,1.068,1.0704,1.07,1.0707,1.0721,1.0721,1.0721,1.0721,1.0755,0.9692,0.7254,0.3894,0.0,0.0,0.0,0.0,0.0,0.0,0.0,0.0,0.0,0.0,0.0,0.0,0.0,0.0,0.0,0.0,0.0,0.0,0.0,0.0,0.0,0.0,0.0,0.0,0.0,0.0,0.0,0.0,0.0,0.0,0.0,0.0,0.0,0.0,0.0,0.0,0.0,0.0,0.0,0.0,0.0,0.0,0.0,0.0,0.0,1.9366,1.9366,1.9366,1.9366,1.9366,1.9366,1.9366,1.9366,1.9366,1.9366,1.9366,1.9366,1.9366,1.9366,1.9366,1.9366,1.9366,1.9366,1.9366,1.9366,1.9366,1.9366,1.9366,1.9366,1.9366,1.9366,1.9366,1.9366,1.901,1.6503,1.35,1.1129,1.0907,1.0577,1.044,1.0311,1.0343,1.0896,1.0968,1.131,1.1405,1.0716,1.0253,0.9924,0.9978,1.0049,1.0137,1.0222,1.029,1.0368,1.0565,1.0613,1.0678,1.0643,1.069,1.0711,1.07,1.0707,1.0714,1.0717,1.0721,1.0721,1.0721,1.0721,1.0721,1.0721,1.0751,0.9689,0.7529,0.3896,0.0,0.0,0.0,0.0,0.0,0.0,0.0,0.0,0.0,0.0,0.0,0.0,0.0,0.0,0.0,0.0,0.0,0.0,0.0,0.0,0.0,0.0,0.0,0.0,0.0,0.0,0.0,0.0,0.0,0.0,0.0,0.0,0.0,0.0,0.0,0.0,0.0,0.0,0.0,0.0,0.0,0.0,0.0,0.0,-0.0864,1.9366,1.9366,1.9366,1.9366,1.9366,1.9366,1.9366,1.9366,1.9366,1.9366,1.9366,1.9366,1.9366,1.9366,1.9366,1.9366,1.9366,1.9366,1.9366,1.9366,1.9366,1.9366,1.9366,1.9366,1.9366,1.9366,1.9366,1.9366,1.8655,1.6149,1.317,1.0667,1.0219,1.0452,1.0551,1.0507,1.0496,1.0376,1.0188,1.0513,1.0706,1.027,1.0049,1.0097,1.008,1.0168,1.031,1.0253,1.0463,1.0582,1.0619,1.0653,1.0666,1.07,1.0717,1.0717,1.0717,1.0717,1.0721,1.0721,1.0721,1.0721,1.0721,1.0721,1.0721,1.0727,1.0748,0.9552,0.7393,0.3894,0.0,0.0,0.0,0.0,0.0,0.0,0.0,0.0,0.0,0.0,0.0,0.0,0.0,0.0,0.0,0.0,0.0,0.0,0.0,0.0,0.0,0.0,0.0,0.0,0.0,0.0,0.0,0.0,0.0,0.0,0.0,0.0,0.0,0.0,0.0,0.0,0.0,0.0,0.0,0.0,0.0,0.0,0.0,0.0,0.0,1.9366,1.9366,1.9366,1.9366,1.9366,1.9366,1.9366,1.9366,1.9366,1.9366,1.9366,1.9366,1.9366,1.9366,1.9366,1.9366,1.9366,1.9366,1.9366,1.9366,1.9366,1.9366,1.9366,1.9366,1.9366,1.9366,1.9366,1.9366,1.8544,1.6261,1.3139,1.0305,1.0243,1.0517,1.063,1.0723,1.074,1.062,1.0531,1.0469,1.0266,1.0198,1.0229,1.0259,1.0212,1.0344,1.047,1.0394,1.0633,1.0707,1.0717,1.0717,1.0717,1.0717,1.0721,1.0721,1.0721,1.0721,1.0721,1.0721,1.0721,1.0721,1.0721,1.0721,1.0721,1.0724,1.0758,1.0105,0.7118,0.0,0.0,0.0,0.0,0.0,0.0,0.0,0.0,0.0,0.0,0.0,0.0,0.0,0.0,0.0,0.0,0.0,0.0,0.0,0.0,0.0,0.0,0.0,0.0,0.0,0.0,0.0,0.0,0.0,0.0,0.0,0.0,0.0,0.0,0.0,0.0,0.0,0.0,0.0,0.0,0.0,0.0,0.0,0.0,0.0,0.0,1.9366,1.9366,1.9366,1.9366,1.9366,1.9366,1.9366,1.9366,1.9366,1.9366,1.9366,1.9366,1.9366,1.9366,1.9366,1.9366,1.9366,1.9366,1.9366,1.9366,1.9366,1.9366,1.9366,1.9366,1.9366,1.9366,1.9366,1.9133,1.8355,1.6034,1.3116,1.0046,1.027,1.0548,1.0634,1.0733,1.0767,1.0646,1.0685,1.0606,1.0378,1.0321,1.0307,1.0348,1.0409,1.05,1.0544,1.0622,1.0721,1.0721,1.0721,1.0721,1.0721,1.0721,1.0721,1.0721,1.0721,1.0721,1.0721,1.0721,1.0721,1.0721,1.0721,1.0721,1.0721,1.0721,1.0751,1.0105,0.7393,0.3892,0.0,0.0,0.0,0.0,0.0,0.0,0.0,0.0,0.0,0.0,0.0,0.0,0.0,0.0,0.0,0.0,0.0,0.0,0.0,0.0,0.0,0.0,0.0,0.0,0.0,0.0,0.0,0.0,0.0,0.0,0.0,0.0,0.0,0.0,0.0,0.0,0.0,0.0,0.0,0.0,0.0,0.0,0.0,0.0,0.0,1.9366,1.9366,1.9366,1.9366,1.9366,1.9366,1.9366,1.9366,1.9366,1.9366,1.9366,1.9366,1.9366,1.9366,1.9366,1.9366,1.9366,1.9366,1.9366,1.9366,1.9366,1.9366,1.9366,1.9366,1.9366,1.9366,1.9249,1.8771,1.7473,1.5509,1.317,1.0207,1.0022,1.027,1.0599,1.0685,1.074,1.0704,1.0673,1.0626,1.0578,1.0504,1.048,1.0524,1.0592,1.0578,1.0619,1.0683,1.0721,1.0721,1.0721,1.0721,1.0721,1.0721,1.0721,1.0721,1.0721,1.0721,1.0721,1.0721,1.0721,1.0721,1.0721,1.0721,1.0721,1.0721,1.0329,0.9416,0.7534,0.3896,0.0,0.0,0.0,0.0,0.0,0.0,0.0,0.0,0.0,0.0,0.0,0.0,0.0,0.0,0.0,0.0,0.0,0.0,0.0,0.0,0.0,0.0,0.0,0.0,0.0,0.0,0.0,0.0,0.0,0.0,0.0,0.0,0.0,0.0,0.0,0.0,0.0,0.0,0.0,0.0,0.0,0.0,0.0,0.0,0.0,1.9058,1.9178,1.9312,1.9366,1.9366,1.9366,1.9366,1.9366,1.9366,1.9366,1.9366,1.9366,1.9366,1.9366,1.9366,1.9366,1.9366,1.9366,1.9366,1.9366,1.9366,1.9366,1.9366,1.9366,1.9366,1.9366,1.9249,1.8648,1.7085,1.5192,1.3093,1.0354,0.9844,1.0025,1.0382,1.0456,1.0695,1.0711,1.0711,1.0721,1.0721,1.0649,1.0619,1.0666,1.0666,1.0656,1.067,1.0721,1.0721,1.0721,1.0721,1.0721,1.0721,1.0721,1.0721,1.0721,1.0721,1.0721,1.0721,1.0721,1.0721,1.0721,1.0721,1.0721,1.0721,1.0721,1.0744,0.9692,0.7257,0.0,0.0,0.0,0.0,0.0,0.0,0.0,0.0,0.0,0.0,0.0,0.0,0.0,0.0,0.0,0.0,0.0,0.0,0.0,0.0,0.0,0.0,0.0,0.0,0.0,0.0,0.0,0.0,0.0,0.0,0.0,0.0,0.0,0.0,0.0,0.0,0.0,0.0,0.0,0.0,0.0,0.0,0.0,0.0,0.0,0.0,1.8677,1.8951,1.9245,1.9366,1.9366,1.9366,1.9366,1.9366,1.9366,1.9366,1.9366,1.9366,1.9366,1.9366,1.9366,1.9366,1.9366,1.9366,1.9366,1.9366,1.9366,1.9366,1.9366,1.9366,1.9366,1.9366,1.9366,1.8648,1.7566,1.5542,1.3269,1.0737,0.9903,0.984,0.9986,1.0388,1.0654,1.0771,1.0683,1.0714,1.0721,1.0721,1.0714,1.0714,1.0721,1.0721,1.0721,1.0721,1.0721,1.0721,1.0721,1.0721,1.0721,1.0721,1.0721,1.0721,1.0721,1.0721,1.0721,1.0721,1.0721,1.0721,1.0721,1.0721,1.0721,1.0731,1.0755,0.9543,0.7111,0.0,0.0,0.0,0.0,0.0,0.0,0.0,0.0,0.0,0.0,0.0,0.0,0.0,0.0,0.0,0.0,0.0,0.0,0.0,0.0,0.0,0.0,0.0,0.0,0.0,0.0,0.0,0.0,0.0,0.0,0.0,0.0,0.0,0.0,0.0,0.0,0.0,0.0,0.0,0.0,0.0,0.0,0.0,0.0,0.0,0.0,1.8657,1.8945,1.9245,1.9366,1.9366,1.9366,1.9366,1.9366,1.9359,1.9366,1.9468,1.9359,1.9366,1.9366,1.9366,1.9366,1.9366,1.9366,1.9366,1.9366,1.9366,1.9366,1.9366,1.9366,1.9366,1.9366,1.9366,1.9127,1.8169,1.5902,1.3975,1.226,1.0155,0.9824,0.9853,1.0263,1.0684,1.0695,1.068,1.0721,1.0721,1.0721,1.0721,1.0721,1.0721,1.0721,1.0721,1.0721,1.0721,1.0721,1.0721,1.0721,1.0721,1.0721,1.0721,1.0721,1.0721,1.0721,1.0721,1.0721,1.0721,1.0721,1.0721,1.0721,1.0721,1.0721,1.0605,1.0222,0.7653,0.4159,0.0,0.0,0.0,0.0,0.0,0.0,0.0,0.0,0.0,0.0,0.0,0.0,0.0,0.0,0.0,0.0,0.0,0.0,0.0,0.0,0.0,0.0,0.0,0.0,0.0,0.0,0.0,0.0,0.0,0.0,0.0,0.0,0.0,0.0,0.0,0.0,0.0,0.0,0.0,0.0,0.0,0.0,0.0,0.0,0.0]}]]